     2.11           OBSERVATION DATA    G (GPS)             RINEX VERSION / TYPE
teqc 2010Oct21 OPUS Account 20111028 19:57:59UTC            PGM / RUN BY / DATE
Y 1527                                                      MARKER NAME
3080                                                        MARKER NUMBER
CSMIDDLETON NGS                                             OBSERVER / AGENCY
4624K01631 TRIMBLE NETR5 4.41                               REC # / TYPE / VERS
12481390 TRM41249.00 NONE                                   ANT # / TYPE
  -702492.0660 -5595564.2974  2969370.3496                  APPROX POSITION XYZ
        2.0000        0.0000        0.0000                  ANTENNA: DELTA H/E/N
     1     1                                                WAVELENGTH FACT L1/2
     5    L1    L2    C1    P1    P2                        # / TYPES OF OBSERV
    15                                                      LEAP SECONDS
  2011     8    26     0     0    0.0000000     GPS         TIME OF FIRST OBS
                                                            END OF HEADER
 11  8 26  0  0  0.0000000  0  9G10G12G05G09G17G25G04G30G02
 109660095.09118  85449578.44156  20867600.133                    20867610.215
 112500655.58918  87662924.89417  21408166.094                    21408175.668
 114603718.29217  89301682.54817  21808340.914                    21808352.000
 125030415.86017  97426435.77454  23792530.070                    23792545.164
 122101430.12417  95144092.80516  23235146.242                    23235158.543
 126403109.79317  98495977.56116  24053716.875                    24053730.797
 114692024.52018  89370550.46255  21825148.375                    21825159.051
 126831597.61616  98829915.85053  24135263.320                    24135273.875
 108545252.41218  84580930.74356  20655467.664                    20655475.199
 11  8 26  0  0 30.0000000  0  9G10G12G05G09G17G25G04G30G02
 109667109.626 8  85455044.34046  20868934.875                    20868945.512
 112442772.897 8  87617821.554 7  21397151.219                    21397161.133
 114516973.598 7  89234089.396 7  21791833.328                    21791844.688
 125108570.916 7  97487335.65644  23807402.477                    23807417.793
 122154081.594 7  95185119.895 6  23245165.781                    23245177.508
 126304743.207 7  98419328.346 6  24034997.758                    24035011.152
 114769231.935 8  89430712.07845  21839840.273                    21839851.332
 126730702.205 6  98751296.14543  24116062.813                    24116074.781
 108547094.851 8  84582366.42746  20655817.969                    20655825.934
 11  8 26  0  1  0.0000000  0  9G10G12G05G09G17G25G04G30G02
 109674754.938 8  85461001.74646  20870389.516                    20870399.555
 112385332.892 8  87573063.168 7  21386220.555                    21386230.668
 114430561.833 7  89166755.652 7  21775390.141                    21775401.230
 125186864.042 7  97548343.12343  23822301.195                    23822316.715
 122206897.346 7  95226274.974 6  23255216.578                    23255228.227
 126206567.865 7  98342828.152 6  24016315.375                    24016329.547
 114846553.825 8  89490962.88645  21854554.547                    21854565.043
 126630042.773 6  98672860.31843  24096907.945                    24096920.359
 108549209.599 8  84584014.30446  20656220.563                    20656228.602
 11  8 26  0  1 30.0000000  0  9G10G12G05G09G17G25G04G30G02
 109683031.227 8  85467450.84646  20871964.609                    20871974.500
 112328338.055 8  87528651.657 7  21375374.719                    21375384.629
 114344485.357 7  89099683.167 7  21759010.359                    21759020.809
 125265291.925 6  97609455.59044  23837225.883                    23837241.434
 122259877.751 7  95267558.378 6  23265298.344                    23265309.859
 126108586.303 7  98266478.958 6  23997670.438                    23997684.102
 114923988.353 8  89551301.48045  21869289.727                    21869300.289
 126529622.156 6  98594610.51543  24077799.344                    24077810.492
 108551595.355 8  84585873.35146  20656674.375                    20656682.410
 11  8 26  0  2  0.0000000  0  9G10G12G05G09G17G25G04G30G02
 109691937.922 8  85474391.15346  20873659.156                    20873669.422
 112271790.676 8  87484588.827 7  21364614.305                    21364623.547
 114258747.144 7  89032874.277 7  21742694.961                    21742705.945
 125343851.271 7  97670670.49944  23852174.984                    23852191.203
 122313023.090 7  95308970.307 6  23275411.406                    23275423.039
 126010801.166 7  98190282.809 6  23979062.359                    23979076.207
 115001533.680 8  89611726.40745  21884046.180                    21884056.543
 126429443.123 6  98516548.94443  24058733.789                    24058747.055
 108554250.837 7  84587942.57946  20657180.086                    20657187.836
 11  8 26  0  2 30.0000000  0  9G10G12G05G09G17G25G04G30G02
 109701474.855 8  85481822.55846  20875474.125                    20875484.469
 112215693.237 8  87440876.589 7  21353938.914                    21353948.973
 114173350.044 8  88966331.179 7  21726444.344                    21726455.160
 125422538.702 6  97731985.18944  23867149.023                    23867164.992
 122366334.463 7  95350511.590 6  23285556.469                    23285567.938
 125913215.312 7  98114241.960 6  23960492.320                    23960506.332
 115079187.934 8  89672236.20645  21898823.109                    21898833.387
 126329508.656 6  98438677.98543  24039717.867                    24039729.719
 108557175.285 8  84590221.38346  20657736.469                    20657744.496
 11  8 26  0  3  0.0000000  0  9G10G12G05G09G17G25G04G30G02
 109711642.021 8  85489745.06246  20877408.672                    20877418.805
 112160047.935 8  87397516.650 7  21343350.219                    21343359.836
 114088296.702 8  88900055.940 7  21710258.625                    21710269.797
 125501350.701 7  97793396.92944  23882146.719                    23882162.145
 122419812.049 7  95392182.394 6  23295732.633                    23295744.695
 125815831.132 7  98038358.303 6  23941960.523                    23941974.438
 115156949.272 8  89732829.43845  21913621.008                    21913631.500
 126229821.541 6  98360999.73143  24020748.641                    24020760.098
 108560366.995 8  84592708.44246  20658343.547                    20658351.359
 11  8 26  0  3 30.0000000  0  9G10G12G05G09G17G25G04G30G02
 109722439.050 8  85498158.36546  20879463.734                    20879473.563
 112104856.588 8  87354510.455 7  21332847.516                    21332857.328
 114003590.049 8  88834050.864 7  21694139.609                    21694150.625
 125580284.171 7  97854903.35844  23897168.000                    23897183.148
 122473456.539 7  95433983.250 6  23305941.008                    23305952.629
 125718651.312 7  97962633.824 6  23923467.516                    23923481.254
 115234815.653 8  89793504.54045  21928437.992                    21928448.828
 126130384.584 6  98283516.41043  24001826.398                    24001838.523
 108563825.167 7  84595403.14146  20659001.930                    20659009.434
 11  8 26  0  4  0.0000000  0  9G10G12G05G09G17G25G04G30G02
 109733865.616 8  85507062.22246  20881637.711                    20881647.957
 112050121.178 8  87311859.525 7  21322431.953                    21322441.793
 113919232.412 8  88768317.728 7  21678086.875                    21678097.762
 125659335.311 6  97916501.51044  23912211.148                    23912225.953
 122527268.300 7  95475914.449 6  23316181.031                    23316193.000
 125621678.094 7  97887070.370 6  23905014.852                    23905028.234
 115312784.936 8  89854259.79645  21943274.930                    21943285.898
 126031200.124 6  98206229.87043  23982952.508                    23982964.047
 108567547.672 8  84598303.80146  20659709.898                    20659717.555
 11  8 26  0  4 30.0000000  0  9G10G12G05G09G17G25G04G30G02
 109745921.569 8  85516456.50246  20883931.867                    20883942.168
 111995844.323 8  87269565.909 7  21312103.414                    21312112.848
 113835226.829 8  88702858.927 7  21662101.250                    21662111.770
 125738501.316 6  97978189.15243  23927274.609                    23927291.215
 122581248.017 7  95517976.513 6  23326453.203                    23326465.094
 125524914.652 7  97811670.357 6  23886600.563                    23886614.684
 115390855.784 8  89915094.20445  21958131.680                    21958142.148
 125932271.556 6  98129142.71143  23964126.211                    23964138.586
 108571534.358 8  84601410.32846  20660468.859                    20660476.426
 11  8 26  0  5  0.0000000  0  9G10G12G05G09G17G25G04G30G02
 109758606.956 8  85526341.24746  20886346.070                    20886356.113
 111942028.915 8  87227631.853 7  21301862.555                    21301872.324
 113751576.390 8  88637676.860 7  21646182.906                    21646193.484
 125817778.878 6  98039963.68943  23942361.297                    23942377.465
 122635396.501 7  95560170.094 6  23336757.211                    23336769.199
 125428363.828 7  97736436.036 6  23868227.391                    23868241.477
 115469026.387 7  89976006.34945  21973006.703                    21973017.488
 125833601.836 6  98052257.29943  23945350.078                    23945362.180
 108575784.262 8  84604721.94746  20661277.477                    20661285.332
 11  8 26  0  5 30.0000000  0  9G10G12G05G09G17G25G04G30G02
 109771921.121 8  85536715.94746  20888879.594                    20888889.395
 111888676.263 8  87186058.384 7  21291709.820                    21291719.469
 113668283.638 8  88572773.504 7  21630332.570                    21630343.379
 125897164.383 6  98101822.33143  23957467.813                    23957484.270
 122689713.945 7  95602495.307 6  23347093.781                    23347106.027
 125332028.032 7  97661369.248 6  23849895.992                    23849909.367
 115547295.019 7  90036994.86845  21987900.906                    21987911.473
 125735193.725 6  97975575.70843  23926623.953                    23926635.258
 108580295.792 8  84608237.43246  20662135.984                    20662143.441
 11  8 26  0  6  0.0000000  0  9G10G12G05G09G17G25G04G30G02
 109785863.729 8  85547580.34546  20891532.750                    20891542.914
 111835788.149 8  87144846.882 7  21281645.695                    21281654.855
 113585350.870 8  88508150.659 7  21614551.234                    21614562.250
 125976654.214 7  98163762.28244  23972594.672                    23972610.344
 122744201.054 7  95644952.738 6  23357461.953                    23357474.258
 125235909.754 7  97586471.933 6  23831604.797                    23831618.324
 115625659.502 7  90098058.07045  22002813.109                    22002823.820
 125637049.730 7  97899099.93743  23907948.250                    23907959.590
 108585067.491 8  84611955.65046  20663043.953                    20663051.973
 11  8 26  0  6 30.0000000  0  9G10G12G05G09G17G25G04G30G02
 109800434.380 8  85558934.13146  20894305.297                    20894315.680
 111783366.961 8  87103999.228 7  21271670.344                    21271679.801
 113502781.108 8  88443810.673 7  21598838.539                    21598849.398
 126056245.329 7  98225781.15243  23987740.852                    23987755.953
 122798858.377 7  95687542.816 6  23367863.180                    23367875.324
 125140011.663 7  97511746.181 6  23813355.977                    23813369.461
 115704117.999 8  90159194.52845  22017743.555                    22017753.691
 125539172.789 6  97822832.28943  23889322.688                    23889333.906
 108590098.162 8  84615875.66346  20664001.109                    20664008.953
 11  8 26  0  7  0.0000000  0  9G10G12G05G09G17G25G04G30G02
 109815632.240 8  85570776.64546  20897197.375                    20897207.656
 111731414.926 8  87063517.128 7  21261783.828                    21261793.473
 113420577.016 8  88379755.633 7  21583195.570                    21583206.285
 126135934.431 7  98287876.38243  24002904.539                    24002919.996
 122853686.231 7  95730265.769 6  23378296.539                    23378308.289
 125044336.385 7  97437194.031 6  23795149.875                    23795162.777
 115782668.963 7  90220403.03645  22032691.242                    22032702.414
 125441565.573 6  97746774.83443  23870748.148                    23870759.848
 108595386.688 8  84619996.60546  20665007.945                    20665015.520
 11  8 26  0  7 30.0000000  0  9G10G12G05G09G17G25G04G30G02
 109831457.550 8  85583108.08846  20900208.945                    20900219.199
 111679934.728 8  87023402.701 7  21251987.656                    21251997.078
 113338741.498 8  88315987.771 7  21567622.805                    21567633.438
 126215718.545 6  98350045.62743  24018087.758                    24018103.805
 122908685.126 7  95773121.989 6  23388762.656                    23388774.738
 124948887.216 7  97362818.092 6  23776986.063                    23776999.621
 115861311.040 7  90281682.53345  22047656.547                    22047667.059
 125344231.576 6  97670930.24243  23852226.031                    23852237.117
 108600932.571 8  84624318.07946  20666062.875                    20666070.180
 11  8 26  0  8  0.0000000  0  9G10G12G05G09G17G25G04G30G02
 109847909.160 8  85595927.54146  20903339.570                    20903349.535
 111628928.101 8  86983657.289 7  21242281.250                    21242290.641
 113257276.837 8  88252508.904 7  21552120.438                    21552131.250
 126295593.846 6  98412285.94344  24033287.508                    24033303.816
 122963855.761 7  95816112.038 6  23399261.023                    23399273.203
 124853666.188 7  97288619.916 6  23758866.555                    23758879.824
 115940041.857 7  90343031.18145  22062637.992                    22062649.043
 125247172.951 6  97595300.22343  23833756.586                    23833767.410
 108606733.662 8  84628838.42746  20667166.789                    20667174.652
 11  8 26  0  8 30.0000000  0  9G10G12G05G09G17G25G04G30G02
 109864987.134 8  85609235.07546  20906589.219                    20906599.023
 111578397.071 8  86944282.457 7  21232665.633                    21232674.918
 113176186.377 7  88189321.611 7  21536689.531                    21536700.266
 126375557.162 6  98474594.80543  24048504.234                    24048520.180
 123019198.831 7  95859236.460 6  23409792.633                    23409804.703
 124758676.203 7  97214601.771 6  23740789.797                    23740802.926
 116018859.782 7  90404447.70645  22077636.500                    22077647.824
 125150392.873 6  97519887.24643  23815339.117                    23815350.930
 108612789.500 8  84633557.26846  20668319.211                    20668327.039
 11  8 26  0  9  0.0000000  0  9G10G12G05G09G17G25G04G30G02
 109882690.518 8  85623029.93746  20909958.164                    20909968.145
 111528343.481 8  86905279.670 7  21223140.875                    21223149.926
 113095472.133 8  88126427.477 7  21521329.750                    21521340.313
 126455605.250 6  98536969.74944  24063736.906                    24063753.195
 123074714.483 7  95902495.382 6  23420356.344                    23420369.098
 124663919.914 7  97140765.749 6  23722758.852                    23722771.902
 116097763.084 7  90465930.75345  22092651.930                    22092662.508
 125053893.979 6  97444693.38743  23796976.469                    23796987.699
 108619098.329 8  84638473.26046  20669519.773                    20669527.309
 11  8 26  0  9 30.0000000  0  9G10G12G05G09G17G25G04G30G02
 109901019.112 8  85637311.98146  20913446.359                    20913456.047
 111478769.585 8  86866650.675 7  21213706.813                    21213716.617
 113015137.000 8  88063828.761 7  21506042.836                    21506052.789
 126535734.861 6  98599408.22243  24078984.773                    24079001.844
 123130403.295 7  95945889.228 6  23430954.391                    23430966.230
 124569400.000 7  97067113.931 6  23704772.086                    23704785.715
 116176750.074 7  90527479.00945  22107682.469                    22107693.488
 124957679.168 6  97369720.88943  23778666.836                    23778678.184
 108625659.124 8  84643585.58446  20670768.367                    20670776.188
 11  8 26  0 10  0.0000000  0  9G10G12G05G09G17G25G04G30G02
 109919972.271 8  85652080.69746  20917052.570                    20917063.059
 111429677.589 8  86828397.184 7  21204364.969                    21204374.824
 112935183.626 8  88001527.497 7  21490827.977                    21490838.543
 126615942.889 6  98661907.74743  24094248.680                    24094264.656
 123186265.920 7  95989418.501 6  23441584.375                    23441596.785
 124475119.275 7  96993648.522 6  23686831.188                    23686844.551
 116255819.065 7  90589091.16545  22122728.539                    22122739.934
 124861751.460 6  97294972.07543  23760412.359                    23760424.535
 108632470.949 8  84648893.51946  20672064.719                    20672072.188
 11  8 26  0 10 30.0000000  0  9G10G12G05G09G17G25G04G30G02
 109939549.093 8  85667335.38146  20920777.789                    20920788.035
 111381068.928 8  86790520.321 7  21195115.023                    21195124.656
 112855614.457 8  87939525.616 7  21475686.336                    21475696.949
 126696225.541 6  98724465.44244  24109525.547                    24109542.555
 123242302.664 7  96033083.464 6  23452247.797                    23452259.945
 124381080.131 7  96920371.328 6  23668935.844                    23668948.961
 116334968.240 7  90650765.80745  22137790.164                    22137801.691
 124766113.315 7  97220448.91544  23742213.492                    23742224.840
 108639532.085 8  84654395.72146  20673408.055                    20673415.742
 11  8 26  0 11  0.0000000  0  9G10G12G05G09G17G25G04G30G02
 109959748.902 8  85683075.50646  20924622.086                    20924631.898
 111332946.423 8  86753022.277 7  21185957.609                    21185966.926
 112776432.639 8  87877825.571 7  21460618.547                    21460628.723
 126776579.927 6  98787079.02043  24124817.844                    24124833.773
 123298514.070 7  96076884.518 6  23462944.859                    23462956.199
 124287285.411 7  96847284.642 6  23651087.180                    23651100.895
 116414195.914 7  90712501.60645  22152866.797                    22152878.262
 124670767.746 6  97146153.66943  23724069.828                    23724081.285
 108646841.710 8  84660091.55846  20674799.227                    20674806.609
 11  8 26  0 11 30.0000000  0  9G10G12G05G09G17G25G04G30G02
 109980571.051 8  85699300.57646  20928584.063                    20928593.973
 111285311.337 8  86715904.050 7  21176893.258                    21176902.453
 112697640.224 8  87816428.955 7  21445624.727                    21445635.363
 126857002.740 6  98849745.96044  24140122.000                    24140138.504
 123354900.690 7  96120822.117 6  23473674.961                    23473686.789
 124193737.720 7  96774390.458 7  23633285.055                    23633299.309
 116493500.453 7  90774297.30445  22167958.211                    22167969.277
 124575717.504 7  97072088.56743  23705982.328                    23705994.063
 108654398.526 8  84665980.00846  20676237.188                    20676244.387
 11  8 26  0 12  0.0000000  0  9G10G12G05G09G17G25G04G30G02
 110002014.978 8  85716010.14346  20932664.539                    20932674.414
 111238165.946 8  86679167.406 7  21167921.945                    21167930.965
 112619239.697 8  87755337.708 7  21430705.727                    21430716.188
 126937490.640 6  98912463.62044  24155437.953                    24155454.656
 123411462.743 7  96164896.422 6  23484437.906                    23484449.977
 124100439.764 7  96701690.851 6  23615532.023                    23615544.902
 116572880.083 7  90836151.51745  22183063.000                    22183074.492
 124480965.485 7  96998255.90044  23687951.711                    23687963.055
 108662201.199 8  84672060.03446  20677722.125                    20677729.441
 11  8 26  0 12 30.0000000  0  9G10G12G05G09G17G25G04G30G02
 110024079.500 8  85733203.29346  20936863.406                    20936873.527
 111191511.786 8  86642813.547 7  21159043.773                    21159053.098
 112541233.860 7  87694554.005 7  21415861.430                    21415871.996
 127018040.128 6  98975229.22443  24170766.023                    24170782.402
 123468201.024 7  96209108.029 6  23495235.125                    23495247.516
 124007393.945 7  96629187.758 7  23597825.492                    23597838.961
 116652332.996 7  90898062.82145  22198182.938                    22198193.617
 124386514.247 6  96924657.53844  23669978.141                    23669989.961
 108670248.358 8  84678330.57146  20679253.422                    20679260.785
 11  8 26  0 13  0.0000000  0  9G10G12G05G09G17G25G04G30G02
 110046764.211 8  85750879.70646  20941180.445                    20941190.359
 111145351.141 8  86606844.237 7  21150259.547                    21150268.727
 112463625.393 8  87634079.949 7  21401092.867                    21401103.348
 127098648.258 6  99038040.56743  24186105.609                    24186122.016
 123525115.784 7  96253457.160 6  23506065.766                    23506077.422
 123914603.311 7  96556883.450 6  23580167.938                    23580180.992
 116731857.939 7  90960030.27745  22213316.031                    22213327.098
 124292366.977 6  96851296.06943  23652062.531                    23652073.703
 108678539.300 8  84684791.06846  20680831.078                    20680838.309
 11  8 26  0 13 30.0000000  0  9G10G12G05G09G17G25G04G30G02
 110070068.302 8  85769038.75046  20945614.383                    20945624.801
 111099686.300 8  86571261.267 7  21141569.484                    21141579.039
 112386417.090 8  87573917.693 7  21386400.852                    21386411.273
 127179311.644 6  99100894.90343  24201456.242                    24201471.984
 123582207.769 7  96297944.386 6  23516930.273                    23516942.223
 123822070.561 7  96484780.124 6  23562559.523                    23562572.473
 116811452.960 7  91022052.32845  22228462.586                    22228473.305
 124198526.461 7  96778173.64444  23634205.523                    23634216.379
 108687072.751 8  84691440.53446  20682454.547                    20682462.191
 11  8 26  0 14  0.0000000  0  9G10G12G05G09G17G25G04G30G02
 110093990.701 8  85787679.60046  20950167.008                    20950176.992
 111054519.300 8  86536066.229 7  21132974.648                    21132984.000
 112309611.488 8  87514069.238 7  21371785.125                    21371795.758
 127260027.275 6  99163790.01343  24216814.719                    24216831.047
 123639477.201 6  96342569.887 6  23527828.141                    23527840.348
 123729798.266 7  96412879.736 7  23545000.570                    23545013.809
 116891116.534 7  91084127.81245  22243621.953                    22243632.820
 124104995.471 6  96705292.41544  23616406.516                    23616417.906
 108695847.473 8  84698278.00646  20684124.461                    20684131.980
 11  8 26  0 14 30.0000000  0  9G10G12G05G09G17G25G04G30G02
 110118531.004 8  85806801.92846  20954837.117                    20954846.879
 111009851.488 8  86501260.162 7  21124474.883                    21124484.629
 112233210.609 8  87454536.153 7  21357246.445                    21357256.750
 127340791.803 7  99226723.17243  24232184.234                    24232200.738
 123696924.473 6  96387333.979 6  23538759.828                    23538771.820
 123637789.078 7  96341184.377 6  23527491.922                    23527505.016
 116970847.115 7  91146255.51645  22258794.328                    22258805.395
 124011776.851 6  96632654.59143  23598667.703                    23598679.000
 108704862.102 8  84705302.41446  20685839.969                    20685847.355
 11  8 26  0 15  0.0000000  0  9G10G12G05G09G17G25G04G30G02
 110143688.407 8  85826405.11446  20959624.281                    20959634.141
 110965684.696 8  86466844.496 7  21116070.195                    21116079.371
 112157217.233 7  87395320.603 7  21342785.336                    21342795.699
 127421602.023 7  99289691.99243  24247562.688                    24247578.125
 123754550.072 6  96432236.992 6  23549725.648                    23549737.879
 123546045.687 7  96269696.098 6  23510033.703                    23510046.441
 117050642.927 7  91208434.03645  22273978.906                    22273989.941
 123918873.334 6  96560262.31744  23580988.422                    23581000.383
 108714115.320 8  84712512.74246  20687601.031                    20687608.227
 11  8 26  0 15 30.0000000  0  9G10G12G05G09G17G25G04G30G02
 110169461.819 7  85846488.31145  20964528.781                    20964538.762
 110922020.904 8  86432820.790 7  21107761.125                    21107770.848
 112081634.079 8  87336424.710 7  21328402.266                    21328412.660
 127502454.700 7  99352693.85943  24262948.102                    24262965.332
 123812354.504 6  96477279.368 6  23560725.008                    23560737.590
 123454570.741 7  96198416.979 6  23492626.328                    23492639.359
 117130502.294 7  91270662.08745  22289175.852                    22289186.797
 123826287.695 6  96488117.74543  23563370.820                    23563381.641
 108723606.155 8  84719908.23146  20689407.031                    20689414.215
 11  8 26  0 16  0.0000000  0  9G10G12G05G09G17G25G04G30G02
 110195849.875 7  85867050.44946  20969549.734                    20969560.176
 110878861.866 7  86399190.387 7  21099548.492                    21099557.711
 112006463.289 7  87277850.122 7  21314097.789                    21314108.043
 127583346.617 6  99415726.32443  24278340.758                    24278357.820
 123870338.098 6  96522461.359 6  23571759.047                    23571771.945
 123363366.960 7  96127349.188 7  23475270.914                    23475283.969
 117210423.687 7  91332938.47545  22304384.469                    22304394.836
 123734022.808 6  96416223.12543  23545812.813                    23545823.527
 108733333.246 8  84727487.80346  20691257.828                    20691265.008
 11  8 26  0 16 30.0000000  0  9G10G12G05G09G17G25G04G30G02
 110222851.643 8  85888090.81046  20974688.234                    20974698.340
 110836209.419 8  86365954.728 7  21091432.031                    21091441.254
 111931707.651 8  87219599.052 7  21299872.070                    21299882.633
 127664274.354 6  99478786.66743  24293742.156                    24293758.219
 123928501.195 6  96567783.167 6  23582827.758                    23582840.016
 123272436.900 7  96056494.660 6  23457967.477                    23457980.156
 117290405.461 7  91395261.92145  22319604.367                    22319615.602
 123642081.398 6  96344580.58343  23528316.570                    23528327.652
 108743295.399 8  84735250.54346  20693153.609                    20693160.941
 11  8 26  0 17  0.0000000  0  9G10G12G05G09G17G25G04G30G02
 110250466.610 8  85909608.97746  20979943.164                    20979953.316
 110794065.862 8  86333115.601 7  21083412.023                    21083421.336
 111857369.636 8  87161673.387 7  21285725.852                    21285736.355
 127745234.896 6  99541872.56543  24309148.188                    24309164.477
 123986844.470 6  96613245.434 6  23593929.828                    23593942.289
 123181783.464 7  95985855.686 6  23440716.930                    23440729.152
 117370446.270 7  91457631.36545  22334836.156                    22334846.773
 123550466.483 7  96273192.43044  23510882.781                    23510894.086
 108753491.547 8  84743195.62046  20695093.547                    20695101.164
 11  8 26  0 17 30.0000000  0  9G10G12G05G09G17G25G04G30G02
 110278693.267 8  85931603.78746  20985314.656                    20985324.605
 110752432.423 8  86300673.966 7  21075489.773                    21075498.980
 111783451.492 8  87104074.903 7  21271659.883                    21271670.277
 127826224.925 6  99604981.46043  24324560.164                    24324577.352
 124045368.096 7  96658848.229 6  23605065.930                    23605078.699
 123091409.066 7  95915434.133 7  23423518.688                    23423532.113
 117450544.176 7  91520045.29445  22350077.992                    22350088.922
 123459180.423 6  96202060.52643  23493511.609                    23493522.242
 108763919.942 8  84751321.66546  20697078.188                    20697085.566
 11  8 26  0 18  0.0000000  0  9G10G12G05G09G17G25G04G30G02
 110307530.767 8  85954074.58946  20990802.234                    20990812.242
 110711311.114 8  86268631.408 7  21067664.313                    21067673.934
 111709955.719 8  87046805.536 7  21257674.031                    21257684.469
 127907241.516 6  99668111.02243  24339977.367                    24339994.633
 124104072.554 7  96704591.914 6  23616237.742                    23616250.395
 123001316.576 7  95845232.244 7  23406374.750                    23406387.625
 117530697.804 7  91582502.66745  22365330.680                    22365341.852
 123368226.400 6  96131187.35144  23476203.500                    23476215.117
 108774579.952 8  84759628.19046  20699106.680                    20699114.063
 11  8 26  0 18 30.0000000  0  9G10G12G05G09G17G25G04G30G02
 110336978.061 8  85977020.54346  20996406.195                    20996415.977
 110670703.578 8  86236989.171 7  21059937.008                    21059946.355
 111636885.021 8  86989867.392 7  21243769.039                    21243779.359
 127988281.357 6  99731258.71343  24355398.336                    24355415.703
 124162958.120 6  96750476.725 6  23627443.313                    23627455.793
 122911508.682 7  95775252.117 7  23389285.273                    23389298.055
 117610905.737 7  91645002.33745  22380594.016                    22380604.414
 123277607.152 6  96060575.05244  23458959.570                    23458969.813
 108785470.367 8  84768114.24446  20701179.063                    20701186.539
 11  8 26  0 19  0.0000000  0  9G10G12G05G09G17G25G04G30G02
 110367034.163 8  86000440.89846  21002125.383                    21002135.703
 110630611.688 8  86205748.752 7  21052307.688                    21052317.324
 111564241.813 8  86933262.362 7  21229945.055                    21229955.941
 128069341.223 6  99794422.04243  24370824.117                    24370841.172
 124222025.302 6  96796503.057 6  23638683.500                    23638695.922
 122821987.945 7  95705495.762 7  23372249.359                    23372262.199
 117691166.285 7  91707543.00045  22395866.867                    22395877.602
 123187325.203 6  95990225.57243  23441778.711                    23441790.027
 108796589.894 8  84776778.83446  20703295.023                    20703302.234
 11  8 26  0 19 30.0000000  0  9G10G12G05G09G17G25G04G30G02
 110397697.968 8  86024334.78446  21007960.867                    21007970.609
 110591037.491 8  86174911.717 7  21044777.180                    21044786.074
 111492028.092 8  86876991.987 7  21216203.563                    21216213.887
 128150418.182 6  99857598.65143  24386252.719                    24386269.520
 124281274.817 6  96842671.445 6  23649958.078                    23649970.664
 122732757.110 7  95635965.269 7  23355269.078                    23355282.246
 117771477.977 7  91770123.52145  22411149.578                    22411160.184
 123097383.516 7  95920141.22543  23424663.539                    23424673.949
 108807937.330 8  84785621.02246  20705454.203                    20705461.570
 11  8 26  0 20  0.0000000  0  9G10G12G05G09G17G25G04G30G02
 110428968.461 8  86048701.42246  21013911.172                    21013921.449
 110551982.589 8  86144479.344 7  21037345.148                    21037354.488
 111420246.865 8  86821058.638 7  21202543.852                    21202554.180
 128231508.776 6  99920785.88743  24401683.719                    24401701.004
 124340706.806 6  96888982.045 6  23661267.281                    23661280.340
 122643818.976 7  95566662.877 7  23338344.672                    23338357.883
 117851839.373 7  91832742.76945  22426442.023                    22426452.813
 123007784.935 7  95850324.25444  23407613.500                    23407624.703
 108819511.566 8  84794639.93446  20707657.078                    20707664.473
 11  8 26  0 20 30.0000000  0  9G10G12G05G09G17G25G04G30G02
 110460844.163 8  86073539.65346  21019977.125                    21019986.586
 110513448.060 8  86114452.439 7  21030012.211                    21030021.344
 111348899.966 8  86765463.702 7  21188967.297                    21188977.289
 128312609.831 6  99983981.27843  24417116.750                    24417134.527
 124400321.684 6  96935435.126 6  23672612.617                    23672625.105
 122555175.926 7  95497590.441 7  23321477.047                    23321489.863
 117932248.670 7  91895399.34344  22441742.969                    22441754.363
 122918532.018 7  95780776.59344  23390629.789                    23390640.211
 108831311.095 8  84803834.38946  20709902.336                    20709909.707
 11  8 26  0 21  0.0000000  0  9G10G12G05G09G17G25G04G30G02
 110493323.760 7  86098848.44746  21026157.227                    21026167.398
 110475435.638 8  86084832.381 7  21022778.477                    21022787.980
 111277989.821 8  86710209.110 7  21175473.273                    21175483.531
 128393718.291 6 100047182.41543  24432551.875                    24432569.090
 124460119.518 7  96982030.771 6  23683991.367                    23684003.645
 122466830.716 7  95428750.047 6  23304665.188                    23304677.547
 118012704.541 7  91958092.20445  22457053.203                    22457064.684
 122829627.642 6  95711500.52743  23373711.203                    23373722.191
 108843334.804 8  84813203.52546  20712190.117                    20712197.707
 11  8 26  0 21 30.0000000  0  9G10G12G05G09G17G25G04G30G02
 110526406.064 8  86124626.88446  21032453.086                    21032462.750
 110437947.135 8  86055620.568 7  21015645.195                    21015654.340
 111207518.911 8  86655296.771 7  21162063.242                    21162073.547
 128474831.032 6 100110386.83743  24447987.641                    24448004.629
 124520100.818 7  97028769.403 6  23695405.813                    23695417.563
 122378785.972 7  95360143.780 7  23287911.016                    23287923.699
 118093205.508 7  92020820.20445  22472372.195                    22472383.250
 122741074.405 6  95642498.07444  23356860.422                    23356871.488
 108855581.390 8  84822746.32946  20714520.789                    20714527.992
 11  8 26  0 22  0.0000000  0  9G10G12G05G09G17G25G04G30G02
 110560089.812 8  86150873.97946  21038862.719                    21038872.715
 110400984.100 8  86026818.210 7  21008611.133                    21008620.379
 111137489.419 8  86600728.399 7  21148736.617                    21148747.141
 128555944.469 6 100173591.89043  24463422.680                    24463439.727
 124580265.993 6  97075651.319 6  23706855.156                    23706867.094
 122291044.222 7  95291773.625 6  23271214.000                    23271227.043
 118173749.973 7  92083582.08345  22487699.648                    22487710.887
 122652875.100 6  95573771.39144  23340076.352                    23340087.410
 108868049.260 8  84832461.56446  20716892.891                    20716900.621
 11  8 26  0 22 30.0000000  0  9G10G12G05G09G17G25G04G30G02
 110594374.505 8  86177589.34646  21045387.039                    21045396.371
 110364549.333 8  85998427.500 7  21001677.789                    21001687.125
 111067904.510 8  86546506.453 7  21135495.273                    21135505.230
 128637056.324 6 100236795.66243  24478857.820                    24478875.355
 124640615.703 6  97122676.968 6  23718338.414                    23718351.672
 122203608.794 7  95223642.176 7  23254575.883                    23254588.387
 118254336.812 7  92146377.01845  22503034.875                    22503045.402
 122565032.998 6  95505323.06144  23323360.789                    23323371.523
 108880738.575 8  84842349.34346  20719307.977                    20719315.461
 11  8 26  0 23  0.0000000  0  9G10G12G05G09G17G25G04G30G02
 110629257.751 8  86204771.11146  21052024.789                    21052034.316
 110328643.194 8  85970448.703 7  20994845.070                    20994854.648
 110998765.365 8  86492631.852 7  21122338.266                    21122348.688
 128718163.077 6 100299995.45243  24494292.094                    24494309.559
 124701149.671 7  97169846.232 6  23729858.070                    23729871.063
 122116481.707 7  95155750.973 6  23237995.617                    23238008.703
 118334964.180 7  92209203.51044  22518377.719                    22518388.074
 122477550.265 6  95437154.76244  23306712.633                    23306723.840
 108893646.947 8  84852407.82946  20721764.023                    20721771.680
 11  8 26  0 23 30.0000000  0  9G10G12G05G09G17G25G04G30G02
 110664738.436 8  86232418.40046  21058776.555                    21058786.621
 110293267.337 8  85942883.119 7  20988113.180                    20988122.379
 110930074.812 8  86439106.821 7  21109266.883                    21109276.809
 128799261.824 6 100363189.06143  24509725.391                    24509742.859
 124761868.735 6  97217159.745 6  23741412.984                    23741425.426
 122029665.845 7  95088102.258 7  23221475.531                    23221488.266
 118415630.872 7  92272060.63545  22533727.883                    22533739.719
 122390429.830 6  95369268.76644  23290134.016                    23290145.207
 108906773.978 8  84862636.69046  20724262.008                    20724269.406
 11  8 26  0 24  0.0000000  0  9G10G12G05G09G17G25G04G30G02
 110700815.039 8  86260530.06146  21065641.648                    21065651.281
 110258422.807 8  85915731.557 7  20981482.586                    20981492.121
 110861834.944 8  86385932.946 7  21096281.516                    21096291.578
 128880348.807 6 100426373.44443  24525155.633                    24525173.422
 124822772.971 6  97264617.557 6  23753002.570                    23753014.785
 121943163.612 7  95020697.980 7  23205014.563                    23205027.566
 118496335.185 7  92334947.08544  22549085.766                    22549096.531
 122303674.199 6  95301667.03344  23273625.148                    23273635.762
 108920117.566 8  84873034.28846  20726801.609                    20726808.887
 11  8 26  0 24 30.0000000  0  9G10G12G05G09G17G25G04G30G02
 110737486.543 8  86289105.26346  21072619.969                    21072629.992
 110224111.922 8  85888995.824 7  20974953.359                    20974962.633
 110794048.067 8  86333112.067 8  21083381.805                    21083392.316
 128961421.286 6 100489546.51743  24540583.328                    24540601.438
 124883862.881 7  97312220.033 6  23764627.977                    23764639.934
 121856977.755 7  94953540.201 7  23188614.203                    23188627.105
 118577075.858 7  92397861.86344  22564449.891                    22564461.367
 122217286.312 6  95234351.84544  23257186.109                    23257197.172
 108933676.822 8  84883599.95046  20729381.820                    20729388.953
 11  8 26  0 25  0.0000000  0  9G10G12G05G09G17G25G04G30G02
 110774751.842 8  86318143.16846  21079711.164                    21079721.012
 110190336.235 8  85862677.129 7  20968526.063                    20968535.254
 110726716.540 8  86280646.000 7  21070569.117                    21070579.195
 129042476.409 6 100552706.06043  24556008.227                    24556025.668
 124945138.823 6  97359967.466 6  23776288.086                    23776300.707
 121771111.113 7  94886631.144 6  23172273.867                    23172286.141
 118657851.429 7  92460803.84744  22579820.680                    22579832.207
 122131268.927 6  95167325.36744  23240817.719                    23240828.945
 108947450.878 8  84894332.99046  20732002.727                    20732010.031
 11  8 26  0 25 30.0000000  0  9G10G12G05G09G17G25G04G30G02
 110812608.698 8  86347642.02246  21086915.234                    21086925.344
 110157096.776 8  85836776.275 7  20962200.648                    20962210.152
 110659842.087 8  86228536.092 7  21057843.555                    21057853.598
 129123510.825 6 100615849.45043  24571428.523                    24571446.211
 125006601.006 6  97407860.031 6  23787984.469                    23787996.539
 121685565.782 7  94819972.477 7  23155995.227                    23156007.914
 118738660.242 7  92523771.71444  22595198.680                    22595209.172
 122045624.279 7  95100589.33144  23224519.953                    23224530.789
 108961437.762 8  84905231.86246  20734664.586                    20734671.695
 11  8 26  0 26  0.0000000  0  9G10G12G05G09G17G25G04G30G02
 110851056.414 8  86377601.28646  21094231.656                    21094241.637
 110124395.779 8  85811294.994 7  20955977.688                    20955987.211
 110593427.739 8  86176784.713 7  21045204.695                    21045214.953
 129204521.751 6 100678974.57843  24586844.445                    24586862.563
 125068249.643 6  97455897.905 6  23799715.688                    23799727.531
 121600345.204 7  94753566.842 7  23139778.781                    23139791.109
 118819501.683 7  92586765.01744  22610582.398                    22610593.246
 121960355.861 7  95034146.43844  23208294.266                    23208304.449
 108975637.361 8  84916296.48846  20737366.250                    20737373.676
 11  8 26  0 26 30.0000000  0  9G10G12G05G09G17G25G04G30G02
 110890093.068 8  86408019.46446  21101659.961                    21101669.852
 110092234.173 8  85786234.021 7  20949857.313                    20949867.410
 110527475.378 8  86125393.315 7  21032654.641                    21032665.066
 129285505.935 6 100742078.81343  24602255.664                    24602274.020
 125130085.153 6  97504081.382 6  23811482.508                    23811494.563
 121515451.535 7  94687415.968 7  23123623.789                    23123636.223
 118900373.736 7  92649782.17644  22625971.164                    22625982.301
 121875465.982 7  94967998.50744  23192139.727                    23192150.473
 108990048.176 8  84927525.69546  20740108.609                    20740116.145
 11  8 26  0 27  0.0000000  0  9G10G12G05G09G17G25G04G30G02
 110929717.340 8  86438895.52146  21109200.055                    21109210.402
 110060613.338 8  85761594.419 7  20943840.391                    20943849.750
 110461987.209 8  86074363.639 7  21020192.555                    21020203.055
 129366460.403 6 100805159.97343  24617660.445                    24617678.570
 125192107.699 6  97552410.616 6  23823284.906                    23823297.031
 121430887.643 7  94621522.051 6  23107531.656                    23107544.023
 118981275.318 7  92712822.33244  22641366.875                    22641377.750
 121790957.396 7  94902147.71844  23176058.055                    23176069.422
 109004668.834 8  84938918.42246  20742891.102                    20742898.531
 11  8 26  0 27 30.0000000  0  9G10G12G05G09G17G25G04G30G02
 110969927.257 8  86470227.92546  21116851.891                    21116861.930
 110029534.367 8  85737377.053 7  20937926.477                    20937935.563
 110396965.067 8  86023697.081 7  21007819.211                    21007829.367
 129447381.936 6 100868215.39243  24633059.820                    24633078.406
 125254317.620 6  97600885.859 6  23835123.102                    23835135.273
 121346655.701 7  94555886.784 7  23091503.039                    23091515.719
 119062204.637 7  92775884.12744  22656766.844                    22656778.551
 121706832.455 7  94836595.86044  23160049.867                    23160060.824
 109019497.773 8  84950473.44546  20745713.125                    20745720.145
 11  8 26  0 28  0.0000000  0  9G10G12G05G09G17G25G04G30G02
 111010721.428 8  86502015.60146  21124614.539                    21124624.695
 109998998.868 8  85713583.171 7  20932115.484                    20932125.098
 110332411.147 8  85973395.383 7  20995534.742                    20995545.055
 129528267.601 6 100931242.84443  24648451.539                    24648470.570
 125316715.335 6  97649507.412 6  23846996.992                    23847008.766
 121262758.402 7  94490512.306 7  23075537.484                    23075550.695
 119143160.382 7  92838966.49144  22672172.680                    22672183.602
 121623093.905 7  94771345.06544  23144115.594                    23144125.809
 109034533.954 8  84962189.95646  20748574.289                    20748581.457
 11  8 26  0 28 30.0000000  0  9G10G12G05G09G17G25G04G30G02
 111052098.753 8  86534257.68046  21132488.320                    21132498.484
 109969008.607 8  85690214.143 7  20926408.344                    20926417.855
 110268327.818 8  85923460.366 7  20983340.375                    20983350.102
 129609114.807 6 100994240.35843  24663837.422                    24663855.434
 125379300.631 6  97698275.182 6  23858906.273                    23858918.961
 121179198.710 7  94425400.930 7  23059636.750                    23059649.500
 119224141.596 7  92902068.70344  22687582.133                    22687593.262
 121539744.686 7  94706397.64144  23128253.859                    23128264.770
 109049776.372 8  84974067.17746  20751474.813                    20751482.164
 11  8 26  0 29  0.0000000  0  9G10G12G05G09G17G25G04G30G02
 111094057.519 8  86566952.83246  21140473.008                    21140482.777
 109939564.748 8  85667270.889 7  20920805.695                    20920814.879
 110204717.308 8  85873893.799 7  20971235.586                    20971245.816
 129689919.936 6 101057205.12343  24679214.328                    24679232.902
 125442074.195 6  97747189.624 6  23870852.398                    23870863.910
 121095979.164 7  94360554.561 7  23043800.336                    23043813.125
 119305146.943 7  92965189.72344  22702997.391                    22703008.535
 121456787.406 7  94641755.65144  23112467.656                    23112478.938
 109065223.827 8  84986104.16346  20754414.398                    20754421.695
 11  8 26  0 29 30.0000000  0  9G10G12G05G09G17G25G04G30G02
 111136596.072 8  86600099.75046  21148567.984                    21148578.039
 109910668.855 8  85644754.606 7  20915306.734                    20915315.859
 110141581.480 8  85824697.109 7  20959221.328                    20959231.035
 129770680.175 6 101120134.88443  24694582.844                    24694600.953
 125505036.419 6  97796251.119 6  23882832.859                    23882845.176
 121013102.379 7  94295975.297 7  23028029.398                    23028042.434
 119386174.799 7  93028328.27944  22718416.547                    22718427.723
 121374224.737 7  94577421.12244  23096757.094                    23096767.621
 109080875.322 8  84998300.13946  20757392.734                    20757399.992
 11  8 26  0 30  0.0000000  0  9G10G12G05G09G17G25G04G30G02
 111179712.656 8  86633697.09445  21156772.789                    21156783.105
 109882321.833 8  85622666.026 8  20909912.594                    20909921.855
 110078922.708 8  85775872.139 7  20947297.430                    20947307.598
 129851392.509 6 101183027.30943  24709941.617                    24709960.609
 125568187.444 6  97845459.685 6  23894850.414                    23894862.922
 120930570.985 7  94231665.208 7  23012324.453                    23012337.035
 119467224.173 7  93091483.61044  22733840.133                    22733850.801
 121292059.415 7  94513396.21344  23081120.938                    23081132.125
 109096729.899 8  85010654.36646  20760409.398                    20760416.871
 11  8 26  0 30 30.0000000  0  9G10G12G05G09G17G25G04G30G02
 111223405.387 7  86667743.38345  21165087.055                    21165097.492
 109854525.039 8  85601006.201 7  20904623.344                    20904632.184
 110016742.952 8  85727420.446 7  20935465.063                    20935475.320
 129932053.809 6 101245880.00343  24725291.789                    24725310.039
 125631527.432 6  97894815.499 6  23906902.672                    23906916.238
 120848387.470 7  94167626.156 7  22996685.211                    22996697.500
 119548293.664 7  93154654.60844  22749267.055                    22749277.875
 121210293.931 7  94449682.88444  23065561.578                    23065572.246
 109112785.890 8  85023165.53546  20763464.961                    20763472.180
 11  8 26  0 31  0.0000000  0  9G10G12G05G09G17G25G04G30G02
 111267672.573 8  86702237.30346  21173510.898                    21173521.172
 109827279.765 8  85579776.117 7  20899438.500                    20899448.020
 109955044.218 8  85679343.564 7  20923724.078                    20923734.438
 130012661.319 6 101308690.78143  24740630.328                    24740649.496
 125695056.564 6  97944318.719 6  23918992.570                    23919005.133
 120766554.426 7  94103860.235 7  22981112.398                    22981125.445
 119629381.964 7  93217840.25944  22764697.688                    22764708.418
 121128930.901 7  94386283.12344  23050078.813                    23050089.711
 109129042.210 8  85035832.81046  20766558.820                    20766565.574
 11  8 26  0 31 30.0000000  0  9G10G12G05G09G17G25G04G30G02
 111312512.703 8  86737177.66746  21182043.969                    21182053.660
 109800586.964 8  85558976.535 7  20894358.711                    20894368.508
 109893828.243 8  85631642.859 8  20912074.789                    20912085.340
 130093212.007 6 101371457.23243  24755959.102                    24755977.625
 125758774.864 6  97993969.341 6  23931118.039                    23931130.188
 120685074.409 7  94040369.391 7  22965607.695                    22965620.371
 119710487.676 7  93281039.47744  22780131.234                    22780142.625
 121047973.012 7  94323199.07144  23034673.078                    23034683.906
 109145497.771 8  85048655.33846  20769690.086                    20769697.414
 11  8 26  0 32  0.0000000  0  9G10G12G05G09G17G25G04G30G02
 111357923.952 8  86772563.06246  21190685.164                    21190695.020
 109774448.168 8  85538608.647 7  20889384.836                    20889394.250
 109833097.176 8  85584320.004 8  20900518.453                    20900528.551
 130173702.825 6 101434177.08943  24771276.094                    24771295.160
 125822682.899 6  98043767.812 6  23943279.273                    23943291.980
 120603949.953 7  93977155.605 7  22950170.352                    22950182.875
 119791609.651 7  93344251.37444  22795568.219                    22795579.473
 120967422.672 7  94260432.59944  23019344.742                    23019355.848
 109162151.370 8  85061632.18346  20772858.945                    20772866.043
 11  8 26  0 32 30.0000000  0  9G10G12G05G09G17G25G04G30G02
 111403904.587 8  86808392.11945  21199434.953                    21199445.066
 109748865.019 8  85518673.738 7  20884516.469                    20884526.406
 109772853.122 8  85537376.641 8  20889054.203                    20889064.094
 130254130.935 6 101496848.09543  24786581.383                    24786599.973
 125886780.999 6  98093714.345 6  23955476.859                    23955489.730
 120523183.742 7  93914220.976 7  22934801.203                    22934812.953
 119872746.602 7  93407474.92344  22811008.188                    22811019.219
 120887282.693 7  94197985.88644  23004094.094                    23004104.660
 109179001.805 8  85074762.39446  20776065.406                    20776073.008
 11  8 26  0 33  0.0000000  0  9G10G12G05G09G17G25G04G30G02
 111450452.826 8  86844663.47346  21208293.008                    21208302.863
 109723837.988 8  85499172.156 7  20879754.102                    20879763.617
 109713098.145 8  85490814.376 7  20877683.297                    20877693.363
 130334493.572 6 101559468.02843  24801874.711                    24801893.063
 125951068.933 6  98143808.813 6  23967710.133                    23967722.508
 120442778.358 7  93851567.511 7  22919499.977                    22919512.559
 119953897.254 7  93470709.15044  22826451.000                    22826462.199
 120807555.666 7  94135860.96744  22988923.484                    22988933.785
 109196048.030 8  85088045.17946  20779309.125                    20779316.242
 11  8 26  0 33 30.0000000  0  9G10G12G05G09G17G25G04G30G02
 111497566.660 8  86881375.56645  21217258.297                    21217268.469
 109699368.259 8  85480104.838 7  20875098.016                    20875107.223
 109653834.296 8  85444634.794 7  20866405.781                    20866415.719
 130414787.484 6 101622034.43543  24817153.766                    24817172.230
 126015547.111 6  98194051.537 6  23979979.906                    23979992.738
 120362736.204 7  93789197.083 7  22904268.539                    22904280.844
 120035060.496 7  93533953.18244  22841895.633                    22841906.879
 120728244.087 7  94074059.77144  22973830.406                    22973841.191
 109213288.708 8  85101479.48546  20782590.195                    20782597.406
 11  8 26  0 34  0.0000000  0  9G10G12G05G09G17G25G04G30G02
 111545244.487 8  86918527.11745  21226330.820                    21226341.043
 109675457.196 8  85461472.852 7  20870547.711                    20870556.520
 109595063.048 8  85398839.071 7  20855221.891                    20855231.547
 130495009.961 6 101684545.19143  24832420.281                    24832438.660
 126080215.618 6  98244442.555 6  23992286.258                    23992298.977
 120283059.908 7  93727111.730 7  22889106.688                    22889118.723
 120116234.890 7  93597205.92544  22857342.859                    22857354.074
 120649350.537 7  94012584.35144  22958817.406                    22958828.641
 109230722.734 8  85115064.46846  20785907.352                    20785914.816
 11  8 26  0 34 30.0000000  0  9G10G12G05G09G17G25G04G30G02
 111593484.511 8  86956116.74545  21235510.906                    21235520.660
 109652105.804 8  85443276.961 7  20866103.953                    20866113.285
 109536786.704 8  85353428.986 7  20844132.023                    20844141.938
 130575157.759 6 101746997.73543  24847670.539                    24847690.695
 126145074.954 6  98294982.261 6  24004628.344                    24004640.938
 120203752.013 7  93665313.445 7  22874014.664                    22874027.219
 120197419.375 7  93660466.50744  22872791.922                    22872803.129
 120570877.629 7  93951436.70944  22943884.625                    22943894.992
 109248349.030 8  85128799.25646  20789261.672                    20789268.762
 11  8 26  0 35  0.0000000  0  9G10G12G05G09G17G25G04G30G02
 111642285.237 8  86994143.27545  21244797.555                    21244807.594
 109629315.931 8  85425518.629 7  20861767.313                    20861776.699
 109479007.453 8  85308406.236 7  20833137.242                    20833146.840
 130655228.738 6 101809390.40243  24862908.703                    24862928.484
 126210125.412 6  98345670.868 6  24017007.078                    24017019.473
 120124815.599 7  93603804.624 7  22858993.195                    22859006.102
 120278613.109 7  93723734.31744  22888242.383                    22888253.594
 120492828.438 7  93890619.19644  22929032.516                    22929042.871
 109266166.913 8  85142683.33246  20792652.477                    20792659.738
 11  8 26  0 35 30.0000000  0  8G10G12G05G17G25G04G30G02
 111691646.130 7  87032606.31245  21254190.602                    21254200.668
 109607089.411 8  85408199.263 7  20857537.859                    20857547.172
 109421728.390 8  85263773.256 7  20822237.227                    20822247.547
 126275368.474 6  98396509.582 6  24029422.891                    24029435.465
 120046254.414 7  93542588.194 7  22844043.469                    22844056.590
 120359816.295 7  93787009.47444  22903694.625                    22903706.094
 120415206.655 7  93830134.79444  22914260.758                    22914271.934
 109284176.143 8  85156716.50946  20796079.320                    20796086.758
 11  8 26  0 36  0.0000000  0  8G10G12G05G17G25G04G30G02
 111741563.505 8  87071502.96745  21263689.461                    21263699.184
 109585425.604 8  85391318.374 7  20853415.180                    20853424.645
 109364949.762 8  85219530.221 7  20811432.453                    20811442.551
 126340802.655 6  98447497.198 6  24041874.625                    24041886.828
 119968069.292 7  93481664.786 7  22829165.492                    22829177.988
 120441026.090 7  93850289.80044  22919148.211                    22919160.039
 120338013.086 7  93769984.05844  22899571.633                    22899583.184
 109302374.498 8  85170897.05546  20799542.188                    20799549.598
 11  8 26  0 36 30.0000000  0  8G10G12G05G17G25G04G30G02
 111792034.710 7  87110831.17745  21273293.766                    21273303.660
 109564325.275 8  85374876.565 7  20849400.141                    20849409.184
 109308673.108 8  85175678.328 8  20800723.359                    20800733.418
 126406427.849 6  98498633.697 6  24054362.875                    24054375.133
 119890262.207 7  93421035.912 7  22814359.258                    22814371.938
 120522240.462 7  93913573.68544  22934602.648                    22934614.770
 120261249.917 7  93710168.67544  22884964.102                    22884975.277
 109320760.242 8  85185223.61846  20803040.797                    20803048.414
 11  8 26  0 37  0.0000000  0  8G10G12G05G17G25G04G30G02
 111843058.031 8  87150589.59945  21283003.211                    21283012.793
 109543789.588 8  85358874.729 7  20845492.328                    20845501.504
 109252900.126 8  85132218.919 8  20790110.008                    20790120.285
 126472244.208 6  98549919.107 6  24066886.719                    24066899.621
 119812835.778 7  93360703.663 7  22799625.891                    22799638.645
 120603458.875 7  93976860.72144  22950058.523                    22950070.070
 120184919.528 7  93650690.53444  22870439.047                    22870449.523
 109339332.004 8  85199695.11946  20806575.094                    20806582.465
 11  8 26  0 37 30.0000000  0  8G10G12G05G17G25G04G30G02
 111894631.865 8  87190777.00245  21292817.141                    21292827.391
 109523819.695 8  85343313.781 7  20841692.227                    20841701.363
 109197632.963 8  85089153.639 8  20779593.195                    20779603.121
 126538251.786 6  98601353.535 6  24079447.820                    24079460.516
 119735792.800 8  93300670.183 7  22784964.984                    22784977.148
 120684680.060 6  94040149.90744  22965514.094                    22965525.785
 120109024.852 7  93591551.90544  22855996.945                    22856007.527
 109358088.856 8  85214310.85046  20810144.570                    20810152.063
 11  8 26  0 38  0.0000000  0  8G10G12G05G17G25G04G30G02
 111946754.257 8  87231391.84745  21302735.703                    21302745.738
 109504416.547 8  85328194.452 7  20837999.648                    20838008.891
 109142873.305 8  85046483.829 8  20769172.602                    20769182.313
 126604450.896 6  98652937.212 6  24092045.695                    24092057.859
 119659135.807 7  93240937.473 7  22770377.625                    22770389.520
 120765903.019 6  94103440.49144  22980970.328                    22980982.012
 120033568.383 7  93532754.73944  22841637.758                    22841648.215
 109377029.971 8  85229070.15346  20813748.883                    20813756.094
 11  8 26  0 38 30.0000000  0  8G10G12G05G17G25G04G30G02
 111999422.733 8  87272432.21545  21312758.336                    21312767.973
 109485580.234 8  85313516.802 7  20834415.188                    20834424.457
 109088622.630 8  85004210.629 8  20758848.930                    20758858.766
 126670841.865 6  98704670.420 6  24104679.023                    24104691.859
 119582866.860 7  93181507.136 7  22755864.273                    22755876.574
 120847126.285 6  94166731.29244  22996426.320                    22996438.035
 119958552.059 7  93474300.56444  22827362.125                    22827373.180
 109396153.636 8  85243971.72546  20817387.734                    20817395.254
 11  8 26  0 39  0.0000000  0  8G10G12G05G17G25G04G30G02
 112052635.902 8  87313897.01445  21322884.414                    21322894.473
 109467313.120 8  85299282.692 7  20830939.211                    20830947.906
 109034883.366 8  84962335.932 8  20748622.859                    20748632.746
 126737424.378 7  98756552.840 6  24117349.320                    24117361.820
 119506989.140 7  93122381.656 7  22741424.906                    22741437.512
 120928349.272 6  94230021.89844  23011882.930                    23011894.547
 119883979.108 6  93416191.83144  22813171.492                    22813182.340
 109415459.574 8  85259015.32146  20821061.852                    20821069.297
 11  8 26  0 39 30.0000000  0  8G10G12G05G17G25G04G30G02
 112106391.157 8  87355784.22345  21333114.086                    21333123.785
 109449615.049 8  85285491.997 7  20827571.523                    20827580.328
 108981656.640 8  84920860.609 8  20738493.797                    20738503.711
 126804198.842 7  98808584.856 6  24130055.813                    24130068.695
 119431504.777 7  93063562.683 7  22727060.547                    22727072.977
 121009570.559 7  94293311.18044  23027339.031                    23027350.637
 119809851.661 6  93358430.22344  22799065.805                    22799075.957
 109434946.217 8  85274199.72646  20824770.141                    20824777.492
 11  8 26  0 40  0.0000000  0  8G10G12G05G17G25G04G30G02
 112160686.976 8  87398092.64945  21343445.688                    21343456.398
 109432487.525 8  85272145.884 7  20824312.297                    20824321.535
 108928944.530 8  84879786.289 8  20728463.328                    20728473.148
 126871165.275 6  98860766.438 6  24142798.969                    24142812.133
 119356416.381 7  93005052.230 7  22712771.828                    22712784.578
 121090789.393 7  94356598.57044  23042794.352                    23042806.074
 119736172.327 7  93301017.80144  22785044.719                    22785055.684
 109454612.652 8  85289524.23646  20828512.570                    20828519.688
 11  8 26  0 40 30.0000000  0  8G10G12G05G17G25G04G30G02
 112215520.985 8  87440820.44345  21353880.648                    21353890.641
 109415930.921 8  85259244.642 7  20821161.594                    20821170.496
 108876748.565 8  84839114.158 8  20718530.570                    20718540.297
 126938323.931 6  98913097.855 6  24155578.672                    24155591.949
 119281726.319 7  92946852.199 7  22698558.828                    22698571.508
 121172004.353 7  94419882.90644  23058249.281                    23058260.387
 119662943.289 7  93243956.26344  22771109.773                    22771119.980
 109474457.647 8  85304987.87046  20832288.992                    20832295.934
 11  8 26  0 41  0.0000000  0  8G10G12G05G17G25G04G30G02
 112270891.027 8  87483965.92045  21364417.367                    21364427.207
 109399946.046 8  85246788.905 7  20818119.555                    20818128.426
 108825070.625 8  84798845.688 8  20708696.477                    20708706.453
 127005674.782 6  98965579.015 6  24168395.063                    24168407.992
 119207436.907 7  92888964.349 7  22684421.695                    22684433.820
 121253214.430 7  94483163.49344  23073703.219                    23073714.383
 119590166.965 7  93187247.47944  22757260.508                    22757271.453
 109494480.002 8  85320589.70846  20836098.648                    20836106.176
 11  8 26  0 41 30.0000000  0  8G10G12G05G17G25G04G30G02
 112326795.363 8  87527527.73545  21375055.266                    21375065.594
 109384534.036 8  85234779.562 7  20815187.047                    20815196.102
 108773912.234 8  84758982.061 8  20698961.594                    20698971.258
 127073217.990 6  99018210.015 6  24181248.227                    24181261.539
 119133550.814 7  92831390.779 7  22670361.609                    22670374.223
 121334418.656 7  94546439.46844  23089156.070                    23089167.516
 119517845.932 7  93130893.44644  22743498.406                    22743509.094
 109514678.779 8  85336329.02446  20839942.375                    20839949.609
 11  8 26  0 42  0.0000000  0  8G10G12G05G17G25G04G30G02
 112383231.572 8  87571503.98445  21385795.063                    21385804.918
 109369695.611 8  85223217.163 7  20812363.320                    20812372.406
 108723274.999 8  84719524.519 8  20689325.359                    20689335.371
 127140953.669 6  99070991.058 6  24194138.430                    24194150.895
 119060070.520 7  92774133.426 7  22656379.242                    22656391.551
 121415615.975 7  94609710.09244  23104606.508                    23104618.961
 119445982.757 7  93074896.19944  22729823.242                    22729834.000
 109535053.033 8  85352205.08746  20843819.508                    20843826.887
 11  8 26  0 42 30.0000000  0  8G10G12G05G17G25G04G30G02
 112440197.347 7  87615892.89745  21396635.250                    21396645.477
 109355430.679 8  85212101.644 7  20809648.836                    20809657.805
 108673160.220 8  84680474.094 8  20679788.555                    20679798.910
 127208881.431 6  99123921.767 6  24207064.625                    24207077.414
 118986998.300 7  92717194.051 7  22642474.109                    22642486.137
 121496805.238 7  94672974.42744  23120056.734                    23120068.563
 119374579.515 7  93019257.35844  22716235.945                    22716246.578
 109555601.279 8  85368216.72246  20847729.789                    20847737.012
 11  8 26  0 43  0.0000000  0  8G10G12G05G17G25G04G30G02
 112497690.529 7  87660692.77145  21407575.664                    21407585.645
 109341740.600 8  85201434.066 7  20807043.523                    20807052.582
 108623569.706 8  84641832.183 8  20670352.148                    20670361.930
 127277001.951 6  99177002.660 6  24220027.172                    24220039.945
 118914336.550 7  92660574.521 7  22628646.945                    22628659.191
 121577985.488 7  94736231.73844  23135505.000                    23135516.410
 119303638.622 7  92963978.75144  22702736.242                    22702747.195
 109576322.837 8  85384363.39646  20851672.797                    20851680.262
 11  8 26  0 43 30.0000000  0  8G10G12G05G17G25G04G30G02
 112555708.828 7  87705901.82745  21418616.453                    21418626.355
 109328625.990 8  85191214.897 7  20804547.742                    20804556.938
 108574505.033 8  84603600.019 8  20661014.969                    20661025.313
 127345314.821 6  99230233.428 6  24233027.469                    24233039.820
 118842087.571 7  92604276.633 7  22614898.242                    22614910.719
 121659155.599 7  94799481.18644  23150950.984                    23150962.559
 119233162.353 7  92909062.19544  22689325.281                    22689335.461
 109597216.108 8  85400643.88646  20855648.602                    20855656.164
 11  8 26  0 44  0.0000000  0  8G10G12G05G17G25G04G30G02
 112614250.284 7  87751518.53545  21429756.328                    21429766.473
 109316087.562 8  85181444.725 7  20802162.031                    20802171.078
 108525967.585 8  84565778.683 8  20651778.570                    20651788.719
 127413820.313 6  99283614.332 6  24246062.695                    24246076.641
 118770253.815 7  92548302.284 7  22601228.633                    22601241.348
 121740314.605 7  94862721.96144  23166395.469                    23166406.551
 119163153.059 7  92854509.52145  22676002.727                    22676013.805
 109618280.334 8  85417057.57346  20859657.133                    20859664.656
 11  8 26  0 44 30.0000000  0  8G10G12G05G17G25G04G30G02
 112673312.888 7  87797541.34045  21440995.406                    21441005.762
 109304126.195 8  85172124.199 7  20799885.750                    20799894.730
 108477959.409 8  84528369.770 8  20642643.188                    20642652.871
 127482518.514 6  99337145.400 6  24259135.898                    24259148.262
 118698837.933 7  92492653.552 7  22587638.813                    22587651.031
 121821461.741 6  94925953.48144  23181837.031                    23181848.262
 119093613.281 7  92800322.68645  22662769.539                    22662780.238
 109639514.669 8  85433603.82346  20863698.133                    20863705.129
 11  8 26  0 45  0.0000000  0  8G10G12G05G17G25G04G30G02
 112732894.022 7  87843968.19045  21452333.141                    21452342.988
 109292741.979 8  85163253.390 7  20797719.633                    20797728.566
 108430481.587 8  84491374.113 8  20633608.336                    20633618.191
 127551409.209 6  99390826.442 6  24272244.547                    24272258.344
 118627841.967 7  92437332.028 7  22574128.320                    22574141.102
 121902595.760 7  94989174.76744  23197276.484                    23197287.445
 119024545.088 6  92746503.32144  22649626.250                    22649636.961
 109660917.527 8  85450281.38346  20867770.664                    20867778.055
 11  8 26  0 45 30.0000000  0  8G10G12G05G17G25G04G30G02
 112792991.871 7  87890797.66945  21463769.500                    21463779.332
 109281935.608 8  85154832.865 7  20795662.719                    20795671.668
 108383535.546 8  84454792.834 8  20624675.023                    20624684.508
 127620492.586 6  99444657.657 5  24285390.563                    24285403.621
 118557268.543 7  92382339.780 7  22560698.773                    22560711.258
 121983715.753 6  95052385.13344  23212712.734                    23212724.184
 118955951.104 7  92693053.46644  22636572.977                    22636583.844
 109682488.323 8  85467089.82146  20871875.469                    20871882.961
 11  8 26  0 46  0.0000000  0  8G10G12G05G17G25G04G30G02
 112853603.110 8  87938027.20245  21475303.414                    21475313.645
 109271707.329 8  85146862.789 7  20793716.813                    20793725.250
 108337122.580 8  84418626.942 8  20615842.758                    20615852.770
 127689768.236 6  99498638.660 6  24298574.586                    24298586.984
 118487119.561 7  92327678.239 7  22547350.094                    22547362.008
 122064820.517 7  95115583.64744  23228146.688                    23228158.027
 118887833.107 7  92639974.50245  22623610.945                    22623621.723
 109704225.165 7  85484027.62446  20876011.813                    20876019.559
 11  8 26  0 46 30.0000000  0  8G10G12G05G17G25G04G30G02
 112914726.385 7  87985655.71345  21486935.102                    21486945.254
 109262058.353 8  85139344.115 7  20791880.359                    20791889.363
 108291244.399 8  84382877.756 8  20607112.250                    20607122.219
 127759236.733 6  99552769.945 6  24311793.438                    24311806.387
 118417397.859 7  92273349.664 7  22534082.117                    22534094.668
 122145909.493 7  95178769.83044  23243576.938                    23243588.445
 118820193.755 7  92587268.52644  22610739.703                    22610750.605
 109726127.993 7  85501094.77846  20880179.859                    20880186.945
 11  8 26  0 47  0.0000000  0  8G10G12G05G17G25G04G30G02
 112976359.146 7  88033681.23845  21498663.469                    21498673.656
 109252989.052 8  85132277.134 7  20790154.500                    20790163.645
 108245902.442 8  84347546.414 8  20598484.328                    20598493.762
 127828897.977 6  99607051.427 6  24325050.063                    24325062.719
 118348105.565 7  92219355.693 7  22520896.352                    22520908.586
 122226981.463 7  95241942.77443  23259004.773                    23259016.043
 118753035.179 7  92534937.18444  22597959.430                    22597969.883
 109748195.457 8  85518290.21046  20884379.344                    20884386.047
 11  8 26  0 47 30.0000000  0  8G10G12G05G17G25G04G30G02
 113038499.250 7  88082102.09245  21510488.188                    21510497.926
 109244499.510 8  85125661.915 7  20788539.047                    20788548.102
 108201098.075 8  84312633.964 8  20589958.211                    20589967.590
 127898751.732 6  99661482.915 5  24338342.422                    24338354.668
 118279245.080 7  92165698.199 7  22507792.836                    22507804.957
 122308035.652 7  95305101.83944  23274428.609                    23274440.598
 118686359.755 7  92482982.29944  22585271.945                    22585282.117
 109770426.370 8  85535613.01446  20888609.625                    20888616.898
 11  8 26  0 48  0.0000000  0  8G10G12G05G17G25G04G30G02
 113101144.436 7  88130916.52645  21522409.180                    21522419.059
 109236590.455 8  85119499.015 7  20787033.805                    20787042.938
 108156832.711 8  84278141.518 8  20581534.555                    20581544.039
 127968798.108 6  99716064.512 6  24351672.211                    24351684.938
 118210818.907 7  92112379.149 7  22494771.398                    22494783.879
 122389071.404 6  95368246.55244  23289849.109                    23289860.973
 118620169.755 6  92431405.66944  22572676.234                    22572687.551
 109792820.129 8  85553062.69546  20892871.000                    20892878.234
 11  8 26  0 48 30.0000000  0  9G10G12G05G29G17G25G04G30G02
 113164291.970 8  88180122.38945  21534425.672                    21534435.656
 109229262.325 8  85113788.781 7  20785639.516                    20785648.449
 108113107.441 8  84244069.927 8  20573213.922                    20573223.512
 129558202.59716 100954492.63216  24654114.367                    24654125.695
 128039036.913 7  99770796.022 5  24365038.109                    24365050.164
 118142829.069 7  92059400.095 7  22481833.664                    22481846.406
 122470087.222 6  95431375.72844  23305266.352                    23305277.422
 118554467.145 7  92380208.85145  22560173.305                    22560185.039
 109815375.231 8  85570638.10446  20897162.922                    20897170.348
 11  8 26  0 49  0.0000000  0  9G10G12G05G29G17G25G04G30G02
 113227939.748 8  88229718.05045  21546537.672                    21546547.551
 109222515.685 8  85108531.660 7  20784355.742                    20784365.051
 108069923.907 8  84210420.467 8  20564996.367                    20565006.070
 129478138.775 6 100892105.405 6  24638878.445                    24638890.156
 128109468.488 7  99825677.802 5  24378440.570                    24378453.105
 118075277.993 7  92006762.960 7  22468978.773                    22468991.371
 122551082.858 6  95494489.17044  23320679.023                    23320691.000
 118489254.346 7  92329393.67144  22547764.453                    22547774.902
 109838090.681 8  85588338.45646  20901485.805                    20901493.176
 11  8 26  0 49 30.0000000  0  9G10G12G05G29G17G25G04G30G02
 113292085.496 8  88279701.74645  21558743.797                    21558754.207
 109216351.261 8  85103728.199 7  20783182.828                    20783191.668
 108027283.615 8  84177194.309 8  20556881.977                    20556891.766
 129397993.965 6 100829655.008 6  24623627.656                    24623638.820
 128180092.798 6  99880709.725 6  24391879.961                    24391892.246
 118008168.281 7  91954469.748 7  22456208.250                    22456220.902
 122632057.266 6  95557586.07244  23336087.906                    23336100.250
 118424533.796 7  92278962.07044  22535447.930                    22535458.656
 109860965.921 8  85606163.31746  20905838.688                    20905845.773
 11  8 26  0 50  0.0000000  0  9G10G12G05G29G17G25G04G30G02
 113356726.811 8  88330071.60145  21571045.094                    21571054.574
 109210768.944 8  85099378.333 7  20782120.477                    20782129.371
 107985187.291 8  84144392.017 8  20548871.156                    20548881.098
 129317768.232 6 100767141.526 6  24608360.469                    24608372.344
 128250909.398 7  99935891.471 6  24405356.438                    24405368.828
 117941501.697 7  91902521.827 7  22443522.203                    22443534.879
 122713009.285 6  95620665.52444  23351493.125                    23351504.008
 118360307.241 6  92228915.42544  22523225.336                    22523236.816
 109883999.449 8  85624111.52046  20910221.328                    20910229.148
 11  8 26  0 50 30.0000000  0  9G10G12G05G29G17G25G04G30G02
 113421860.883 8  88380825.43345  21583439.742                    21583449.141
 109205768.782 8  85095482.094 7  20781169.008                    20781178.074
 107943636.198 8  84112014.586 8  20540964.313                    20540973.852
 129237462.305 6 100704565.582 6  24593078.398                    24593090.898
 128321918.224 7  99991223.028 6  24418868.750                    24418881.488
 117875280.529 7  91850920.989 7  22430920.219                    22430932.371
 122793937.893 6  95683726.71844  23366893.563                    23366904.691
 118296576.837 7  92179255.39845  22511098.648                    22511109.258
 109907190.367 8  85642182.35646  20914634.906                    20914642.023
 11  8 26  0 51  0.0000000  0  9G10G12G05G29G17G25G04G30G02
 113487484.973 8  88431961.08845  21595927.422                    21595936.746
 109201350.670 8  85092039.390 7  20780328.055                    20780336.848
 107902631.369 8  84080062.817 8  20533161.805                    20533171.102
 129157076.569 6 100641927.410 6  24577781.617                    24577793.520
 128393119.015 6 100046704.191 6  24432417.867                    24432430.246
 117809506.589 7  91799668.648 7  22418404.266                    22418416.320
 122874842.109 6  95746768.92644  23382289.328                    23382300.551
 118233344.493 7  92129983.45445  22499065.914                    22499076.199
 109930537.133 8  85660374.63346  20919077.422                    20919084.660
 11  8 26  0 51 30.0000000  0  9G10G12G05G29G17G25G04G30G02
 113553596.991 8  88483476.95045  21608508.430                    21608517.918
 109197515.316 8  85089050.787 7  20779598.281                    20779607.156
 107862174.304 8  84048537.874 8  20525462.352                    20525472.281
 129076611.713 6 100579227.588 6  24562469.883                    24562482.020
 128464511.728 6 100102334.871 6  24446002.859                    24446015.730
 117744182.419 7  91748766.779 7  22405973.320                    22405985.621
 122955721.270 6  95809791.60644  23397680.109                    23397691.410
 118170612.290 7  92081101.24045  22487128.539                    22487139.012
 109954039.141 8  85678687.88146  20923549.758                    20923557.164
 11  8 26  0 52  0.0000000  0  9G10G12G05G29G17G25G04G30G02
 113620194.736 8  88535371.30745  21621181.414                    21621191.039
 109194262.941 8  85086516.450 7  20778979.469                    20778988.406
 107822266.281 8  84017440.762 8  20517868.508                    20517877.832
 128996068.272 6 100516466.527 6  24547142.617                    24547154.273
 128536096.421 7 100158115.136 6  24459626.289                    24459638.613
 117679310.333 7  91698217.188 7  22393628.742                    22393641.086
 123036574.511 7  95872794.07744  23413065.531                    23413077.430
 118108382.605 7  92032610.63145  22475286.445                    22475296.594
 109977695.498 7  85697121.40146  20928051.242                    20928058.910
 11  8 26  0 52 30.0000000  0  9G10G12G05G29G17G25G04G30G02
 113687275.222 8  88587641.83245  21633946.508                    21633955.793
 109191593.726 8  85084436.529 7  20778471.516                    20778480.512
 107782908.182 8  83986772.147 8  20510378.711                    20510388.258
 128915446.997 6 100453644.792 6  24531801.305                    24531812.938
 128607872.882 7 100214044.846 6  24473283.891                    24473296.449
 117614892.348 7  91648021.425 7  22381370.109                    22381382.426
 123117401.044 7  95935775.75244  23428447.242                    23428457.777
 118046657.295 7  91984513.05545  22463540.516                    22463550.617
 110001505.012 8  85715674.24646  20932582.406                    20932589.566
 11  8 26  0 53  0.0000000  0  9G10G12G05G29G17G25G04G30G02
 113754836.188 7  88640286.74645  21646802.633                    21646812.484
 109189508.195 8  85082811.428 7  20778074.359                    20778083.684
 107744101.236 8  83956533.011 8  20502994.031                    20503003.363
 128834748.619 6 100390763.030 6  24516445.180                    24516456.410
 128679840.901 6 100270123.815 6  24486979.500                    24486992.008
 117550930.742 7  91598181.275 7  22369198.680                    22369210.816
 123198200.004 7  95998735.94544  23443822.289                    23443833.809
 117985438.529 7  91936810.17244  22451890.938                    22451900.906
 110025466.790 8  85734345.74946  20937142.148                    20937149.203
 11  8 26  0 53 30.0000000  0  9G10G12G05G29G17G25G04G30G02
 113822875.121 8  88693304.11245  21659750.094                    21659759.781
 109188006.156 8  85081641.003 7  20777788.711                    20777798.012
 107705846.440 8  83926724.115 8  20495714.320                    20495723.914
 128753973.751 6 100327821.651 6  24501073.703                    24501086.090
 128752000.606 6 100326352.160 6  24500710.125                    24500723.508
 117487427.691 7  91548698.449 7  22357114.477                    22357126.641
 123278970.772 7  96061674.17044  23459191.867                    23459203.871
 117924728.415 7  91889503.66344  22440337.922                    22440348.547
 110049579.929 8  85753135.20746  20941730.594                    20941737.867
 11  8 26  0 54  0.0000000  0  8G10G12G05G29G25G04G30G02
 113891390.802 8  88746692.96045  21672788.188                    21672797.934
 109187089.593 8  85080926.795 7  20777614.180                    20777623.070
 107668146.371 8  83897347.482 8  20488540.023                    20488549.883
 128673124.476 6 100264822.312 6  24485688.641                    24485700.277
 117424386.724 7  91499575.668 7  22345118.000                    22345130.164
 123359713.819 6  96124590.79644  23474556.945                    23474568.563
 117864530.307 7  91842596.12945  22428882.898                    22428893.129
 110073844.791 8  85772042.88446  20946347.781                    20946355.258
 11  8 26  0 54 30.0000000  0  8G10G12G05G29G25G04G30G02
 113960379.698 7  88800450.54645  21685916.734                    21685926.563
 109186756.955 8  85080667.595 7  20777551.086                    20777560.141
 107631000.770 8  83868402.889 8  20481471.742                    20481481.254
 128592200.287 7 100201764.585 6  24470289.234                    24470300.457
 117361808.816 7  91450813.696 7  22333209.664                    22333221.875
 123440426.972 6  96187484.12344  23489915.883                    23489928.020
 117804844.992 7  91796088.17945  22417524.492                    22417535.773
 110098259.271 8  85791067.14546  20950993.742                    20951001.352
 11  8 26  0 55  0.0000000  0  8G10G12G05G29G25G04G30G02
 114029838.330 7  88854574.16545  21699133.539                    21699143.805
 109187007.383 8  85080862.726 7  20777599.086                    20777607.785
 107594409.928 8  83839890.586 8  20474508.695                    20474518.371
 128511200.791 6 100138648.163 5  24454875.008                    24454886.445
 117299694.994 7  91402413.350 7  22321390.148                    22321401.844
 123521108.658 6  96250352.93943  23505268.969                    23505281.270
 117745673.432 7  91749980.54845  22406264.602                    22406275.398
 110122821.046 8  85810206.18246  20955668.609                    20955675.539
 11  8 26  0 55 30.0000000  0  8G10G12G05G29G25G04G30G02
 114099764.778 7  88909062.32445  21712440.313                    21712449.973
 109187841.700 8  85081512.850 7  20777757.484                    20777766.551
 107558375.275 8  83811811.671 8  20467651.414                    20467661.008
 128430127.346 6 100075474.147 5  24439447.359                    24439458.555
 117238048.080 7  91354376.833 7  22309658.648                    22309671.070
 123601758.763 6  96313197.13943  23520616.852                    23520628.785
 117687018.295 7  91704275.32245  22395103.406                    22395113.219
 110147530.077 8  85829459.96846  20960370.031                    20960376.918
 11  8 26  0 56  0.0000000  0  8G10G12G05G29G25G04G30G02
 114170156.459 7  88963913.00145  21725835.078                    21725845.160
 109189259.967 8  85082617.988 7  20778027.352                    20778036.430
 107522898.138 8  83784167.191 8  20460900.398                    20460909.617
 128348980.836 6 100012243.216 6  24424005.789                    24424016.625
 117176870.401 7  91306705.934 7  22298017.164                    22298029.129
 123682376.596 6  96376016.20844  23535957.820                    23535969.828
 117628881.653 7  91658974.10945  22384040.078                    22384050.520
 110172385.717 8  85848827.99246  20965099.711                    20965107.133
 11  8 26  0 56 30.0000000  0  8G10G12G05G29G25G04G30G02
 114241011.055 7  89019124.38045  21739318.414                    21739328.680
 109191262.692 8  85084178.563 7  20778408.508                    20778417.648
 107487979.530 8  83756957.927 8  20454255.469                    20454265.215
 128267762.006 6  99948955.886 6  24408551.172                    24408561.840
 117116164.126 7  91259402.345 7  22286465.438                    22286477.105
 123762961.483 7  96438809.60744  23551292.836                    23551303.785
 117571265.560 7  91614078.52345  22373076.180                    22373086.734
 110197387.078 8  85868309.56846  20969857.266                    20969864.629
 11  8 26  0 57  0.0000000  0  8G10G12G05G29G25G04G30G02
 114312325.540 7  89074694.10345  21752888.883                    21752899.367
 109193849.298 8  85086194.107 8  20778901.008                    20778909.895
 107453619.833 8  83730184.181 8  20447716.875                    20447726.547
 128186471.223 6  99885612.513 6  24393081.555                    24393093.098
 117055930.827 8  91212467.325 7  22275002.797                    22275014.969
 123843512.314 7  96501576.46144  23566620.945                    23566632.641
 117514171.551 7  91569589.73545  22362211.578                    22362221.828
 110222532.582 8  85887903.47046  20974642.578                    20974649.789
 11  8 26  0 57 30.0000000  0  8G10G12G05G29G25G04G30G02
 114384097.610 7  89130620.39145  21766546.602                    21766556.910
 109197019.940 8  85088664.743 7  20779503.922                    20779513.242
 107419820.477 8  83703847.049 8  20441285.313                    20441294.422
 128105109.635 6  99822213.999 6  24377599.148                    24377610.082
 116996173.030 7  91165902.817 7  22263631.523                    22263643.844
 123924028.661 7  96564316.46944  23581942.102                    23581954.375
 117457601.900 7  91525509.54545  22351446.680                    22351456.902
 110247821.861 8  85907609.40946  20979454.969                    20979462.090
 11  8 26  0 58  0.0000000  0  8G10G12G05G29G25G04G30G02
 114456324.286 7  89186900.92145  21780291.852                    21780301.770
 109200773.929 8  85091589.945 7  20780218.359                    20780227.441
 107386581.587 8  83677946.653 8  20434959.813                    20434969.723
 128023677.502 6  99758760.476 6  24362102.289                    24362114.520
 116936892.084 7  91119709.879 7  22252350.406                    22252362.336
 124004509.381 7  96627028.68143  23597257.594                    23597269.660
 117401557.756 7  91481838.82045  22340781.313                    22340792.168
 110273253.142 8  85927425.99546  20984294.195                    20984301.477
 11  8 26  0 58 30.0000000  0  8G10G12G05G29G25G04G30G02
 114529003.354 7  89243533.95945  21794121.672                    21794131.438
 109205111.640 8  85094969.983 7  20781044.180                    20781053.172
 107353904.628 7  83652484.131 8  20428741.578                    20428751.039
 127942175.943 6  99695252.869 6  24346593.805                    24346604.469
 116878090.587 8  91073890.535 7  22241161.227                    22241173.246
 124084954.166 7  96689712.93443  23612565.883                    23612577.758
 117346041.597 7  91438579.50845  22330217.383                    22330227.598
 110298826.290 8  85947353.13546  20989160.648                    20989167.898
 11  8 26  0 59  0.0000000  0  8G10G12G05G29G25G04G30G02
 114602132.059 7  89300517.36045  21808037.578                    21808047.410
 109210033.373 8  85098805.112 7  20781980.273                    20781989.469
 107321790.659 8  83627460.299 8  20422630.531                    20422640.254
 127860605.521 6  99631691.606 6  24331070.422                    24331082.129
 116819770.634 7  91028446.418 7  22230063.328                    22230075.152
 124165362.322 7  96752368.59643  23627866.406                    23627878.355
 117291055.336 7  91395733.09845  22319753.789                    22319763.887
 110324540.388 8  85967390.10446  20994053.883                    20994061.145
 11  8 26  0 59 30.0000000  0  8G10G12G05G29G25G04G30G02
 114675707.468 8  89357848.85445  21822038.641                    21822048.543
 109215538.082 8  85103094.509 7  20783027.711                    20783037.184
 107290239.935 8  83602875.366 8  20416626.461                    20416636.176
 127778966.579 6  99568076.917 6  24315534.977                    24315546.168
 116761933.556 7  90983378.579 7  22219057.594                    22219069.184
 124245732.593 6  96814994.77143  23643160.570                    23643172.883
 117236600.080 7  91353300.44745  22309391.453                    22309401.402
 110350393.616 8  85987535.49346  20998973.344                    20998980.910
 11  8 26  1  0  0.0000000  0  8G10G12G05G29G25G04G30G02
 114749727.634 7  89415526.90845  21836124.063                    21836133.676
 109221626.370 8  85107838.635 7  20784186.453                    20784195.488
 107259253.755 8  83578730.327 8  20410730.336                    20410739.781
 127697260.847 6  99504410.198 6  24299987.516                    24299998.184
 116704582.156 8  90938689.183 7  22208143.695                    22208155.750
 124326065.097 7  96877591.50043  23658447.688                    23658459.539
 117182678.460 7  91311283.61645  22299129.711                    22299139.953
 110376386.303 8  86007789.54746  21003920.164                    21003927.293
 11  8 26  1  0 30.0000000  0  8G10G12G05G29G25G04G30G02
 114824189.272 7  89473548.95145  21850293.391                    21850303.332
 109228297.862 8  85113037.203 7  20785456.094                    20785465.039
 107228832.653 8  83555025.606 8  20404941.250                    20404950.754
 127615488.696 6  99440691.726 6  24284426.031                    24284437.367
 116647717.959 7  90894379.444 7  22197322.633                    22197334.602
 124406358.640 7  96940157.85143  23673726.617                    23673738.969
 117129291.862 7  91269683.69545  22288971.375                    22288981.285
 110402516.873 8  86028151.04046  21008892.336                    21008899.797
 11  8 26  1  1  0.0000000  0  8G10G12G05G29G25G04G30G02
 114899089.634 8  89531912.86745  21864546.859                    21864556.594
 109235552.415 8  85118690.100 7  20786836.336                    20786845.727
 107198977.103 8  83531761.586 8  20399259.883                    20399269.063
 127533650.835 6  99376922.050 6  24268853.125                    24268864.469
 116591342.826 7  90850450.794 7  22186594.938                    22186606.820
 124486612.645 7  97002693.39743  23688998.664                    23689010.375
 117076441.995 7  91228501.97745  22278913.789                    22278924.102
 110428784.398 8  86048619.26246  21013890.969                    21013898.535
 11  8 26  1  1 30.0000000  0  8G10G12G05G29G25G04G30G02
 114974426.457 8  89590616.88045  21878882.875                    21878892.285
 109243389.018 8  85124796.551 7  20788327.813                    20788336.633
 107169688.113 8  83508939.028 8  20393686.539                    20393695.891
 127451748.195 7  99313101.905 6  24253267.117                    24253278.457
 116535458.914 8  90806904.910 7  22175960.531                    22175972.773
 124566826.493 6  97065197.66343  23704263.555                    23704274.828
 117024130.708 7  91187739.95245  22268959.570                    22268969.668
 110455188.185 8  86069193.65646  21018915.250                    21018922.520
 11  8 26  1  2  0.0000000  0  8G10G12G05G29G25G04G30G02
 115050197.186 7  89649658.99245  21893301.531                    21893311.617
 109251808.223 8  85131356.974 7  20789929.930                    20789938.777
 107140966.611 8  83486558.672 8  20388220.742                    20388230.191
 127369781.883 6  99249232.156 6  24237669.695                    24237680.496
 116480068.267 8  90763743.410 7  22165419.844                    22165432.227
 124646999.848 7  97127670.36643  23719520.352                    23719531.629
 116972359.984 7  91147399.14245  22259107.367                    22259117.934
 110481727.726 8  86089873.84146  21023965.422                    21023972.996
 11  8 26  1  2 30.0000000  0  8G10G12G05G29G25G04G30G02
 115126398.729 7  89709036.81045  21907802.367                    21907811.957
 109260809.503 8  85138370.966 7  20791642.492                    20791651.949
 107112812.780 8  83464620.656 8  20382863.102                    20382872.617
 127287752.129 6  99185312.981 6  24222060.109                    24222070.828
 116425172.435 8  90720967.475 7  22154973.656                    22154985.488
 124727131.642 7  97190110.69643  23734768.133                    23734780.227
 116921131.183 7  91107480.61145  22249358.945                    22249369.336
 110508401.465 8  86110658.58846  21029041.711                    21029048.496
 11  8 26  1  3  0.0000000  0  8G10G12G05G29G25G04G30G02
 115203028.227 7  89768748.09645  21922384.148                    21922394.730
 109270392.411 8  85145838.158 7  20793466.078                    20793475.004
 107085227.502 8  83443125.670 8  20377614.117                    20377623.621
 127205660.168 6  99121345.316 6  24206437.961                    24206449.504
 116370773.367 8  90678578.634 7  22144621.766                    22144633.344
 124807221.256 7  97252518.15643  23750009.398                    23750020.871
 116870445.909 7  91067985.60545  22239714.234                    22239724.484
 110535208.679 8  86131547.34846  21034142.602                    21034149.793
 11  8 26  1  3 30.0000000  0  8G10G12G05G29G25G04G30G02
 115280082.791 8  89828790.60545  21937047.297                    21937057.004
 109280556.246 8  85153758.029 7  20795400.445                    20795409.473
 107058211.194 8  83422074.044 8  20372473.055                    20372482.480
 127123505.893 6  99057329.078 6  24190804.875                    24190816.133
 116316872.502 7  90636578.017 7  22134364.688                    22134376.777
 124887267.884 6  97314892.12643  23765241.477                    23765252.578
 116820305.519 7  91028915.20845  22230172.938                    22230183.043
 110562148.012 8  86152539.05246  21039269.336                    21039276.320
 11  8 26  1  4  0.0000000  0  8G10G12G05G29G25G04G30G02
 115357560.678 7  89889162.97345  21951790.977                    21951800.785
 109291301.844 8  85162131.220 7  20797445.102                    20797454.352
 107031764.796 8  83401466.491 8  20367440.297                    20367449.637
 127041291.965 6  98993266.368 6  24175159.500                    24175170.805
 116263472.653 7  90594967.802 7  22124202.852                    22124214.891
 124967271.666 7  97377232.70544  23780465.305                    23780477.191
 116770712.603 7  90990271.39445  22220735.430                    22220745.707
 110589220.041 8  86173634.16546  21044420.406                    21044428.004
 11  8 26  1  4 30.0000000  0  8G10G12G05G29G25G04G30G02
 115435458.432 7  89949862.50745  21966614.367                    21966624.457
 109302627.382 8  85170956.316 7  20799600.070                    20799609.504
 107005888.301 8  83381303.029 8  20362516.305                    20362525.598
 126959017.882 6  98929156.782 6  24159504.086                    24159514.211
 116210574.850 7  90553748.783 7  22114136.648                    22114148.984
 125047231.165 6  97439538.78343  23795681.094                    23795692.789
 116721667.816 7  90952054.72245  22211402.414                    22211413.219
 110616422.492 8  86194830.90046  21049596.773                    21049604.051
 11  8 26  1  5  0.0000000  0  8G10G12G05G29G25G04G30G02
 115513773.892 7  90010887.52145  21981517.344                    21981527.039
 109314533.126 8  85180233.506 7  20801865.945                    20801875.191
 106980583.051 8  83361584.686 8  20357700.742                    20357710.055
 126876685.251 6  98865001.567 6  24143836.180                    24143847.375
 116158181.499 7  90512922.851 7  22104166.398                    22104178.945
 125127146.678 6  97501810.55443  23810889.203                    23810900.367
 116673173.572 7  90914267.00945  22202174.570                    22202184.250
 110643755.710 8  86216129.53246  21054798.469                    21054805.590
 11  8 26  1  5 30.0000000  0  8G10G12G05G29G25G04G30G02
 115592503.743 7  90072235.45045  21996499.148                    21996508.965
 109327018.820 8  85189962.616 7  20804241.828                    20804251.273
 106955848.847 8  83342311.313 8  20352993.914                    20353003.039
 126794294.407 6  98800800.987 6  24128157.227                    24128168.605
 116106293.863 8  90472490.968 7  22094292.547                    22094304.586
 125207016.905 6  97564047.08043  23826087.984                    23826099.230
 116625230.804 7  90876909.02845  22193051.398                    22193061.395
 110671217.932 8  86237528.67646  21060024.500                    21060031.730
 11  8 26  1  6  0.0000000  0  8G10G12G05G29G25G04G30G02
 115671644.783 7  90133903.79445  22011558.992                    22011569.215
 109340083.228 8  85200142.659 7  20806728.039                    20806736.945
 106931686.094 8  83323483.233 8  20348395.883                    20348405.363
 126711846.155 6  98736555.637 6  24112468.180                    24112478.871
 116054913.536 8  90432454.390 7  22084515.391                    22084527.324
 125286841.293 7  97626247.85143  23841278.031                    23841289.664
 116577840.939 7  90839981.89545  22184033.266                    22184043.277
 110698808.219 8  86259027.61046  21065274.719                    21065282.129
 11  8 26  1  6 30.0000000  0  8G10G12G05G29G25G04G30G02
 115751195.637 7  90195891.45545  22026696.992                    22026707.316
 109353726.288 8  85210773.611 7  20809323.883                    20809333.719
 106908096.158 8  83305101.495 8  20343906.844                    20343916.297
 126629341.934 6  98672266.713 6  24096767.867                    24096779.387
 116004043.086 8  90392815.118 7  22074834.781                    22074846.902
 125366619.850 7  97688412.89043  23856459.953                    23856471.285
 116531006.273 7  90803487.39445  22175121.211                    22175131.191
 110726526.681 7  86280626.42546  21070549.156                    21070556.387
 11  8 26  1  7  0.0000000  0  8G10G12G05G29G25G04G30G02
 115831152.218 7  90258195.27445  22041912.484                    22041922.527
 109367947.311 8  85221854.915 7  20812030.297                    20812039.230
 106885078.502 8  83287165.693 8  20339526.742                    20339536.176
 126546782.122 6  98607934.430 6  24081057.117                    24081068.133
 115953683.385 7  90353573.826 7  22065251.914                    22065264.047
 125446351.347 6  97750541.34943  23871631.953                    23871643.625
 116484727.465 7  90767426.02745  22166314.195                    22166324.387
 110754371.460 8  86302323.67146  21075848.023                    21075855.180
 11  8 26  1  7 30.0000000  0  8G10G12G05G29G25G04G30G02
 115911512.507 7  90320813.66745  22057204.773                    22057214.559
 109382745.675 8  85233386.101 7  20814846.391                    20814855.746
 106862634.224 8  83269676.686 8  20335255.617                    20335264.590
 126464168.236 6  98543560.047 6  24065336.094                    24065347.363
 115903836.672 8  90314732.267 7  22055766.430                    22055778.406
 125526035.541 6  97812632.88044  23886795.008                    23886807.219
 116439006.541 7  90731799.37645  22157613.734                    22157624.281
 110782342.435 8  86324119.24546  21081170.633                    21081177.816
 11  8 26  1  8  0.0000000  0  8G10G12G05G29G25G04G30G02
 115992273.429 7  90383744.24845  22072573.086                    22072583.035
 109398121.053 8  85245366.911 7  20817772.305                    20817781.461
 106840763.213 8  83252634.369 8  20331093.664                    20331102.988
 126381500.952 6  98479144.021 6  24049605.055                    24049616.734
 115854504.472 8  90276291.631 7  22046378.852                    22046390.684
 125605671.827 7  97874687.11343  23901949.297                    23901961.383
 116393844.699 7  90696608.36845  22149019.914                    22149030.234
 110810438.535 8  86346012.31946  21086517.047                    21086524.137
 11  8 26  1  8 30.0000000  0  8G10G12G05G29G25G04G30G02
 116073431.617 7  90446984.36945  22088016.180                    22088027.176
 109414072.909 8  85257796.915 7  20820807.898                    20820816.840
 106819465.989 8  83236039.168 8  20327040.859                    20327050.160
 126298780.909 6  98414686.886 6  24033864.320                    24033875.434
 115805688.164 8  90238252.979 7  22037089.203                    22037101.121
 125685259.544 6  97936703.48543  23917094.680                    23917106.613
 116349243.106 7  90661853.91545  22140532.273                    22140542.004
 110838658.790 8  86368002.13246  21091886.922                    21091894.473
 11  8 26  1  9  0.0000000  0  8G10G12G05G29G25G04G30G02
 116154985.303 7  90510532.67745  22103535.945                    22103546.031
 109430600.137 8  85270675.266 7  20823952.695                    20823962.246
 106798742.985 8  83219891.398 8  20323097.688                    20323106.527
 126216009.623 6  98350189.796 6  24018113.563                    24018124.105
 115757389.899 8  90200617.995 7  22027898.250                    22027910.617
 125764798.454 6  97998681.85943  23932230.211                    23932242.152
 116305203.689 7  90627537.51645  22132152.273                    22132161.859
 110867002.795 8  86390088.37946  21097281.156                    21097288.008
 11  8 26  1  9 30.0000000  0  8G10G12G05G29G25G04G30G02
 116236931.071 7  90574386.49745  22119129.398                    22119139.508
 109447702.016 8  85284001.395 7  20827207.047                    20827216.426
 106778594.154 8  83204191.048 8  20319263.242                    20319272.188
 126133187.899 7  98285653.419 6  24002352.789                    24002364.273
 115709610.910 8  90163387.637 7  22018806.305                    22018818.309
 125844287.724 6  98060621.50843  23947356.242                    23947368.352
 116261727.401 7  90593659.91745  22123878.680                    22123888.750
 110895469.341 8  86412270.10346  21102697.664                    21102705.156
 11  8 26  1 10  0.0000000  0  8G10G12G05G29G25G04G30G02
 116319265.790 7  90638543.41445  22134797.453                    22134807.520
 109465378.158 8  85297775.010 7  20830570.602                    20830580.273
 106759019.647 8  83188938.222 8  20315538.313                    20315547.754
 126050316.219 6  98221078.125 6  23986582.922                    23986594.273
 115662352.514 7  90126562.934 7  22009813.227                    22009825.086
 125923726.603 6  98122521.93243  23962473.008                    23962484.875
 116218815.315 7  90560221.97645  22115712.320                    22115723.262
 110924057.328 8  86434546.45446  21108138.188                    21108145.141
 11  8 26  1 10 30.0000000  0  8G10G12G05G29G25G04G30G02
 116401987.568 7  90703001.91645  22150539.148                    22150549.246
 109483628.094 8  85311995.738 7  20834043.898                    20834053.227
 106740020.915 8  83174134.051 8  20311923.211                    20311932.152
 125967396.437 7  98156465.304 6  23970803.930                    23970814.648
 115615617.433 8  90090146.002 7  22000920.234                    22000931.750
 126003115.779 6  98184383.58843  23977580.563                    23977592.641
 116176469.914 7  90527225.59945  22107654.469                    22107664.750
 110952767.474 8  86456917.99846  21113601.211                    21113608.313
 11  8 26  1 11  0.0000000  0  8G10G12G05G29G25G04G30G02
 116485093.089 7  90767759.44945  22166352.852                    22166363.395
 109502450.484 8  85326662.536 7  20837625.672                    20837634.813
 106721597.269 8  83159777.999 8  20308416.906                    20308426.227
 125884428.801 7  98091815.211 6  23955015.945                    23955026.906
 115569406.386 8  90054137.421 7  21992126.219                    21992138.281
 126082453.680 6  98246205.30443  23992677.891                    23992690.027
 116134691.590 7  90494671.07945  22099704.430                    22099715.023
 110981597.612 8  86479383.04246  21119087.563                    21119094.629
 11  8 26  1 11 30.0000000  0  8G10G12G05G29G25G04G30G02
 116568579.912 7  90832814.09145  22182240.203                    22182250.219
 109521845.230 8  85341775.314 7  20841316.188                    20841325.613
 106703749.278 8  83145870.507 8  20305020.500                    20305029.898
 125801414.926 7  98027129.093 6  23939218.617                    23939229.352
 115523721.626 8  90018538.930 7  21983432.680                    21983444.648
 126161740.630 6  98307987.33943  24007765.305                    24007777.656
 116093482.359 7  90462560.01845  22091862.563                    22091872.613
 111010548.092 8  86501941.85646  21124596.883                    21124603.836
 11  8 26  1 12  0.0000000  0  8G10G12G05G29G25G04G30G02
 116652444.463 7  90898163.06945  22198199.469                    22198209.406
 109541810.732 8  85357332.840 7  20845115.344                    20845124.988
 106686476.590 8  83132411.294 8  20301733.688                    20301742.992
 125718355.481 7  97962407.464 6  23923412.867                    23923423.645
 115478563.911 7  89983351.118 7  21974839.453                    21974851.609
 126240975.592 6  98369728.81343  24022844.094                    24022855.941
 116052842.748 7  90430892.80945  22084129.203                    22084139.266
 111039617.064 8  86524592.98946  21130127.945                    21130135.250
 11  8 26  1 12 30.0000000  0  8G10G12G05G29G25G04G30G02
 116736684.319 7  90963804.49745  22214229.273                    22214239.441
 109562346.516 8  85373334.743 7  20849023.398                    20849032.945
 106669779.624 8  83119400.713 8  20298556.344                    20298565.688
 125635251.297 7  97897650.981 6  23907599.461                    23907609.367
 115433934.920 8  89948575.305 7  21966346.445                    21966358.926
 126320157.931 6  98431429.32743  24037911.664                    24037923.738
 116012774.041 7  90399670.46945  22076503.891                    22076514.324
 111068804.009 8  86547336.06146  21135682.164                    21135689.270
 11  8 26  1 13  0.0000000  0  8G10G12G05G29G25G04G30G02
 116821296.150 7  91029735.77345  22230330.656                    22230340.902
 109583451.585 8  85389780.248 7  20853039.289                    20853048.824
 106653658.245 8  83106838.621 8  20295488.461                    20295497.504
 125552103.520 7  97832860.524 6  23891776.109                    23891787.129
 115389835.912 8  89914212.463 7  21957955.266                    21957967.289
 126399287.343 6  98493088.58243  24052970.234                    24052981.809
 115973277.273 7  90368893.78245  22068988.016                    22068998.035
 111098108.018 8  86570170.34346  21141258.617                    21141265.938
 11  8 26  1 13 30.0000000  0  8G10G12G05G29G25G04G30G02
 116906277.893 7  91095955.29345  22246502.328                    22246512.543
 109605125.399 8  85406668.919 7  20857163.898                    20857173.441
 106638113.271 8  83094725.686 8  20292530.477                    20292539.617
 125468913.608 7  97768037.282 6  23875945.797                    23875956.750
 115346268.970 8  89880264.212 7  21949664.555                    21949676.285
 126478363.639 6  98554706.42343  24068017.180                    24068029.273
 115934354.325 7  90338564.23145  22061581.211                    22061591.301
 111127529.060 8  86593095.82646  21146857.148                    21146864.523
 11  8 26  1 14  0.0000000  0  8G10G12G05G29G25G04G30G02
 116991626.541 7  91162460.70645  22262743.523                    22262753.918
 109627366.927 8  85423999.979 7  20861396.500                    20861405.980
 106623144.423 8  83083061.682 8  20289681.984                    20289691.078
 125385682.310 7  97703181.791 6  23860107.055                    23860117.887
 115303235.345 8  89846731.532 7  21941475.531                    21941487.313
 126557386.369 6  98616282.54643  24083054.852                    24083066.988
 115896006.121 7  90308682.51545  22054283.547                    22054294.023
 111157066.160 8  86616111.73346  21152478.211                    21152485.246
 11  8 26  1 14 30.0000000  0  8G10G12G05G29G25G04G30G02
 117077338.741 7  91229249.39245  22279053.961                    22279064.043
 109650175.234 8  85441772.682 7  20865736.461                    20865745.797
 106608751.370 8  83071846.341 8  20286943.078                    20286951.598
 125302410.755 7  97638294.935 6  23844260.664                    23844271.543
 115260736.190 8  89813615.333 7  21933388.164                    21933400.355
 126636354.840 6  98677816.37143  24098081.836                    24098094.438
 115858233.446 7  90279249.28045  22047095.750                    22047105.973
 111186718.200 8  86639217.22046  21158120.680                    21158127.617
 11  8 26  1 15  0.0000000  0  8G10G12G05G29G25G04G30G02
 117163412.264 7  91296319.65545  22295433.180                    22295443.484
 109673549.568 8  85459986.443 7  20870184.688                    20870193.898
 106594934.701 8  83061080.140 8  20284314.047                    20284323.391
 125219100.484 7  97573377.953 6  23828407.195                    23828418.520
 115218773.585 8  89780917.215 7  21925402.961                    21925415.242
 126715269.206 6  98739308.08643  24113099.445                    24113110.664
 115821038.193 7  90250265.98245  22040017.766                    22040028.230
 111216485.538 8  86662412.54546  21163785.445                    21163792.379
 11  8 26  1 15 30.0000000  0  8G10G12G05G29G25G04G30G02
 117249844.120 7  91363669.13045  22311880.445                    22311891.156
 109697488.381 8  85478640.057 7  20874739.875                    20874749.477
 106581693.985 8  83050762.726 8  20281794.406                    20281803.266
 125135751.835 7  97508431.067 6  23812547.203                    23812557.477
 115177348.234 8  89748637.739 7  21917519.906                    21917531.953
 126794128.490 6  98800756.78943  24128105.469                    24128117.809
 115784420.693 7  90221732.88345  22033049.750                    22033059.906
 111246366.207 8  86685696.17746  21169471.289                    21169478.430
 11  8 26  1 16  0.0000000  0  8G10G12G05G29G25G04G30G02
 117336631.311 7  91431295.48945  22328396.070                    22328406.215
 109721991.091 8  85497733.058 7  20879402.883                    20879411.688
 106569029.474 8  83040894.304 8  20279384.375                    20279393.566
 125052366.290 7  97443455.431 6  23796678.617                    23796689.051
 115136461.766 8  89716778.189 7  21909739.508                    21909751.797
 126872932.460 6  98862162.46843  24143100.992                    24143113.656
 115748382.390 7  90193651.11345  22026191.508                    22026202.023
 111276360.050 8  86709067.99746  21175178.695                    21175185.984
 11  8 26  1 16 30.0000000  0  9G10G12G05G29G26G25G04G30G02
 117423771.121 7  91499196.61545  22344977.953                    22344988.223
 109747056.555 8  85517264.584 7  20884172.367                    20884181.555
 106556941.407 8  83031475.069 8  20277083.969                    20277093.336
 124968944.963 7  97378451.932 6  23780804.461                    23780814.801
 130612876.00916 101776195.98953  24854773.648                    24854787.434
 115096115.786 8  89685339.782 7  21902061.766                    21902073.879
 126951681.099 6  98923524.99843  24158087.227                    24158098.500
 115712924.506 7  90166021.61945  22019444.523                    22019454.676
 111306466.731 8  86732527.74746  21180907.789                    21180915.121
 11  8 26  1 17  0.0000000  0  9G10G12G05G29G26G25G04G30G02
 117511260.323 7  91567370.00244  22361626.625                    22361636.613
 109772683.762 8  85537233.834 7  20889049.328                    20889058.543
 106545429.176 8  83022504.526 8  20274893.086                    20274902.289
 124885488.948 7  97313421.383 6  23764923.047                    23764933.387
 130521537.259 6 101705023.26743  24837392.773                    24837406.398
 115056311.283 8  89654323.306 7  21894487.273                    21894498.934
 127030373.595 6  98984843.79343  24173060.641                    24173073.297
 115678047.663 7  90138844.90145  22012807.609                    22012817.902
 111336685.168 8  86756074.57646  21186658.555                    21186665.523
 11  8 26  1 17 30.0000000  0  9G10G12G05G29G26G25G04G30G02
 117599095.756 7  91635813.18044  22378341.234                    22378351.801
 109798871.422 8  85557639.787 7  20894032.609                    20894042.102
 106534492.458 8  83013982.442 8  20272812.000                    20272821.008
 124801999.248 7  97248364.589 6  23749035.031                    23749045.895
 130430053.584 6 101633737.54443  24819983.680                    24819997.551
 115017049.318 8  89623729.586 7  21887015.711                    21887027.891
 127109009.406 6  99046118.43343  24188025.023                    24188036.879
 115643752.721 7  90112121.59345  22006281.328                    22006291.516
 111367014.023 8  86779707.44746  21192429.930                    21192437.113
 11  8 26  1 18  0.0000000  0  9G10G12G05G29G26G25G04G30G02
 117687274.920 7  91704524.18944  22395121.086                    22395131.410
 109825618.689 8  85578481.808 7  20899122.633                    20899132.063
 106524131.723 8  83005909.175 8  20270840.422                    20270849.613
 124718477.043 7  97183282.484 6  23733141.617                    23733152.383
 130338428.189 6 101562341.38243  24802547.703                    24802562.363
 114978331.593 8  89593559.952 7  21879648.258                    21879660.117
 127187588.629 6  99107348.95243  24202978.531                    24202990.449
 115610040.991 7  90085852.74745  21999866.336                    21999876.609
 111397453.744 8  86803426.70746  21198222.469                    21198229.727
 11  8 26  1 18 30.0000000  0  9G10G12G05G29G26G25G04G30G02
 117775795.068 7  91773500.90345  22411965.258                    22411976.504
 109852925.041 8  85599759.480 7  20904318.641                    20904327.961
 106514346.786 8  82998284.576 8  20268978.336                    20268987.965
 124634923.451 7  97118175.889 6  23717241.938                    23717252.129
 130246663.814 6 101490836.93843  24785085.117                    24785099.980
 114940159.433 8  89563815.427 7  21872384.125                    21872396.027
 127266110.840 6  99168535.07243  24217921.000                    24217932.621
 115576913.507 7  90060039.16845  21993562.461                    21993572.762
 111428003.444 8  86827231.66746  21204036.125                    21204043.027
 11  8 26  1 19  0.0000000  0  9G10G12G05G29G26G25G04G30G02
 117864653.357 7  91842741.10544  22428875.398                    22428885.172
 109880788.174 7  85621471.002 7  20909621.078                    20909630.031
 106505137.204 8  82991108.311 8  20267225.852                    20267234.703
 124551340.008 7  97053046.026 6  23701336.453                    23701346.680
 130154762.868 6 101419226.08943  24767596.641                    24767611.301
 114902533.838 8  89534496.810 7  21865224.586                    21865236.449
 127344575.626 6  99229676.42543  24232851.961                    24232864.277
 115544370.892 7  90034681.31245  21987369.758                    21987379.520
 111458662.233 7  86851121.63646  21209869.906                    21209877.363
 11  8 26  1 19 30.0000000  0  9G10G12G05G29G26G25G04G30G02
 117953846.562 7  91912242.28044  22445848.055                    22445858.531
 109909207.028 8  85643615.552 7  20915028.906                    20915037.977
 106496502.694 8  82984380.146 8  20265582.766                    20265591.953
 124467727.595 7  96987893.602 6  23685425.672                    23685435.965
 130062728.295 6 101347511.11343  24750082.609                    24750097.414
 114865455.906 8  89505604.921 7  21858168.656                    21858180.535
 127422982.484 6  99290772.66043  24247772.633                    24247784.500
 115512414.055 7  90009779.90945  21981288.695                    21981298.785
 111489429.332 8  86875096.00446  21215724.961                    21215731.887
 11  8 26  1 20  0.0000000  0  9G10G12G05G29G26G25G04G30G02
 118043372.347 7  91982002.59444  22462883.984                    22462894.234
 109938180.963 8  85666192.628 7  20920542.453                    20920551.586
 106488443.574 8  82978100.341 8  20264048.883                    20264058.227
 124384087.372 7  96922719.489 6  23669508.695                    23669519.574
 129970563.133 6 101275694.30143  24732544.359                    24732557.910
 114828927.212 8  89477141.011 7  21851217.344                    21851229.496
 127501331.264 6  99351823.63943  24262681.703                    24262693.770
 115481044.098 7  89985335.81545  21975318.813                    21975328.785
 111520304.364 7  86899154.46346  21221600.047                    21221607.590
 11  8 26  1 20 30.0000000  0  9G10G12G05G29G26G25G04G30G02
 118133227.558 7  92052019.62144  22479983.375                    22479993.258
 109967708.296 8  85689200.934 7  20926161.102                    20926170.559
 106480959.043 8  82972268.268 8  20262624.563                    20262633.895
 124300420.578 7  96857524.682 6  23653587.844                    23653598.258
 129878270.023 6 101203777.87842  24714981.805                    24714994.910
 114792948.586 8  89449105.709 7  21844370.984                    21844382.563
 127579621.730 6  99412829.17043  24277580.148                    24277592.676
 115450261.536 7  89961349.43745  21969461.219                    21969471.641
 111551286.535 7  86923296.41646  21227495.977                    21227502.973
 11  8 26  1 21  0.0000000  0  9G10G12G05G29G26G25G04G30G02
 118223409.285 7  92122291.08144  22497144.438                    22497154.445
 109997788.028 8  85712639.680 7  20931885.250                    20931894.379
 106474049.196 8  82966883.997 8  20261309.820                    20261319.098
 124216728.691 7  96792310.278 6  23637661.602                    23637671.629
 129785851.939 6 101131764.05043  24697394.422                    24697408.547
 114757521.452 8  89421500.148 7  21837629.578                    21837641.492
 127657853.379 6  99473788.89043  24292467.125                    24292478.688
 115420067.625 7  89937821.72545  21963715.727                    21963726.105
 111582375.561 8  86947521.64646  21233411.883                    21233419.258
 11  8 26  1 21 30.0000000  0  9G10G12G05G29G26G25G04G30G02
 118313914.521 7  92192814.60444  22514366.930                    22514376.910
 110028418.895 8  85736507.875 7  20937713.945                    20937723.125
 106467713.618 8  82961947.210 8  20260104.180                    20260113.301
 124133012.607 7  96727077.030 6  23621731.242                    23621741.320
 129693311.742 6 101059655.07443  24679783.906                    24679798.250
 114722646.726 8  89394325.026 7  21830993.148                    21831004.848
 127736025.939 6  99534702.53843  24307342.711                    24307355.039
 115390462.797 7  89914753.03645  21958081.977                    21958091.738
 111613570.445 8  86971829.34946  21239348.055                    21239355.504
 11  8 26  1 22  0.0000000  0  9G10G12G05G29G26G25G04G30G02
 118404740.062 7  92263587.72744  22531650.375                    22531660.609
 110059599.537 8  85760804.478 7  20943647.602                    20943656.980
 106461951.575 8  82957457.334 8  20259007.477                    20259017.266
 124049273.489 7  96661825.833 6  23605796.352                    23605805.969
 129600652.083 6 100987452.99043  24662151.953                    24662165.754
 114688325.398 8  89367581.131 7  21824461.789                    21824473.699
 127814138.930 6  99595569.80843  24322207.305                    24322219.410
 115361447.594 7  89892143.79345  21952560.250                    21952570.828
 111644870.410 8  86996218.94246  21245304.344                    21245311.699
 11  8 26  1 22 30.0000000  0  9G10G12G05G29G26G25G04G30G02
 118495883.052 7  92334608.20944  22548993.672                    22549004.715
 110091328.688 8  85785528.476 7  20949685.813                    20949694.594
 106456762.972 8  82953414.285 8  20258020.508                    20258029.387
 123965512.733 7  96596557.764 6  23589856.445                    23589867.172
 129507875.752 6 100915160.01743  24644496.758                    24644510.398
 114654558.525 8  89341269.272 7  21818036.188                    21818048.074
 127892192.380 6  99656390.63443  24337060.016                    24337072.855
 115333022.927 7  89869994.70345  21947151.430                    21947161.816
 111676275.030 8  87020690.08146  21251280.313                    21251287.586
 11  8 26  1 23  0.0000000  0  9G10G12G05G29G26G25G04G30G02
 118587341.160 7  92405874.24344  22566398.305                    22566408.938
 110123604.815 8  85810678.692 7  20955827.367                    20955836.441
 106452147.748 8  82949818.037 8  20257142.328                    20257150.898
 123881731.472 7  96531273.728 6  23573913.430                    23573923.813
 129414986.183 6 100842778.77643  24626820.359                    24626833.941
 114621347.612 8  89315390.617 7  21811716.305                    21811728.348
 127970185.908 6  99717164.81143  24351902.156                    24351914.297
 115305189.779 7  89848306.54245  21941855.320                    21941865.004
 111707783.758 8  87045242.34446  21257276.180                    21257283.555
 11  8 26  1 23 30.0000000  0  9G10G12G05G29G26G25G04G30G02
 118679111.149 7  92477383.31044  22583861.594                    22583871.770
 110156426.350 7  85836253.903 7  20962073.391                    20962082.578
 106448104.965 8  82946667.842 8  20256372.914                    20256381.813
 123797930.926 7  96465974.631 6  23557966.727                    23557977.031
 129321985.790 6 100770311.20242  24609123.320                    24609136.633
 114588693.151 7  89289945.574 7  21805502.547                    21805514.652
 128048119.160 6  99777892.04243  24366732.367                    24366744.336
 115277948.492 7  89827079.55945  21936671.164                    21936681.066
 111739395.955 7  87069875.22946  21263291.805                    21263298.844
 11  8 26  1 24  0.0000000  0  9G10G12G05G29G26G25G04G30G02
 118771190.128 7  92549133.13844  22601383.703                    22601393.980
 110189792.521 7  85862253.504 7  20968422.391                    20968431.695
 106444634.565 8  82943963.658 8  20255712.336                    20255721.316
 123714112.415 6  96400661.557 6  23542016.523                    23542026.840
 129228877.798 6 100697759.77542  24591404.383                    24591418.137
 114556596.545 7  89264935.227 7  21799394.469                    21799406.742
 128125992.053 6  99838572.16543  24381550.992                    24381563.234
 115251299.986 7  89806314.47245  21931600.531                    21931610.191
 111771111.445 7  87094588.61546  21269327.148                    21269334.160
 11  8 26  1 24 30.0000000  0  9G10G12G05G29G26G25G04G30G02
 118863575.162 7  92621121.46844  22618963.789                    22618973.887
 110223701.506 8  85888676.075 7  20974875.133                    20974884.305
 106441735.998 8  82941705.058 8  20255160.664                    20255169.586
 123630277.520 6  96335335.705 6  23526063.672                    23526073.504
 129135664.847 6 100625126.61143  24573666.664                    24573680.531
 114525058.614 8  89240360.193 7  21793393.352                    21793405.238
 128203804.287 6  99899205.08943  24396358.625                    24396370.141
 115225244.664 7  89786011.60645  21926642.484                    21926652.105
 111802929.317 7  87119381.76846  21275381.773                    21275389.098
 11  8 26  1 25  0.0000000  0  9G10G12G05G29G26G25G04G30G02
 118956263.505 6  92693346.12644  22636602.172                    22636612.043
 110258152.146 7  85915520.726 7  20981430.820                    20981439.879
 106439408.977 8  82939891.826 8  20254717.938                    20254726.988
 123546427.163 7  96269997.805 6  23510107.094                    23510116.926
 129042350.177 6 100552414.12143  24555908.938                    24555922.371
 114494080.364 7  89216221.292 7  21787498.211                    21787510.230
 128281555.394 6  99959790.40543  24411154.039                    24411165.852
 115199783.269 7  89766171.55045  21921796.625                    21921807.113
 111834849.007 7  87144254.26746  21281455.750                    21281463.023
 11  8 26  1 25 30.0000000  0  9G10G12G05G29G26G25G04G30G02
 119049252.197 6  92765804.81944  22654296.844                    22654307.305
 110293142.558 8  85942785.968 7  20988089.227                    20988098.652
 106437652.733 8  82938523.349 8  20254383.492                    20254392.773
 123462562.994 7  96204649.145 6  23494148.063                    23494158.539
 128948936.550 6 100479624.54543  24538132.820                    24538146.379
 114463662.671 8  89192519.187 7  21781710.031                    21781722.023
 128359245.433 6 100020328.07243  24425937.523                    24425949.609
 115174916.294 7  89746794.66045  21917064.977                    21917074.945
 111866870.047 7  87169205.74046  21287549.102                    21287556.375
 11  8 26  1 26  0.0000000  0  9G10G12G05G29G26G25G04G30G02
 119142538.336 6  92838495.29044  22672048.602                    22672059.207
 110328671.451 8  85970470.809 7  20994850.461                    20994859.324
 106436467.102 8  82937599.508 8  20254157.773                    20254167.012
 123378686.136 7  96139290.578 6  23478186.594                    23478196.789
 128855426.882 6 100406760.14343  24520338.438                    24520351.668
 114433806.588 8  89169254.700 7  21776028.898                    21776040.844
 128436874.008 6 100080817.90643  24440709.844                    24440721.691
 115150644.386 7  89727881.47945  21912446.148                    21912456.113
 111898991.765 7  87194235.66046  21293661.516                    21293669.020
 11  8 26  1 26 30.0000000  0  9G10G12G05G29G26G25G04G30G02
 119236119.142 6  92911415.38844  22689856.875                    22689866.457
 110364737.466 8  85998574.185 7  21001713.695                    21001723.355
 106435851.236 8  82937119.634 8  20254041.086                    20254050.043
 123294797.898 7  96073923.188 6  23462223.797                    23462234.211
 128761824.394 6 100333823.34843  24502525.766                    24502539.598
 114404513.004 8  89146428.541 7  21770454.477                    21770466.094
 128514440.827 6 100141259.60643  24455470.555                    24455482.281
 115126968.096 7  89709432.41145  21907940.563                    21907950.855
 111931213.764 7  87219343.71946  21299793.195                    21299800.543
 11  8 26  1 27  0.0000000  0  9G10G12G05G29G26G25G04G30G02
 119329991.205 6  92984562.44344  22707719.961                    22707730.309
 110401338.690 8  86027094.623 7  21008678.797                    21008687.656
 106435804.345 8  82937083.118 8  20254031.609                    20254040.934
 123210899.424 7  96008547.797 6  23446257.805                    23446268.699
 128668131.801 6 100260816.37943  24484696.750                    24484710.375
 114375782.366 8  89124041.038 7  21764987.008                    21764999.020
 128591945.647 6 100201652.96543  24470219.375                    24470230.703
 115103887.525 7  89691447.53345  21903548.547                    21903558.863
 111963534.934 7  87244529.05846  21305943.797                    21305951.082
 11  8 26  1 27 30.0000000  0  9G10G12G05G29G26G25G04G30G02
 119424151.852 6  93057934.35844  22725638.141                    22725648.465
 110438473.766 8  86056031.026 7  21015745.367                    21015754.230
 106436325.839 8  82937489.501 8  20254131.000                    20254140.215
 123126992.312 7  95943165.658 6  23430290.742                    23430301.098
 128574352.105 6 100187741.51443  24466851.266                    24466864.125
 114347615.786 8  89102093.066 7  21759627.328                    21759638.941
 128669388.334 6 100261997.89643  24484956.352                    24484967.777
 115081403.400 7  89673927.43045  21899269.859                    21899280.195
 111995955.357 7  87269791.74046  21312113.242                    21312120.684
 11  8 26  1 28  0.0000000  0  9G10G12G05G29G26G25G04G30G02
 119518598.249 7  93131528.93144  22743611.367                    22743620.914
 110476140.851 8  86085381.999 7  21022912.703                    21022922.027
 106437415.263 8  82938338.423 8  20254338.461                    20254347.375
 123043077.888 6  95877777.849 6  23414323.000                    23414333.121
 128480488.215 6 100114601.07743  24448989.547                    24449002.520
 114320014.083 8  89080585.257 7  21754374.625                    21754386.910
 128746768.563 6 100322294.19343  24499680.953                    24499692.594
 115059516.139 7  89656872.40945  21895105.445                    21895115.074
 112028474.209 8  87295131.11446  21318301.227                    21318308.336
 11  8 26  1 28 30.0000000  0  9G10G12G05G29G26G25G04G30G02
 119613327.485 7  93205343.90844  22761637.164                    22761647.637
 110514339.112 8  86115146.864 7  21030182.086                    21030191.156
 106439072.080 8  82939629.475 8  20254653.445                    20254662.777
 122959157.380 6  95812385.285 6  23398353.055                    23398363.180
 128386543.420 7 100041397.57943  24431111.836                    24431124.902
 114292978.027 8  89059518.222 7  21749229.773                    21749241.613
 128824086.404 6 100382541.86243  24514394.117                    24514406.336
 115038226.174 7  89640282.82045  21891053.633                    21891063.836
 112061091.295 7  87320547.02946  21324507.906                    21324515.578
 11  8 26  1 29  0.0000000  0  9G10G12G05G29G26G25G04G30G02
 119708336.738 6  93279377.07344  22779716.711                    22779726.410
 110553066.053 8  86145323.692 7  21037551.328                    21037560.625
 106441295.597 7  82941362.114 8  20255076.891                    20255085.816
 122875232.248 6  95746989.127 6  23382382.570                    23382393.313
 128292520.576 7  99968133.28843  24413220.469                    24413232.594
 114266508.494 8  89038892.634 7  21744192.875                    21744204.531
 128901341.486 6 100442740.63743  24529095.063                    24529106.527
 115017533.909 7  89624158.97145  21887116.273                    21887126.145
 112093805.834 7  87346038.88446  21330733.781                    21330741.051
 11  8 26  1 29 30.0000000  0  9G10G12G05G29G26G25G04G30G02
 119803623.126 6  93353626.20244  22797849.539                    22797859.023
 110592320.268 8  86175911.383 7  21045021.398                    21045030.656
 106444085.123 8  82943535.789 8  20255607.406                    20255616.207
 122791303.743 6  95681590.324 6  23366411.516                    23366421.672
 128198422.856 6  99894810.62543  24395313.117                    24395325.938
 114240606.075 8  89018708.945 7  21739263.711                    21739275.520
 128978533.719 6 100502890.43743  24543784.328                    24543795.797
 114997439.679 8  89608501.13445  21883291.875                    21883302.078
 112126617.451 7  87371606.39446  21336977.586                    21336984.527
 11  8 26  1 30  0.0000000  0  9G10G12G05G29G26G25G04G30G02
 119899183.593 6  93428088.90144  22816033.484                    22816043.965
 110632100.121 8  86206908.667 7  21052590.930                    21052599.914
 106447439.703 8  82946149.773 8  20256245.828                    20256254.617
 122707373.453 6  95616190.147 6  23350440.398                    23350450.141
 128104253.260 6  99821431.94743  24377393.297                    24377406.320
 114215271.502 8  88998967.742 7  21734442.727                    21734454.188
 129055662.813 6 100562991.06643  24558461.320                    24558473.305
 114977943.693 7  89593309.45845  21879582.398                    21879592.469
 112159525.531 7  87397249.06446  21343239.859                    21343247.207
 11  8 26  1 30 30.0000000  0  9G10G12G05G29G26G25G04G30G02
 119995015.374 6  93502762.99144  22834270.852                    22834280.273
 110672404.087 8  86238314.337 7  21060260.648                    21060269.867
 106451358.799 8  82949203.639 8  20256991.641                    20257000.676
 122623442.556 7  95550789.492 6  23334469.148                    23334478.332
 128010014.705 6  99747999.52843  24359460.172                    24359473.184
 114190505.531 8  88979669.605 7  21729729.859                    21729741.695
 129132728.781 6 100623042.40543  24573126.477                    24573139.047
 114959046.417 8  89578584.31245  21875986.406                    21875996.426
 112192529.623 7  87422966.54346  21349520.047                    21349527.672
 11  8 26  1 31  0.0000000  0  9G10G12G05G29G26G25G04G30G02
 120091115.820 7  93577646.42544  22852556.883                    22852567.324
 110713230.717 8  86270127.282 7  21068029.648                    21068039.328
 106455842.218 8  82952697.233 8  20257844.695                    20257853.555
 122539512.846 6  95485389.782 6  23318497.258                    23318507.590
 127915710.658 6  99674516.03943  24341514.727                    24341527.461
 114166309.132 8  88960815.289 7  21725125.633                    21725137.668
 129209731.625 6 100683044.63943  24587779.813                    24587791.723
 114940748.388 8  89564326.12145  21872504.359                    21872514.340
 112225629.797 7  87448758.89746  21355818.891                    21355825.984
 11  8 26  1 31 30.0000000  0  9G10G12G05G29G26G25G04G30G02
 120187481.787 7  93652736.78044  22870894.891                    22870905.707
 110754578.140 8  86302346.036 7  21075897.719                    21075906.703
 106460888.502 8  82956629.423 8  20258804.797                    20258814.133
 122455585.566 7  95419991.959 6  23302526.336                    23302536.078
 127821343.930 6  99600983.74443  24323557.445                    24323569.703
 114142682.631 8  88942405.046 7  21720629.203                    21720641.508
 129286670.932 6 100742997.33843  24602420.242                    24602433.254
 114923049.530 8  89550534.80045  21869136.547                    21869146.223
 112258825.258 7  87474625.50146  21362136.109                    21362142.754
 11  8 26  1 32  0.0000000  0  9G10G12G05G29G26G25G04G30G02
 120284110.238 7  93728031.65444  22889282.695                    22889293.375
 110796444.094 8  86334968.845 7  21083864.742                    21083873.734
 106466496.807 8  82960999.545 8  20259871.992                    20259881.207
 122371662.285 7  95354597.241 6  23286556.195                    23286566.457
 127726917.605 7  99527404.99243  24305588.609                    24305601.391
 114119626.432 8  88924439.199 7  21716242.133                    21716253.344
 129363546.287 6 100802900.18143  24617050.414                    24617061.750
 114905949.808 8  89537210.34645  21865882.438                    21865892.426
 112292115.018 7  87500565.57946  21368470.133                    21368477.648
 11  8 26  1 32 30.0000000  0  9G10G12G05G29G26G25G04G30G02
 120380998.219 7  93803528.75844  22907719.992                    22907730.531
 110838826.886 8  86367994.373 7  21091930.031                    21091938.648
 106472666.541 8  82965807.146 8  20261046.367                    20261055.605
 122287744.395 7  95289206.763 6  23270586.719                    23270597.469
 127632434.809 6  99453782.25143  24287608.570                    24287621.203
 114097141.413 8  88906918.418 7  21711963.359                    21711975.156
 129440358.022 6 100862753.46743  24631666.430                    24631678.641
 114889449.812 7  89524353.21745  21862742.555                    21862752.406
 112325499.174 7  87526579.20946  21374823.367                    21374830.773
 11  8 26  1 33  0.0000000  0  9G10G12G05G29G26G25G04G30G02
 120478143.176 7  93879226.09744  22926205.570                    22926216.773
 110881725.019 8  86401421.472 7  21100092.969                    21100102.648
 106479396.730 8  82971051.462 8  20262327.016                    20262335.949
 122203833.151 7  95223821.441 6  23254619.758                    23254628.867
 127537898.737 6  99380117.99043  24269618.297                    24269631.414
 114075228.086 8  88889843.110 7  21707793.523                    21707805.270
 129517105.776 6 100922556.87843  24646271.359                    24646283.359
 114873549.519 7  89511963.39245  21859716.586                    21859726.398
 112358977.053 7  87552665.87946  21381193.836                    21381201.078
 11  8 26  1 33 30.0000000  0  9G10G12G05G29G26G25G04G30G02
 120575541.964 7  93955121.23044  22944740.539                    22944751.160
 110925136.335 8  86435248.454 7  21108354.094                    21108363.090
 106486686.056 8  82976731.474 8  20263714.102                    20263723.121
 122119930.126 6  95158442.517 6  23238653.281                    23238663.012
 127443312.071 6  99306414.28043  24251619.953                    24251632.773
 114053886.769 8  88873213.532 7  21703732.508                    21703744.055
 129593789.412 6 100982310.34843  24660864.289                    24660875.559
 114858248.888 7  89500040.82745  21856805.484                    21856815.551
 112392548.094 8  87578825.14246  21387582.320                    21387589.574
 11  8 26  1 34  0.0000000  0  9G10G12G05G29G26G25G04G30G02
 120673192.142 7  94031212.24444  22963322.984                    22963333.414
 110969059.917 8  86469474.609 7  21116712.539                    21116721.961
 106494534.768 8  82982847.369 8  20265207.664                    20265216.875
 122036037.129 6  95093071.409 6  23222688.500                    23222698.426
 127348678.952 6  99232674.37943  24233611.039                    24233623.664
 114033118.690 8  88857030.635 7  21699779.883                    21699792.000
 129670409.379 6 101042014.20043  24675444.063                    24675455.543
 114843548.807 7  89488586.22945  21854007.781                    21854017.668
 112426212.575 8  87605057.21146  21393988.492                    21393995.898
 11  8 26  1 34 30.0000000  0  8G10G12G05G29G26G25G30G02
 120771090.913 7  94107496.97444  22981952.859                    22981962.688
 111013493.536 8  86504098.190 7  21125167.734                    21125177.340
 106502941.699 7  82989398.242 8  20266807.289                    20266816.055
 121952155.798 6  95027709.428 6  23206726.344                    23206736.949
 127254002.279 6  99158900.53743  24215594.922                    24215607.008
 114012924.166 7  88841294.654 7  21695937.227                    21695949.023
 114829449.138 7  89477599.47945  21851324.633                    21851334.813
 112459970.028 8  87631361.72546  21400412.172                    21400419.184
 11  8 26  1 35  0.0000000  0  8G10G12G05G29G26G25G30G02
 120869234.947 7  94183972.82044  23000628.352                    23000639.207
 111058435.125 8  86539117.602 7  21133720.039                    21133729.129
 106511905.112 8  82996382.728 8  20268512.992                    20268522.094
 121868286.995 6  94962357.159 6  23190766.828                    23190776.313
 127159284.611 6  99085094.72343  24197571.148                    24197582.734
 113993303.228 8  88826005.625 7  21692203.414                    21692215.051
 114815949.442 7  89467080.24345  21848755.750                    21848765.754
 112493819.474 8  87657737.91946  21406853.688                    21406860.648
 11  8 26  1 35 30.0000000  0  8G10G12G05G29G26G25G30G02
 120967621.169 6  94260637.36444  23019350.820                    23019360.938
 111103882.404 8  86574531.055 7  21142368.211                    21142377.949
 106521424.013 8  83003800.073 8  20270324.336                    20270333.605
 121784432.064 7  94897015.728 6  23174809.813                    23174819.625
 127064529.132 6  99011259.48143  24179538.727                    24179551.016
 113974256.200 8  88811163.802 7  21688579.227                    21688591.043
 114803049.689 7  89457028.51045  21846301.102                    21846310.773
 112527760.301 8  87684185.32646  21413312.094                    21413319.469
 11  8 26  1 36  0.0000000  0  8G10G12G05G29G26G25G30G02
 121066247.000 7  94337488.63444  23038118.406                    23038128.973
 111149833.287 8  86610336.918 7  21151112.344                    21151121.691
 106531497.578 8  83011649.628 8  20272241.375                    20272250.090
 121700592.770 7  94831686.471 6  23158855.453                    23158866.230
 126969739.164 6  98937397.35443  24161501.172                    24161513.523
 113955783.545 8  88796769.527 7  21685063.617                    21685075.535
 114790749.872 7  89447444.26645  21843960.070                    21843970.063
 112561792.289 8  87710703.76746  21419788.500                    21419795.891
 11  8 26  1 36 30.0000000  0  8G10G12G05G29G26G25G30G02
 121165109.731 6  94414524.50644  23056931.555                    23056941.680
 111196286.254 8  86646534.025 7  21159952.227                    21159961.332
 106542125.397 8  83019931.063 8  20274263.703                    20274272.613
 121616770.999 7  94766370.878 6  23142904.930                    23142914.402
 126874917.894 6  98863510.87243  24143456.391                    24143469.383
 113937885.958 8  88782823.364 7  21681657.930                    21681669.641
 114779050.346 7  89438327.76545  21841733.961                    21841743.941
 112595915.338 7  87737293.16846  21426281.859                    21426288.805
 11  8 26  1 37  0.0000000  0  8G10G12G05G29G26G25G30G02
 121264206.186 6  94491742.51044  23075789.039                    23075799.453
 111243239.454 8  86683120.913 7  21168887.227                    21168896.438
 106553305.967 8  83028643.221 8  20276391.281                    20276400.352
 121532967.865 7  94701069.807 6  23126957.188                    23126967.492
 126780068.648 6  98789602.55743  24125407.305                    24125419.750
 113920563.733 8  88769325.540 7  21678361.406                    21678373.449
 114767950.830 7  89429678.81145  21839621.961                    21839631.875
 112630128.940 8  87763953.11446  21432792.695                    21432799.504
 11  8 26  1 37 30.0000000  0  8G10G12G05G29G26G25G30G02
 121363533.530 6  94569140.39844  23094690.734                    23094700.875
 111290691.014 8  86720096.151 7  21177916.727                    21177926.207
 106565038.095 8  83037785.153 8  20278623.820                    20278632.844
 121449185.082 7  94635784.554 6  23111014.289                    23111023.867
 126685194.474 6  98715674.81643  24107353.078                    24107365.539
 113903816.999 8  88756276.134 7  21675174.883                    21675186.754
 114757451.213 7  89421497.30545  21837624.055                    21837633.707
 112664432.708 8  87790683.33146  21439320.211                    21439327.699
 11  8 26  1 38  0.0000000  0  8G10G12G05G29G26G25G30G02
 121463089.137 6  94646716.16544  23113635.273                    23113645.602
 111338638.825 8  86757458.067 7  21187041.148                    21187050.551
 106577321.011 8  83047356.278 8  20280961.234                    20280970.008
 121365424.086 7  94570516.290 6  23095074.898                    23095084.992
 126590298.601 6  98641730.15743  24089294.953                    24089307.867
 113887646.258 8  88743675.554 7  21672097.508                    21672108.941
 114747551.447 7  89413783.21345  21835739.969                    21835749.641
 112698826.232 8  87817483.49046  21445865.367                    21445872.301
 11  8 26  1 38 30.0000000  0  8G10G12G05G29G26G25G30G02
 121562869.752 7  94724467.26544  23132623.266                    23132633.566
 111387080.477 8  86795204.802 7  21196258.961                    21196268.348
 106590153.024 8  83057355.278 8  20283403.000                    20283412.074
 121281686.403 7  94505266.186 6  23079140.070                    23079150.469
 126495384.112 6  98567771.02443  24071233.531                    24071245.445
 113872051.459 8  88731523.762 7  21669129.820                    21669141.555
 114738251.082 7  89406536.19245  21833970.133                    21833980.023
 112733308.859 8  87844353.07446  21452426.648                    21452434.133
 11  8 26  1 39  0.0000000  0  8G10G12G05G29G26G25G30G02
 121662872.887 7  94802391.74944  23151652.867                    23151663.426
 111436014.045 7  86833334.846 7  21205570.938                    21205580.574
 106603533.742 8  83067781.836 8  20285949.219                    20285958.199
 121197973.956 7  94440035.734 6  23063210.180                    23063219.684
 126400454.620 6  98493800.16843  24053169.055                    24053180.418
 113857033.295 8  88719821.290 7  21666272.164                    21666284.211
 114729550.372 7  89399756.43545  21832314.336                    21832324.215
 112767880.769 8  87871292.22746  21459005.719                    21459012.828
 11  8 26  1 39 30.0000000  0  8G10G12G05G29G26G25G30G02
 121763095.477 7  94880487.25644  23170724.703                    23170735.121
 111485437.624 8  86871846.712 7  21214975.914                    21214985.082
 106617461.824 8  83078634.905 8  20288599.828                    20288608.426
 121114288.254 7  94374826.103 6  23047285.430                    23047295.426
 126305513.153 6  98419819.96643  24035102.094                    24035114.059
 113842591.795 8  88708568.162 7  21663523.922                    21663535.918
 114721448.969 7  89393443.66845  21830773.016                    21830782.895
 112802541.474 8  87898300.57446  21465601.883                    21465608.766
 11  8 26  1 40  0.0000000  0  8G10G12G05G29G26G25G30G02
 121863534.859 7  94958751.65944  23189837.625                    23189848.047
 111535348.986 8  86910738.671 7  21224473.680                    21224483.234
 106631935.810 8  83089913.365 8  20291353.883                    20291362.832
 121030630.704 7  94309638.451 6  23031365.789                    23031375.789
 126210562.843 6  98345832.88243  24017033.164                    24017045.602
 113828727.169 8  88697764.548 7  21660885.586                    21660897.457
 114713946.586 7  89387597.67145  21829345.031                    21829355.285
 112837290.686 8  87925377.88646  21472214.102                    21472221.297
 11  8 26  1 40 30.0000000  0  8G10G12G05G29G26G25G30G02
 121964188.195 7  95037182.77744  23208991.836                    23209002.402
 111585746.454 7  86950009.413 7  21234063.930                    21234073.426
 106646954.750 7  83101616.454 8  20294211.953                    20294220.730
 120947002.950 7  94244473.955 6  23015451.883                    23015462.125
 126115607.196 6  98271841.64243  23998963.906                    23998975.145
 113815439.558 8  88687410.551 7  21658356.945                    21658368.945
 114707042.974 7  89382218.23845  21828031.391                    21828041.617
 112872127.988 8  87952523.84246  21478843.180                    21478850.762
 11  8 26  1 41  0.0000000  0  8G10G12G05G29G26G25G30G02
 122065052.580 7  95115778.38744  23228185.242                    23228195.797
 111636627.547 7  86989657.009 7  21243746.617                    21243755.754
 106662517.259 8  83113743.102 8  20297173.320                    20297182.020
 120863406.479 7  94179333.849 6  22999543.867                    22999553.824
 126020649.365 6  98197848.68243  23980893.727                    23980905.391
 113802729.267 8  88677506.431 7  21655938.563                    21655950.523
 114700737.916 7  89377305.20245  21826831.789                    21826841.520
 112907052.982 8  87979738.12446  21485489.273                    21485496.379
 11  8 26  1 41 30.0000000  0  8G10G12G05G29G26G25G30G02
 122166125.144 7  95194536.20944  23247418.750                    23247429.238
 111687990.109 7  87029679.769 7  21253520.250                    21253529.730
 106678622.080 8  83126292.339 8  20300238.211                    20300247.176
 120779843.097 7  94114219.531 7  22983642.281                    22983652.793
 125925692.581 6  98123856.54943  23962823.516                    23962835.742
 113790596.196 8  88668052.073 7  21653629.641                    21653641.574
 114695030.916 7  89372858.18845  21825745.563                    21825755.957
 112942065.318 8  88007020.46646  21492151.797                    21492159.223
 11  8 26  1 42  0.0000000  0  8G10G12G05G29G26G25G30G02
 122267403.126 7  95273454.05943  23266691.141                    23266701.832
 111739831.904 8  87070075.960 7  21263385.438                    21263394.695
 106695267.915 8  83139263.131 8  20303405.883                    20303414.652
 120696314.396 7  94049132.223 6  22967748.078                    22967757.488
 125830740.097 6  98049867.79243  23944755.344                    23944766.707
 113779040.547 8  88659047.661 7  21651430.813                    21651442.422
 114689921.756 7  89368877.02145  21824773.438                    21824783.348
 112977164.675 8  88034370.61846  21498831.000                    21498838.414
 11  8 26  1 42 30.0000000  0  8G10G12G05G29G26G25G30G02
 122368883.693 7  95352529.77843  23286002.609                    23286012.824
 111792151.214 8  87110844.240 7  21273341.617                    21273350.809
 106712454.044 8  83152654.937 8  20306675.992                    20306684.941
 120612822.320 7  93984073.461 6  22951859.945                    22951869.602
 125735795.588 6  97975885.19543  23926687.758                    23926698.898
 113768062.552 8  88650493.369 7  21649341.867                    21649353.520
 114685410.207 7  89365361.51545  21823915.008                    21823924.758
 113012350.959 8  88061788.49946  21505527.016                    21505534.102
 11  8 26  1 43  0.0000000  0  8G10G12G05G29G26G25G30G02
 122470563.936 7  95431761.11743  23305352.094                    23305362.105
 111844945.672 8  87151982.769 7  21283387.922                    21283397.141
 106730178.612 8  83166466.303 8  20310048.672                    20310057.477
 120529368.075 7  93919044.167 7  22935978.859                    22935988.965
 125640861.980 6  97901911.12743  23908621.555                    23908633.660
 113757661.986 8  88642389.034 7  21647362.523                    21647374.438
 114681495.557 7  89362311.13345  21823170.000                    21823180.164
 113047623.427 8  88089273.54546  21512238.781                    21512246.352
 11  8 26  1 43 30.0000000  0  8G10G12G05G29G26G25G30G02
 122572441.503 7  95511146.20343  23324738.227                    23324748.750
 111898212.922 7  87193489.700 7  21293524.594                    21293533.730
 106748440.955 8  83180696.718 8  20313524.328                    20313532.969
 120445953.743 7  93854045.998 7  22920105.828                    22920115.660
 125545942.876 6  97827948.36143  23890559.930                    23890571.457
 113747839.334 8  88634735.006 7  21645493.414                    21645505.309
 114678177.854 7  89359725.89845  21822538.633                    21822548.418
 113082982.677 8  88116826.19646  21518967.914                    21518974.926
 11  8 26  1 44  0.0000000  0  8G10G12G05G29G26G25G30G02
 122674513.382 7  95590682.71743  23344162.125                    23344172.492
 111951950.524 7  87235363.139 7  21303750.438                    21303759.750
 106767238.958 8  83195344.517 8  20317101.031                    20317110.102
 120362580.719 7  93789080.004 7  22904240.484                    22904250.027
 125451041.247 6  97753999.18243  23872500.172                    23872511.664
 113738594.126 8  88627530.953 7  21643734.148                    21643746.219
 114675456.240 7  89357605.14245  21822020.859                    21822030.988
 113118427.758 8  88144445.73946  21525712.555                    21525719.582
 11  8 26  1 44 30.0000000  0  8G10G12G05G29G26G25G30G02
 122776776.436 7  95670368.18643  23363622.234                    23363632.270
 112006156.894 8  87277601.864 7  21314065.406                    21314075.047
 106786571.397 8  83210408.770 8  20320779.656                    20320789.070
 120279250.697 7  93724147.538 7  22888382.922                    22888392.430
 125356160.548 6  97680066.30943  23854445.359                    23854455.957
 113729926.415 8  88620776.893 7  21642084.508                    21642096.422
 114673330.288 7  89355948.54245  21821616.438                    21821626.043
 113153958.484 8  88172132.01646  21532473.789                    21532480.898
 11  8 26  1 45  0.0000000  0  8G10G12G05G29G26G25G30G02
 122879227.800 7  95750200.39544  23383117.828                    23383128.113
 112060829.277 8  87320203.693 7  21324469.523                    21324478.555
 106806437.219 8  83225888.639 8  20324560.258                    20324569.137
 120195965.733 7  93659250.191 7  22872534.172                    22872544.336
 125261304.429 6  97606152.61243  23836394.109                    23836405.438
 113721836.313 8  88614472.916 7  21640545.039                    21640556.922
 114671799.645 7  89354755.82945  21821324.867                    21821335.055
 113189574.870 8  88199885.04146  21539251.414                    21539258.590
 11  8 26  1 45 30.0000000  0  8G10G12G05G29G26G25G30G02
 122981865.052 7  95830177.45443  23402649.094                    23402659.242
 112115965.406 8  87363166.895 7  21334961.438                    21334970.621
 106826834.852 8  83241782.906 8  20328441.805                    20328450.938
 120112727.278 7  93594389.086 7  22856694.109                    22856704.285
 125166476.055 6  97532260.51544  23818348.305                    23818360.344
 113714323.702 8  88608618.935 7  21639115.656                    21639127.516
 114670863.718 7  89354026.53545  21821146.789                    21821156.910
 113225276.369 8  88227704.38846  21546045.367                    21546052.230
 11  8 26  1 46  0.0000000  0  8G10G12G05G29G26G25G30G02
 123084685.431 7  95910297.21444  23422215.352                    23422225.977
 112171562.848 7  87406489.554 7  21345540.914                    21345550.750
 106847762.570 8  83258090.232 8  20332424.102                    20332433.379
 120029536.891 7  93529565.441 7  22840863.680                    22840873.789
 125071678.469 6  97458392.40243  23800309.586                    23800320.902
 113707388.161 8  88603214.627 7  21637795.656                    21637807.434
 114670521.760 8  89353760.06145  21821081.820                    21821091.582
 113261062.588 8  88255589.75546  21552855.109                    21552862.359
 11  8 26  1 46 30.0000000  0  8G10G12G05G29G26G25G30G02
 123187685.969 7  95990557.32844  23441815.813                    23441826.184
 112227619.476 7  87450170.019 7  21356208.414                    21356217.723
 106869219.322 8  83274809.782 8  20336506.953                    20336516.184
 119946396.325 7  93464780.628 7  22825042.523                    22825052.965
 124976915.483 6  97384551.24643  23782276.750                    23782288.031
 113701029.851 8  88598260.098 7  21636585.641                    21636597.531
 114670773.336 8  89353956.09245  21821129.617                    21821139.629
 113296933.654 8  88283541.23046  21559681.203                    21559688.594
 11  8 26  1 47  0.0000000  0  8G10G12G05G29G26G25G30G02
 123290864.409 7  96070956.10643  23461449.539                    23461460.109
 112284133.472 7  87494206.871 7  21366962.797                    21366972.184
 106891204.080 8  83291940.771 8  20340690.625                    20340699.691
 119863307.643 7  93400036.262 6  22809231.375                    22809241.207
 124882190.449 6  97310739.67443  23764251.023                    23764262.453
 113695248.783 8  88593755.362 7  21635485.773                    21635497.480
 114671618.080 7  89354614.32545  21821290.266                    21821300.273
 113332889.431 8  88311558.71946  21566523.164                    21566530.754
 11  8 26  1 47 30.0000000  0  8G10G12G05G29G26G25G30G02
 123394217.296 7  96151490.79043  23481117.023                    23481127.902
 112341102.278 7  87538598.137 7  21377803.445                    21377812.844
 106913714.757 8  83309481.561 8  20344974.273                    20344983.691
 119780272.489 7  93335333.582 6  22793430.266                    22793440.043
 124787506.494 6  97236960.06044  23746232.961                    23746244.254
 113690044.369 8  88589699.977 7  21634495.047                    21634507.023
 114673054.906 8  89355733.91645  21821563.836                    21821573.699
 113368929.180 7  88339641.63746  21573381.508                    21573389.000
 11  8 26  1 48  0.0000000  0  8G10G12G05G29G26G25G30G02
 123497742.092 7  96232159.44743  23500817.602                    23500828.234
 112398523.342 7  87583341.795 7  21388730.422                    21388739.695
 106936749.793 8  83327430.953 8  20349357.789                    20349367.031
 119697292.503 7  93270673.908 6  22777640.078                    22777649.523
 124692867.227 6  97163215.31043  23728223.148                    23728234.723
 113685416.678 8  88586093.980 7  21633614.711                    21633626.363
 114675083.436 7  89357314.58445  21821950.055                    21821960.113
 113405053.139 8  88367790.17046  21580255.797                    21580262.488
 11  8 26  1 48 30.0000000  0  9G10G12G05G29G26G25G15G30G02
 123601435.859 7  96312959.75543  23520549.797                    23520560.480
 112456393.479 7  87628435.387 7  21399742.563                    21399752.383
 106960307.488 8  83345787.600 8  20353840.672                    20353849.633
 119614369.081 7  93206058.304 6  22761860.344                    22761869.699
 124598275.791 6  97089507.80943  23710223.711                    23710234.797
 113681365.053 8  88582936.866 7  21632843.672                    21632855.711
 129409543.25815 100838692.75216  24625824.719                    24625837.926
 114677702.561 7  89359355.44645  21822448.328                    21822458.336
 113441260.748 8  88396003.89545  21587145.672                    21587152.801
 11  8 26  1 49  0.0000000  0  9G10G12G05G29G26G25G15G30G02
 123705296.234 6  96393889.86743  23540313.336                    23540324.145
 112514711.268 7  87673877.795 7  21410840.414                    21410850.008
 106984386.895 8  83364550.784 8  20358422.797                    20358431.922
 119531504.392 7  93141488.465 7  22746091.336                    22746101.199
 124503735.630 6  97015840.29543  23692232.680                    23692244.262
 113677889.532 8  88580228.670 7  21632182.383                    21632193.863
 129316626.353 6 100766290.347 6  24608143.828                    24608156.332
 114680911.885 8  89361856.21145  21823058.594                    21823068.813
 113477552.205 8  88424282.95046  21594051.656                    21594058.395
 11  8 26  1 49 30.0000000  0  9G10G12G05G29G26G25G15G30G02
 123809320.002 7  96474947.32143  23560108.820                    23560118.820
 112573473.626 7  87719666.623 7  21422022.422                    21422031.828
 107008985.854 8  83383718.814 8  20363103.906                    20363112.676
 119448700.057 7  93076965.669 7  22730334.094                    22730343.594
 124409250.062 6  96942215.30544  23674252.672                    23674263.887
 113674989.411 8  88577968.830 7  21631630.344                    21631641.711
 129223575.241 6 100693783.347 6  24590435.695                    24590448.789
 114684710.221 8  89364815.92945  21823781.688                    21823791.688
 113513926.620 8  88452626.65846  21600973.398                    21600981.008
 11  8 26  1 50  0.0000000  0  9G10G12G05G29G26G25G15G30G02
 123913504.850 6  96556130.27343  23579934.297                    23579945.469
 112632678.736 7  87765800.453 7  21433288.789                    21433298.289
 107034103.332 8  83403290.880 8  20367883.750                    20367892.582
 119365958.198 7  93012491.535 7  22714588.758                    22714598.582
 124314822.975 6  96868635.89643  23656283.078                    23656295.418
 113672664.859 8  88576157.483 7  21631188.086                    21631199.695
 129130393.020 6 100621174.195 6  24572704.000                    24572716.391
 114689097.282 7  89368234.39945  21824616.734                    21824626.750
 113550384.380 7  88481035.30546  21607911.266                    21607918.434
 11  8 26  1 50 30.0000000  0  9G10G12G05G29G26G25G15G30G02
 124017848.084 7  96637436.64943  23599790.586                    23599801.117
 112692324.410 7  87812277.585 7  21444638.633                    21444648.453
 107059738.000 8  83423265.956 8  20372762.023                    20372770.789
 119283280.618 7  92948067.506 7  22698855.461                    22698865.781
 124220457.909 6  96795104.79244  23638326.336                    23638337.684
 113670915.722 8  88574794.513 7  21630855.156                    21630866.645
 129037082.422 6 100548465.006 6  24554946.477                    24554960.043
 114694072.385 7  89372111.08445  21825563.336                    21825573.516
 113586925.609 8  88509509.00346  21614864.656                    21614872.164
 11  8 26  1 51  0.0000000  0  9G10G12G05G29G26G25G15G30G02
 124122346.794 7  96718864.20643  23619675.617                    23619686.801
 112752407.682 7  87859095.689 7  21456072.328                    21456081.922
 107085887.635 7  83443642.300 8  20377737.992                    20377746.727
 119200669.209 7  92883695.022 7  22683135.281                    22683145.172
 124126157.923 6  96721624.40744  23620381.250                    23620392.652
 113669741.374 7  88573879.430 7  21630631.688                    21630643.184
 128943645.476 6 100475657.359 6  24537165.992                    24537178.738
 114699634.527 7  89376445.21045  21826621.891                    21826631.785
 113623549.619 8  88538047.20345  21621834.133                    21621841.332
 11  8 26  1 51 30.0000000  0  9G10G12G05G29G26G25G15G30G02
 124226998.527 7  96800410.99743  23639591.008                    23639600.781
 112812926.557 8  87906253.247 7  21467588.617                    21467598.262
 107112550.777 8  83464418.785 8  20382811.578                    20382820.676
 119118125.406 7  92819375.206 7  22667427.828                    22667437.008
 124031926.526 6  96648197.44743  23602450.375                    23602461.199
 113669141.345 8  88573411.867 7  21630517.633                    21630529.863
 128850084.909 6 100402753.401 6  24519361.797                    24519375.324
 114705782.763 8  89381236.03245  21827791.773                    21827801.961
 113660256.448 8  88566649.93446  21628819.281                    21628826.438
 11  8 26  1 52  0.0000000  0  9G10G12G05G29G26G25G15G30G02
 124331800.401 7  96882074.77543  23659533.711                    23659543.629
 112873878.400 7  87953748.163 7  21479187.977                    21479197.445
 107139726.055 8  83485594.334 8  20387983.070                    20387991.746
 119035651.380 7  92755109.783 7  22651733.359                    22651743.504
 123937767.512 6  96574826.89744  23584532.070                    23584543.629
 113669115.373 8  88573391.631 7  21630512.484                    21630524.301
 128756403.228 6 100329755.059 6  24501534.547                    24501547.090
 114712516.329 8  89386482.94145  21829072.969                    21829082.777
 113697046.021 8  88595317.14245  21635819.570                    21635826.945
 11  8 26  1 52 30.0000000  0  9G10G12G05G29G26G25G15G30G02
 124436749.764 7  96963853.47243  23679504.695                    23679515.125
 112935260.442 8  88001578.300 7  21490868.094                    21490878.023
 107167412.163 7  83507167.934 8  20393251.367                    20393260.238
 118953249.079 7  92690900.227 7  22636053.016                    22636062.434
 123843684.343 7  96501515.45543  23566628.539                    23566639.516
 113669663.190 8  88573818.503 7  21630616.313                    21630628.758
 128662602.977 6 100256664.300 6  24483684.883                    24483697.660
 114719834.480 8  89392185.38445  21830465.758                    21830475.672
 113733918.547 8  88624048.99246  21642836.680                    21642843.965
 11  8 26  1 53  0.0000000  0  9G10G12G05G29G26G25G15G30G02
 124541843.985 6  97045745.06143  23699504.180                    23699513.945
 112997070.496 7  88049741.963 7  21502630.391                    21502639.801
 107195606.920 7  83529137.889 8  20398616.766                    20398625.680
 118870920.153 7  92626747.848 7  22620385.992                    22620395.820
 123749680.162 6  96428265.56544  23548740.195                    23548751.500
 113670784.013 8  88574691.871 7  21630829.813                    21630841.852
 128568686.582 6 100183483.101 6  24465812.563                    24465825.438
 114727736.007 7  89398342.40745  21831969.172                    21831979.086
 113770873.548 8  88652845.11145  21649868.813                    21649875.742
 11  8 26  1 53 30.0000000  0  9G10G12G05G29G26G25G15G30G02
 124647080.103 7  97127747.22743  23719529.406                    23719539.910
 113059305.539 7  88098236.786 7  21514473.641                    21514482.727
 107224308.077 8  83551502.438 8  20404078.328                    20404086.949
 118788665.994 7  92562653.753 7  22604733.531                    22604743.363
 123655758.218 7  96355079.72543  23530867.258                    23530878.324
 113672476.999 8  88576011.082 7  21631152.398                    21631164.418
 128474656.466 6 100110213.275 5  24447918.500                    24447931.813
 114736219.591 7  89404952.97045  21833583.883                    21833593.605
 113807910.247 8  88681704.88346  21656917.109                    21656923.949
 11  8 26  1 54  0.0000000  0  9G10G12G05G29G26G25G15G30G02
 124752456.064 7  97209858.31443  23739582.164                    23739592.648
 113121963.569 7  88147061.214 7  21526396.867                    21526406.266
 107253514.976 8  83574261.064 8  20409636.195                    20409645.086
 118706489.201 7  92498619.927 7  22589095.820                    22589105.582
 123561922.694 7  96281961.22844  23513011.516                    23513021.793
 113674742.347 8  88577776.290 7  21631582.984                    21631595.254
 128380515.275 6 100036856.794 5  24430003.414                    24430016.098
 114745284.939 7  89412016.88445  21835308.734                    21835318.340
 113845029.372 8  88710628.88746  21663980.477                    21663987.578
 11  8 26  1 54 30.0000000  0  9G10G12G05G29G26G25G15G30G02
 124857968.776 7  97292076.00543  23759660.492                    23759670.645
 113185042.326 8  88196213.487 7  21538400.234                    21538409.602
 107283225.350 8  83597412.021 8  20415289.930                    20415298.883
 118624391.370 7  92434647.626 7  22573472.617                    22573483.191
 123468176.744 7  96208912.52744  23495171.938                    23495182.375
 113677579.156 8  88579986.795 7  21632123.008                    21632134.754
 128286265.357 6  99963415.652 5  24412068.438                    24412080.973
 114754930.735 7  89419533.09045  21837144.367                    21837154.445
 113882230.518 8  88739616.79946  21671059.609                    21671066.844
 11  8 26  1 55  0.0000000  0  9G10G12G05G29G26G25G15G30G02
 124963615.572 6  97374398.18143  23779764.516                    23779774.926
 113248538.275 7  88245690.832 7  21550482.945                    21550492.441
 107313437.412 8  83620953.895 8  20421039.211                    20421047.965
 118542374.349 7  92370738.301 7  22557865.898                    22557874.977
 123374523.881 7  96135936.37444  23477350.023                    23477360.934
 113680986.775 8  88582642.088 7  21632771.609                    21632783.566
 128191909.189 6  99889891.688 6  24394113.328                    24394125.965
 114765155.896 7  89427500.76045  21839089.742                    21839099.973
 113919513.684 7  88768668.61946  21678154.617                    21678161.559
 11  8 26  1 55 30.0000000  0  9G10G12G05G29G26G25G15G30G02
 125069393.883 6  97456822.81343  23799892.773                    23799903.938
 113312449.202 8  88295491.543 7  21562645.195                    21562654.324
 107344149.424 8  83644885.348 8  20426883.258                    20426892.430
 118460440.011 7  92306893.390 7  22542274.141                    22542283.898
 123280967.579 7  96063035.47144  23459546.477                    23459557.930
 113684964.632 8  88585741.728 7  21633528.539                    21633540.016
 128097449.340 6  99816286.940 6  24376137.781                    24376149.613
 114775959.309 7  89435919.01445  21841146.352                    21841156.246
 113956878.449 7  88797784.02645  21685264.258                    21685271.230
 11  8 26  1 56  0.0000000  0  9G10G12G05G29G26G25G15G30G02
 125175300.945 6  97539347.77943  23820046.516                    23820056.727
 113376772.459 7  88345613.547 7  21574885.195                    21574894.676
 107375359.747 8  83669205.093 8  20432822.430                    20432831.785
 118378590.316 7  92243114.480 7  22526698.813                    22526708.367
 123187511.275 7  95990212.46444  23441762.375                    23441774.129
 113689512.014 8  88589285.151 7  21634393.555                    21634405.164
 128002888.668 6  99742603.600 6  24358143.516                    24358155.426
 114787339.781 7  89444786.93045  21843311.531                    21843321.543
 113994324.941 7  88826963.11445  21692390.469                    21692397.570
 11  8 26  1 56 30.0000000  0  9G10G12G05G29G26G25G15G30G02
 125281334.022 6  97621970.93643  23840224.195                    23840234.770
 113441506.064 7  88396055.313 7  21587204.023                    21587213.688
 107407066.673 7  83693911.802 8  20438855.844                    20438865.055
 118296827.455 7  92179403.193 7  22511139.352                    22511149.336
 123094158.701 7  95917470.28844  23423998.219                    23424009.000
 113694628.387 7  88593271.927 7  21635367.648                    21635379.398
 127908229.969 6  99668843.863 6  24340129.891                    24340142.254
 114799296.381 8  89454103.77845  21845586.867                    21845596.840
 114031852.943 7  88856205.71745  21699531.586                    21699538.891
 11  8 26  1 57  0.0000000  0  9G10G12G05G29G26G25G15G30G02
 125387490.452 6  97704690.20743  23860424.656                    23860435.711
 113506646.974 7  88446814.445 7  21599600.039                    21599609.004
 107439268.149 8  83719003.879 8  20444983.898                    20444992.746
 118215152.939 7  92115760.773 7  22495597.203                    22495606.887
 123000913.311 7  95844811.64044  23406254.086                    23406264.848
 113700313.031 8  88597701.521 7  21636449.063                    21636461.266
 127813475.445 6  99595009.511 6  24322097.648                    24322110.297
 114811827.873 8  89463868.58445  21847971.664                    21847981.063
 114069462.504 7  88885511.86845  21706688.633                    21706695.441
 11  8 26  1 57 30.0000000  0  9G10G12G05G29G26G25G15G30G02
 125493767.841 6  97787503.72843  23880648.305                    23880659.723
 113572192.017 7  88497888.501 7  21612072.578                    21612081.801
 107471962.457 8  83744479.982 8  20451205.609                    20451213.977
 118133569.092 7  92052188.992 7  22480072.063                    22480082.223
 122907778.410 7  95772239.07644  23388530.969                    23388541.688
 113706565.129 8  88602573.293 7  21637639.086                    21637650.809
 127718627.649 6  99521102.449 6  24304049.219                    24304061.441
 114824932.917 8  89474080.32445  21850465.453                    21850475.105
 114107153.617 7  88914881.56745  21713860.695                    21713868.344
 11  8 26  1 58  0.0000000  0  9G10G12G05G29G26G25G15G30G02
 125600163.584 6  97870409.47143  23900895.883                    23900905.418
 113638139.207 7  88549275.907 7  21624621.867                    21624631.516
 107505147.643 8  83770338.579 8  20457520.430                    20457528.840
 118052077.439 7  91988689.049 7  22464565.047                    22464574.457
 122814757.804 7  95699755.59044  23370829.953                    23370840.172
 113713384.056 8  88607886.731 7  21638936.391                    21638948.586
 127623689.205 6  99447124.681 6  24285982.609                    24285994.434
 114838610.424 8  89484738.13345  21853067.742                    21853077.891
 114144926.198 7  88944314.75545  21721048.406                    21721055.656
 11  8 26  1 58 30.0000000  0  9G10G12G05G29G26G25G15G30G02
 125706674.930 6  97953405.31043  23921163.344                    23921174.180
 113704485.716 7  88600974.483 7  21637247.313                    21637256.855
 107538821.964 8  83796578.321 8  20463928.172                    20463936.977
 117970679.966 7  91925262.495 7  22449075.734                    22449085.461
 122721855.031 6  95627363.91144  23353150.391                    23353161.469
 113720768.988 8  88613641.220 7  21640341.609                    21640353.254
 127528662.864 6  99373078.445 6  24267900.203                    24267911.945
 114852859.228 8  89495841.10345  21855779.734                    21855789.566
 114182780.049 7  88973811.26245  21728252.250                    21728259.133
 11  8 26  1 59  0.0000000  0  9G10G12G05G29G26G25G15G30G02
 125813299.405 6  98036489.29243  23941454.023                    23941464.313
 113771229.317 8  88652982.457 7  21649948.211                    21649957.758
 107572983.542 8  83823197.748 8  20470429.070                    20470437.535
 117889378.876 7  91861911.027 7  22433604.430                    22433613.883
 122629073.414 7  95555066.61944  23335495.125                    23335506.148
 113728719.161 8  88619836.151 7  21641854.875                    21641866.605
 127433551.282 7  99298965.762 6  24249801.172                    24249812.234
 114867677.934 8  89507388.14745  21858599.656                    21858609.242
 114220714.874 7  89003370.86445  21735470.484                    21735478.219
 11  8 26  1 59 30.0000000  0  9G10G12G05G29G26G25G15G30G02
 125920034.411 6  98119659.40043  23961765.672                    23961775.359
 113838366.617 7  88705297.227 7  21662724.172                    21662733.730
 107607630.613 8  83850195.476 8  20477022.141                    20477030.820
 117808176.093 7  91798636.179 7  22418151.898                    22418162.125
 122536416.949 7  95482866.86944  23317862.766                    23317873.492
 113737233.773 8  88626470.917 7  21643474.984                    21643486.859
 127338356.628 7  99224788.371 6  24231686.063                    24231697.750
 114883065.383 8  89519378.37845  21861527.734                    21861537.605
 114258731.211 8  89032993.98845  21742705.281                    21742712.293
 11  8 26  2  0  0.0000000  0  9G10G12G05G29G26G25G15G30G02
 126026877.197 7  98202913.49143  23982097.086                    23982107.004
 113905895.072 7  88757916.792 7  21675574.188                    21675583.543
 107642760.911 8  83877569.748 8  20483707.352                    20483715.898
 117727073.456 7  91735439.338 7  22402718.742                    22402728.438
 122443888.892 7  95410767.17444  23300255.297                    23300266.234
 113746311.835 8  88633544.717 7  21645202.680                    21645214.574
 127243081.750 6  99150548.384 6  24213555.109                    24213566.609
 114899020.114 8  89531810.63645  21864563.570                    21864573.445
 114296828.831 7  89062680.44946  21749954.914                    21749961.938
 11  8 26  2  0 30.0000000  0  9G10G12G05G29G26G25G15G30G02
 126133825.282 7  98286249.65343  24002448.305                    24002458.270
 113973812.119 7  88810839.155 7  21688498.180                    21688507.813
 107678372.783 8  83905319.271 8  20490484.164                    20490492.930
 117646073.002 7  91672322.154 7  22387304.953                    22387314.438
 122351492.686 7  95338770.21044  23282672.961                    23282683.738
 113755952.601 8  88641056.988 7  21647037.539                    21647049.137
 127147729.460 6  99076248.081 6  24195410.133                    24195421.727
 114915540.891 8  89544683.96445  21867707.148                    21867717.641
 114335007.629 7  89092430.16745  21757219.641                    21757227.578
 11  8 26  2  1  0.0000000  0  9G10G12G05G29G26G25G15G30G02
 126240876.156 7  98369665.89943  24022818.922                    24022829.656
 114042115.253 7  88864062.356 7  21701496.234                    21701505.891
 107714464.560 8  83933442.749 8  20497351.602                    20497360.609
 117565176.861 7  91609286.213 7  22371910.898                    22371920.719
 122259232.305 7  95266879.08444  23265115.984                    23265127.109
 113766155.304 8  88649007.147 7  21648978.703                    21648990.309
 127052302.509 6  99001889.645 6  24177250.516                    24177262.531
 114932626.475 8  89557997.38345  21870959.047                    21870969.063
 114373267.700 7  89122243.20745  21764500.523                    21764507.492
 11  8 26  2  1 30.0000000  0  9G10G12G05G29G26G25G15G30G02
 126348027.179 6  98453160.18443  24043208.633                    24043219.246
 114110801.341 7  88917583.971 7  21714566.289                    21714576.102
 107751033.819 7  83961938.288 8  20504310.648                    20504319.691
 117484386.882 7  91546333.000 7  22356537.102                    22356546.500
 122167111.038 6  95195096.34644  23247586.313                    23247596.832
 113776918.803 8  88657394.273 7  21651026.680                    21651038.688
 126956803.475 7  98927475.023 6  24159078.023                    24159089.477
 114950275.191 8  89571749.62145  21874317.289                    21874326.922
 114411608.727 7  89152119.32645  21771796.422                    21771803.980
 11  8 26  2  2  0.0000000  0  9G10G12G05G29G26G25G15G30G02
 126455275.851 6  98536730.57443  24063618.297                    24063628.398
 114179868.043 7  88971402.166 7  21727709.570                    21727719.156
 107788078.803 8  83990804.510 8  20511360.445                    20511368.801
 117403704.806 7  91483463.867 7  22341183.258                    22341193.211
 122075132.525 7  95123424.85744  23230083.625                    23230093.367
 113788242.225 8  88666217.710 7  21653181.453                    21653193.504
 126861234.922 7  98853006.205 6  24140891.852                    24140903.066
 114968485.746 8  89585939.64645  21877782.094                    21877792.531
 114450030.777 7  89182058.59145  21779107.797                    21779115.137
 11  8 26  2  2 30.0000000  0  9G10G12G05G29G26G25G15G30G02
 126562619.634 6  98620375.06343  24084044.031                    24084054.980
 114249312.347 7  89025514.592 7  21740924.164                    21740934.020
 107825597.750 8  84020040.061 8  20518500.047                    20518508.277
 117323133.361 7  91420680.946 7  22325851.789                    22325861.188
 121983300.531 7  95051867.51844  23212608.625                    23212618.297
 113800124.692 8  88675476.768 7  21655442.898                    21655454.867
 126765599.814 6  98778485.515 6  24122692.539                    24122703.922
 114987256.855 8  89600566.46945  21881354.461                    21881364.547
 114488534.075 7  89212061.16145  21786435.156                    21786442.309
 11  8 26  2  3  0.0000000  0  9G10G12G05G29G26G25G15G30G02
 126670055.886 6  98704091.60442  24104488.773                    24104499.766
 114319131.403 7  89079919.031 7  21754210.602                    21754220.359
 107863588.446 8  84049643.215 8  20525729.492                    20525737.859
 117242674.149 7  91357985.473 7  22310540.242                    22310550.105
 121891618.489 7  94980427.05044  23195161.430                    23195172.117
 113812565.041 8  88685170.542 7  21657810.328                    21657822.023
 126669900.566 7  98703914.840 6  24104482.039                    24104492.953
 115006586.859 8  89615628.80645  21885032.914                    21885042.910
 114527118.422 7  89242126.88545  21793777.289                    21793784.621
 11  8 26  2  3 30.0000000  0  9G10G12G05G29G26G25G15G30G02
 126777582.366 6  98787878.44543  24124951.086                    24124961.148
 114389323.111 7  89134613.853 7  21767567.266                    21767577.191
 107902049.178 8  84079612.618 8  20533047.703                    20533056.840
 117162329.134 7  91295378.985 7  22295251.117                    22295260.703
 121800090.103 7  94909106.30044  23177744.148                    23177754.680
 113825562.461 8  88695298.400 7  21660283.492                    21660295.555
 126574140.021 7  98629296.440 6  24086258.719                    24086270.215
 115026474.439 8  89631125.59745  21888817.320                    21888827.352
 114565784.153 7  89272256.02345  21801135.453                    21801142.723
 11  8 26  2  4  0.0000000  0  9G10G12G05G29G26G25G15G30G02
 126885196.432 6  98871733.54742  24145429.297                    24145439.688
 114459883.896 7  89189596.266 7  21780994.953                    21781004.449
 107940977.591 8  84109946.461 8  20540456.008                    20540464.621
 117082100.549 7  91232863.221 7  22279984.188                    22279993.965
 121708718.810 7  94837907.97844  23160356.477                    23160367.637
 113839115.728 8  88705859.372 7  21662863.000                    21662874.379
 126478320.787 7  98554632.275 6  24068025.078                    24068036.293
 115046917.962 7  89647055.60845  21892707.531                    21892717.555
 114604531.023 7  89302448.38045  21808508.672                    21808516.070
 11  8 26  2  4 30.0000000  0  9G10G12G05G29G26G25G15G30G02
 126992895.058 6  98955654.55143  24165923.219                    24165934.156
 114530811.022 7  89244864.160 7  21794491.922                    21794501.762
 107980371.447 8  84140642.973 8  20547952.523                    20547961.121
 117001990.313 7  91170439.679 7  22264739.859                    22264749.488
 121617508.358 7  94766834.95144  23143000.008                    23143010.527
 113853223.626 8  88716852.541 7  21665547.367                    21665558.965
 126382445.561 6  98479924.480 6  24049780.234                    24049791.496
 115067915.685 8  89663417.45745  21896703.664                    21896713.645
 114643358.788 7  89332703.78145  21815897.398                    21815904.527
 11  8 26  2  5  0.0000000  0  9G10G12G05G29G26G25G15G30G02
 127100676.294 6  99039639.87443  24186433.039                    24186444.184
 114602101.786 7  89300415.399 7  21808058.141                    21808067.402
 108020228.752 8  84171700.628 8  20555537.016                    20555545.730
 116922000.473 7  91108109.935 7  22249518.016                    22249528.027
 121526462.108 7  94695889.89944  23125674.211                    23125684.074
 113867885.171 8  88728277.119 7  21668337.445                    21668349.461
 126286516.952 6  98405175.093 6  24031525.406                    24031536.672
 115089466.178 8  89680210.04045  21900804.164                    21900814.125
 114682267.551 7  89363022.29745  21823301.117                    21823308.469
 11  8 26  2  5 30.0000000  0  9G10G12G05G29G26G25G15G30G02
 127208537.669 6  99123687.68043  24206959.078                    24206969.438
 114673753.495 7  89356247.890 7  21821692.883                    21821702.598
 108060547.860 8  84203118.123 8  20563209.609                    20563217.805
 116842133.512 7  91045875.966 7  22234319.797                    22234329.844
 121435583.644 7  94625075.58244  23108380.625                    23108391.223
 113883099.171 8  88740132.183 7  21671232.516                    21671244.359
 126190537.655 6  98330386.210 6  24013261.047                    24013272.176
 115111567.875 8  89697432.13345  21905010.352                    21905020.422
 114721257.579 7  89393404.13245  21830720.617                    21830727.945
 11  8 26  2  6  0.0000000  0  9G10G12G05G29G26G25G15G30G02
 127316476.665 6  99207795.98143  24227498.805                    24227509.520
 114745763.531 7  89412359.606 7  21835395.672                    21835405.563
 108101326.821 8  84234893.940 8  20570969.328                    20570978.184
 116762391.098 7  90983739.040 7  22219145.828                    22219155.133
 121344877.051 7  94554395.17144  23091119.547                    23091130.379
 113898864.906 8  88752417.164 7  21674232.570                    21674244.199
 126094511.058 7  98255560.439 6  23994988.125                    23994999.086
 115134219.497 8  89715082.73145  21909320.609                    21909331.004
 114760329.311 7  89423849.62245  21838155.867                    21838163.480
 11  8 26  2  6 30.0000000  0  9G10G12G05G29G26G25G15G30G02
 127424490.541 6  99291962.61543  24248053.602                    24248064.148
 114818128.969 7  89468748.255 7  21849166.484                    21849176.145
 108142563.238 8  84267026.222 8  20578816.273                    20578824.906
 116682775.359 7  90921700.824 7  22203995.375                    22204004.945
 121254345.757 7  94483851.40444  23073892.117                    23073902.656
 113915180.913 8  88765130.930 7  21677337.523                    21677349.430
 125998439.426 6  98180699.609 6  23976705.789                    23976717.336
 115157419.095 7  89733160.33845  21913735.664                    21913745.738
 114799482.232 8  89454358.38845  21845606.844                    21845613.805
 11  8 26  2  7  0.0000000  0  9G10G12G05G29G26G25G15G30G02
 127532577.095 6  99376185.89843  24268622.078                    24268632.867
 114890846.761 7  89525411.462 7  21863004.461                    21863013.703
 108184254.811 8  84299513.173 8  20586750.008                    20586758.566
 116603288.084 7  90859762.714 7  22188869.500                    22188878.984
 121163993.462 7  94413447.07044  23056698.266                    23056708.809
 113932045.921 8  88778272.489 7  21680546.422                    21680558.504
 125902325.317 6  98105805.672 6  23958415.641                    23958426.691
 115181164.989 8  89751663.62745  21918254.398                    21918263.879
 114838716.314 7  89484930.38645  21853072.492                    21853079.727
 11  8 26  2  7 30.0000000  0  9G10G12G05G29G26G25G15G30G02
 127640733.967 6  99460463.93343  24289203.289                    24289213.918
 114963914.542 7  89582347.389 7  21876908.461                    21876918.160
 108226400.071 8  84332353.642 8  20594770.016                    20594778.656
 116523931.870 7  90797926.742 7  22173768.305                    22173778.039
 121073823.905 7  94343185.16144  23039540.047                    23039550.328
 113949458.952 8  88791841.080 7  21683860.070                    21683872.223
 125806171.970 7  98030881.104 6  23940118.875                    23940129.281
 115205455.738 8  89770591.47945  21922876.602                    21922886.492
 114878032.142 7  89515566.09045  21860554.000                    21860561.230
 11  8 26  2  8  0.0000000  0  9G10G12G05G29G26G25G15G30G02
 127748958.348 6  99544794.61143  24309797.734                    24309808.406
 115037328.702 8  89639553.242 7  21890878.422                    21890888.133
 108268996.130 8  84365545.385 8  20602875.984                    20602884.301
 116444708.614 7  90736194.361 7  22158692.789                    22158702.320
 120983840.342 7  94273068.15444  23022416.063                    23022427.039
 113967418.301 8  88805835.376 7  21687278.047                    21687289.949
 125709981.664 6  97955927.754 6  23921813.344                    23921824.863
 115230289.207 8  89789942.23245  21927602.203                    21927611.938
 114917429.104 7  89546265.00245  21868050.781                    21868058.191
 11  8 26  2  8 30.0000000  0  9G10G12G05G29G26G25G15G30G02
 127857247.868 6  99629176.04443  24330404.297                    24330415.746
 115111086.742 7  89697027.028 7  21904914.633                    21904924.172
 108312041.142 8  84399086.970 8  20611066.859                    20611075.668
 116365620.308 7  90674567.145 7  22143642.813                    22143652.254
 120894046.471 7  94203098.98144  23005329.398                    23005339.945
 113985922.917 8  88820254.557 7  21690799.008                    21690810.969
 125613757.402 7  97880947.977 6  23903502.992                    23903513.828
 115255663.799 7  89809714.63445  21932430.953                    21932440.824
 114956907.822 7  89577027.62145  21875563.906                    21875571.156
 11  8 26  2  9  0.0000000  0  9G10G12G05G29G26G25G15G30G02
 127965600.332 6  99713606.50643  24351023.523                    24351033.836
 115185185.882 8  89754766.612 7  21919015.453                    21919024.820
 108355533.377 8  84432977.028 8  20619342.922                    20619351.957
 116286669.531 7  90613047.091 7  22128618.461                    22128627.996
 120804446.338 7  94133280.75844  22988279.422                    22988288.848
 114004971.805 8  88835097.839 7  21694424.188                    21694435.863
 125517501.968 7  97805943.819 6  23885186.563                    23885197.180
 115281578.165 7  89829907.65245  21937362.211                    21937372.223
 114996468.454 8  89607854.07245  21883091.758                    21883099.262
 11  8 26  2  9 30.0000000  0  9G10G12G05G29G26G25G15G30G02
 128074013.413 6  99798084.21243  24371653.469                    24371664.027
 115259623.180 8  89812769.701 7  21933180.281                    21933189.477
 108399470.593 8  84467213.833 8  20627703.914                    20627712.680
 116207858.032 7  90551635.566 7  22113621.492                    22113630.652
 120715043.115 7  94063616.00044  22971265.594                    22971276.156
 114024563.361 8  88850364.002 7  21698152.094                    21698163.945
 125421218.315 6  97730917.743 6  23866863.141                    23866874.957
 115308030.162 8  89850519.59145  21942395.906                    21942405.930
 115036110.807 7  89638744.20045  21890635.789                    21890643.488
 11  8 26  2 10  0.0000000  0  9G10G12G05G29G26G25G15G30G02
 128182484.595 6  99882607.17343  24392295.078                    24392305.613
 115334396.110 8  89871034.330 7  21947408.961                    21947418.238
 108443850.738 8  84501795.769 8  20636149.828                    20636157.949
 116129188.128 7  90490334.387 7  22098650.672                    22098660.199
 120625841.169 7  93994108.06744  22954291.234                    22954300.977
 114044696.485 8  88866052.149 7  21701983.305                    21701995.320
 125324909.282 6  97655871.857 6  23848536.672                    23848547.047
 115335018.235 7  89871549.26345  21947531.484                    21947541.355
 115075835.261 7  89669698.30745  21898195.242                    21898202.172
 11  8 26  2 10 30.0000000  0  9G10G12G05G29G26G25G15G30G02
 128291011.280 5  99967173.41843  24412946.664                    24412957.887
 115409501.384 8  89929557.903 7  21961701.023                    21961710.484
 108488671.141 8  84536720.779 8  20644678.500                    20644687.207
 116050661.751 7  90429145.026 7  22083707.648                    22083716.988
 120536843.383 7  93924759.21144  22937355.531                    22937364.961
 114065369.531 8  88882161.017 7  21705916.953                    21705929.336
 125228577.539 6  97580808.283 6  23830204.961                    23830215.816
 115362540.406 7  89892995.10445  21952768.359                    21952778.914
 115115641.559 7  89700716.17845  21905769.695                    21905776.859
 11  8 26  2 11  0.0000000  0  9G10G12G05G29G26G25G15G30G02
 128399591.095 5 100051781.02643  24433609.070                    24433619.828
 115484935.628 8  89988337.842 7  21976055.688                    21976064.855
 108533929.185 8  84571986.799 8  20653290.906                    20653299.344
 115972280.878 7  90368069.064 7  22068792.305                    22068801.883
 120448053.237 7  93855572.14844  22920459.516                    22920469.309
 114086580.760 8  88898689.250 7  21709953.844                    21709965.559
 125132225.301 6  97505728.746 6  23811869.953                    23811880.875
 115390594.318 7  89914855.30245  21958107.109                    21958117.355
 115155529.535 7  89731797.70645  21913360.250                    21913367.492
 11  8 26  2 11 30.0000000  0  9G10G12G05G29G26G25G15G30G02
 128508221.914 5 100136428.37142  24454281.094                    24454292.328
 115560696.549 7  90047372.324 7  21990472.492                    21990482.238
 108579624.026 8  84607593.186 8  20661986.016                    20661994.664
 115894048.341 7  90307108.684 7  22053904.969                    22053914.758
 120359475.094 7  93786550.29344  22903603.063                    22903613.520
 114108329.583 8  88915636.390 7  21714092.461                    21714104.398
 125035856.456 6  97430636.256 6  23793531.031                    23793542.109
 115419179.058 7  89937129.12745  21963546.359                    21963557.086
 115195500.055 8  89762943.54945  21920966.625                    21920973.680
 11  8 26  2 12  0.0000000  0  9G10G12G05G29G26G25G15G30G02
 128616901.316 6 100221113.61842  24474961.805                    24474973.340
 115636781.495 8  90106659.287 7  22004951.086                    22004960.770
 108625752.977 8  84643537.827 8  20670764.273                    20670772.953
 115815966.031 7  90246265.356 7  22039046.789                    22039056.328
 120271112.482 7  93717696.38644  22886788.320                    22886798.762
 114130614.344 8  88933001.142 7  21718333.281                    21718344.855
 124939473.506 7  97355532.776 6  23775189.969                    23775200.656
 115448292.457 7  89959814.90345  21969086.906                    21969096.863
 115235553.113 7  89794153.71045  21928587.602                    21928595.445
 11  8 26  2 12 30.0000000  0  9G10G12G05G29G26G25G15G30G02
 128725626.939 6 100305834.91242  24495651.617                    24495662.457
 115713187.229 8  90166196.215 7  22019490.805                    22019500.406
 108672313.751 8  84679818.968 8  20679624.484                    20679633.391
 115738035.942 8  90185540.663 7  22024216.867                    22024226.410
 120182969.085 7  93649013.27344  22870015.383                    22870025.762
 114153433.396 8  88950782.237 7  21722675.234                    21722687.305
 124843079.066 6  97280420.341 6  23756846.891                    23756857.684
 115477932.447 7  89982911.01245  21974726.984                    21974736.699
 115275688.902 8  89825428.33245  21936225.969                    21936232.984
 11  8 26  2 13  0.0000000  0  9G10G12G05G29G26G25G15G30G02
 128834396.258 6 100390590.27842  24516350.297                    24516360.625
 115789910.585 8  90225980.643 7  22034090.703                    22034099.887
 108719303.810 8  84716434.609 8  20688566.297                    20688575.262
 115660260.269 7  90124936.264 7  22009416.734                    22009426.250
 120095048.334 7  93580503.66244  22853284.297                    22853294.734
 114176785.243 8  88968978.489 7  21727119.367                    21727130.961
 124746675.951 7  97205301.128 6  23738501.922                    23738512.344
 115508097.053 7  90006415.91845  21980467.250                    21980476.965
 115315907.208 8  89856767.26245  21943878.984                    21943886.113
 11  8 26  2 13 30.0000000  0  9G10G12G05G29G26G25G15G30G02
 128943207.133 6 100475377.91942  24537055.625                    24537066.523
 115866948.701 8  90286010.331 7  22048750.523                    22048759.805
 108766721.256 8  84753383.288 8  20697589.453                    20697598.266
 115582641.397 7  90064454.078 7  21994646.148                    21994656.074
 120007354.079 7  93512170.52744  22836597.070                    22836606.441
 114200668.408 8  88987588.765 7  21731663.805                    21731675.934
 124650267.238 6  97130177.602 6  23720156.125                    23720166.211
 115538784.391 7  90030328.12845  21986306.266                    21986316.648
 115356208.023 7  89888170.49145  21951548.078                    21951555.340
 11  8 26  2 14  0.0000000  0  9G10G12G05G29G26G25G15G30G02
 129052057.116 6 100560196.14142  24557768.828                    24557779.621
 115944298.706 8  90346283.068 7  22063469.656                    22063479.422
 108814563.825 8  84790663.223 8  20706693.836                    20706702.270
 115505181.350 7  90004095.639 7  21979905.852                    21979915.633
 119919889.910 7  93444016.70544  22819953.125                    22819963.008
 114225081.445 8  89006611.911 7  21736309.539                    21736321.590
 124553855.796 7  97055051.916 6  23701809.016                    23701819.652
 115569992.532 7  90054646.17645  21992245.602                    21992255.742
 115396591.874 7  89919638.41345  21959232.984                    21959239.926
 11  8 26  2 14 30.0000000  0  9G10G12G05G29G26G25G15G30G02
 129160943.986 6 100645043.04943  24578489.703                    24578500.758
 116021957.632 8  90406796.499 7  22078247.359                    22078257.031
 108862829.218 8  84828272.637 8  20715878.242                    20715886.703
 115427882.325 8  89943862.677 7  21965196.438                    21965206.172
 119832659.456 7  93376044.96744  22803353.883                    22803363.527
 114250022.653 8  89026046.629 7  21741055.469                    21741067.375
 124457444.308 6  96979926.200 6  23683462.438                    23683473.023
 115601719.322 7  90079368.35245  21998283.117                    21998293.082
 115437058.746 8  89951171.04045  21966933.305                    21966940.691
 11  8 26  2 15  0.0000000  0  8G12G05G29G26G25G15G30G02
 116099926.077 8  90467551.133 7  22093084.234                    22093094.672
 108911518.452 8  84866212.312 8  20725143.508                    20725151.816
 115350750.006 8  89883759.611 7  21950518.688                    21950528.305
 119745669.615 7  93308260.72044  22786799.695                    22786809.961
 114275493.876 8  89045894.331 7  21745902.758                    21745914.414
 124361039.135 6  96904805.389 6  23665117.164                    23665127.430
 115633966.189 7  90104495.78445  22004419.320                    22004429.328
 115477612.064 7  89982771.03345  21974650.406                    21974657.148
 11  8 26  2 15 30.0000000  0  8G12G05G29G26G25G15G30G02
 116178197.116 8  90528541.552 7  22107979.070                    22107989.059
 108960625.281 8  84904477.389 8  20734488.211                    20734496.887
 115273782.439 8  89823784.924 7  21935872.273                    21935881.586
 119658920.306 7  93240663.92444  22770291.586                    22770301.883
 114301489.646 8  89066150.787 7  21750849.375                    21750861.262
 124264639.396 6  96829688.829 6  23646772.422                    23646783.031
 115666727.217 7  90130023.85445  22010653.352                    22010663.695
 115518248.470 7  90014435.77045  21982383.313                    21982390.551
 11  8 26  2 16  0.0000000  0  8G12G05G29G26G25G15G30G02
 116256767.989 8  90589765.604 7  22122930.547                    22122940.262
 109010147.791 8  84943066.377 7  20743911.906                    20743920.652
 115196982.228 8  89763940.630 7  21921257.477                    21921266.918
 119572415.504 7  93173257.62244  22753830.500                    22753840.574
 114328008.500 8  89086814.839 7  21755895.680                    21755907.867
 124168247.907 7  96754578.690 6  23628429.703                    23628440.098
 115700000.452 7  90155951.05145  22016985.188                    22016995.727
 115558968.189 7  90046165.43445  21990132.141                    21990139.473
 11  8 26  2 16 30.0000000  0  9G21G12G05G29G26G25G15G30G02
 132345599.12016 103126506.51252  25184535.656                    25184546.480
 116335635.666 7  90651220.946 7  22137938.406                    22137948.082
 109060084.346 8  84981977.996 7  20753414.758                    20753423.023
 115120352.032 7  89704228.849 7  21906675.219                    21906685.000
 119486159.030 7  93106044.84144  22737416.625                    22737426.578
 114355049.214 8  89107885.520 7  21761041.352                    21761053.164
 124071867.934 6  96679477.522 6  23610089.703                    23610099.934
 115733784.308 7  90182276.12345  22023413.938                    22023423.965
 115599771.654 7  90077960.35945  21997896.844                    21997904.301
 11  8 26  2 17  0.0000000  0  9G21G12G05G29G26G25G15G30G02
 132290074.792 6 103083240.93943  25173970.594                    25173980.832
 116414797.352 8  90712905.373 7  22153002.594                    22153012.508
 109110431.757 8  85021209.755 7  20762995.500                    20763003.797
 115043893.555 8  89644650.850 7  21892125.789                    21892135.168
 119400154.357 7  93039028.25344  22721050.328                    22721059.586
 114382609.631 8  89129361.159 7  21766285.789                    21766297.859
 123975502.004 6  96604387.295 6  23591751.602                    23591761.539
 115768076.161 7  90208997.04245  22029939.164                    22029949.668
 115640658.603 8  90109820.34745  22005677.156                    22005684.238
 11  8 26  2 17 30.0000000  0  9G21G12G05G29G26G25G15G30G02
 132234550.734 6 103039975.55542  25163403.031                    25163415.066
 116494249.329 7  90774816.005 7  22168122.000                    22168131.406
 109161187.895 8  85060760.015 7  20772654.023                    20772662.469
 114967609.101 8  89585208.466 7  21877609.211                    21877618.703
 119314404.935 7  92972210.57244  22704732.695                    22704742.141
 114410688.038 8  89151240.436 7  21771629.102                    21771641.195
 123879153.057 6  96529310.301 6  23573417.570                    23573427.246
 115802873.914 7  90236112.16945  22036561.344                    22036571.063
 115681629.272 7  90141745.55445  22013473.609                    22013480.957
 11  8 26  2 18  0.0000000  0  9G21G12G05G29G26G25G15G30G02
 132179027.177 6 102996710.60843  25152838.695                    25152849.570
 116573989.212 7  90836950.980 7  22183295.813                    22183305.473
 109212350.839 8  85100627.260 8  20782389.945                    20782398.453
 114891501.364 8  89525903.778 7  21863126.305                    21863135.578
 119228914.927 7  92905595.03644  22688464.484                    22688474.203
 114439283.161 8  89173522.357 7  21777070.695                    21777082.637
 123782824.472 6  96454249.151 6  23555085.953                    23555096.469
 115838175.848 7  90263620.17045  22043279.109                    22043289.406
 115722683.934 7  90173736.23445  22021286.016                    22021293.309
 11  8 26  2 18 30.0000000  0  9G21G12G05G29G26G25G15G30G02
 132123503.368 6 102953445.41643  25142272.328                    25142282.961
 116654014.378 7  90899308.253 7  22198523.938                    22198533.625
 109263918.358 8  85140809.755 7  20792202.969                    20792211.434
 114815572.311 8  89466738.329 7  21848677.445                    21848687.012
 119143687.826 7  92839184.36044  22672246.289                    22672256.430
 114468393.292 8  89196205.570 7  21782610.188                    21782621.969
 123686519.259 7  96379206.226 6  23536760.109                    23536770.375
 115873979.820 7  90291519.36545  22050092.719                    22050102.559
 115763823.138 8  90205792.77345  22029114.477                    22029121.734
 11  8 26  2 19  0.0000000  0  9G21G12G05G29G26G25G15G30G02
 132067978.240 6 102910179.17542  25131705.820                    25131716.629
 116734320.987 7  90961884.840 7  22213805.625                    22213815.684
 109315887.031 8  85181304.839 7  20802092.000                    20802100.746
 114739823.768 8  89407713.531 7  21834263.430                    21834272.508
 119058727.079 7  92772981.24044  22656078.820                    22656088.723
 114498015.993 8  89219288.196 7  21788247.047                    21788259.359
 123590239.408 6  96304183.076 6  23518438.398                    23518448.750
 115910282.924 8  90319807.49145  22057000.797                    22057010.781
 115805046.627 7  90237914.99745  22036958.930                    22036966.441
 11  8 26  2 19 30.0000000  0  9G21G12G05G29G26G25G15G30G02
 132012451.760 6 102866911.92443  25121138.883                    25121150.965
 116814906.740 7  91024678.929 7  22229141.039                    22229150.563
 109368255.735 8  85222111.633 7  20812057.758                    20812066.266
 114664258.514 8  89348831.568 7  21819883.016                    21819892.641
 118974036.679 7  92706988.77445  22639962.875                    22639972.332
 114528150.159 8  89242769.368 7  21793981.547                    21793993.688
 123493988.504 7  96229182.441 6  23500122.133                    23500132.902
 115947083.626 7  90348483.36145  22064003.578                    22064013.469
 115846355.098 7  90270103.44145  22044820.031                    22044826.902
 11  8 26  2 20  0.0000000  0  9G21G12G05G29G26G25G15G30G02
 131956923.572 6 102823643.35743  25110573.234                    25110583.855
 116895768.981 7  91087688.482 7  22244528.172                    22244538.066
 109421022.712 8  85263228.772 7  20822098.727                    20822107.473
 114588879.334 8  89290094.572 7  21805539.172                    21805548.703
 118889620.748 7  92641210.16845  22623898.977                    22623908.609
 114558794.429 8  89266648.017 7  21799812.906                    21799824.359
 123397770.045 7  96154207.098 6  23481812.742                    23481822.750
 115984380.158 7  90377545.60145  22071100.898                    22071111.031
 115887749.140 7  90302358.56745  22052697.477                    22052704.117
 11  8 26  2 20 30.0000000  0  9G21G12G05G29G26G25G15G30G02
 131901392.731 6 102780372.70943  25100005.672                    25100016.238
 116976903.930 7  91150910.531 7  22259967.375                    22259977.602
 109474184.805 8  85304653.786 7  20832215.031                    20832223.586
 114513687.937 8  89231503.908 7  21791230.969                    21791239.699
 118805482.467 7  92575647.93344  22607887.641                    22607897.453
 114589946.392 8  89290922.292 7  21805740.703                    21805752.973
 123301586.421 7  96079258.936 6  23463509.023                    23463519.461
 116022169.694 7  90406991.99945  22078291.883                    22078302.297
 115929228.444 7  90334680.12345  22060590.164                    22060597.270
 11  8 26  2 21  0.0000000  0  9G21G12G05G29G26G25G15G30G02
 131845858.840 6 102737099.71943  25089437.711                    25089448.855
 117058309.232 7  91214343.225 7  22275458.914                    22275468.500
 109527740.122 8  85346385.215 7  20842406.531                    20842415.086
 114438687.208 8  89173061.804 7  21776958.641                    21776967.969
 118721625.936 7  92510305.22945  22591929.984                    22591940.750
 114621604.668 8  89315591.081 7  21811765.266                    21811777.176
 123205441.261 7  96004340.730 6  23445213.695                    23445224.199
 116060450.467 7  90436821.17345  22085576.477                    22085586.273
 115970793.429 7  90367068.43545  22068499.734                    22068506.828
 11  8 26  2 21 30.0000000  0  9G21G12G05G29G26G25G15G30G02
 131790320.706 6 102693823.41543  25078868.930                    25078880.023
 117139981.254 7  91277983.761 7  22291000.555                    22291010.344
 109581685.507 8  85388420.596 7  20852671.859                    20852680.477
 114363878.642 8  89114769.447 7  21762723.070                    21762732.074
 118638054.317 7  92445184.56145  22576026.664                    22576037.184
 114653766.891 8  89340652.572 7  21817885.531                    21817897.348
 123109336.617 7  95929454.071 6  23426925.016                    23426935.465
 116099219.681 7  90467030.94345  22092954.438                    22092964.137
 116012444.082 8  90399523.51545  22076425.875                    22076432.773
 11  8 26  2 22  0.0000000  0  9G21G12G05G29G26G25G15G30G02
 131734778.307 6 102650543.78843  25068299.578                    25068310.488
 117221917.457 7  91341830.139 7  22306592.422                    22306601.848
 109636018.779 8  85430758.219 7  20863011.484                    20863019.902
 114289264.739 8  89056628.779 7  21748524.438                    21748533.813
 118554771.368 7  92380288.80644  22560178.656                    22560188.504
 114686431.311 8  89366105.355 7  21824101.539                    21824113.586
 123013275.785 7  95854601.560 6  23408645.531                    23408656.063
 116138475.091 7  90497619.57245  22100424.109                    22100434.266
 116054180.715 7  90432045.58445  22084368.063                    22084375.043
 11  8 26  2 22 30.0000000  0  9G21G12G05G29G26G25G15G30G02
 131679230.921 6 102607260.29143  25057728.633                    25057740.441
 117304114.877 7  91405880.063 7  22322234.352                    22322243.133
 109690737.933 8  85473396.516 7  20873423.891                    20873432.563
 114214847.992 8  88998641.746 7  21734363.406                    21734372.688
 118471780.721 7  92315620.81845  22544385.625                    22544395.867
 114719596.247 8  89391948.177 7  21830412.656                    21830424.434
 122917261.902 7  95779785.638 6  23390374.914                    23390384.648
 116178214.664 7  90528585.46645  22107986.484                    22107996.387
 116096003.814 7  90464635.00245  22092326.430                    22092333.484
 11  8 26  2 23  0.0000000  0  9G21G12G05G29G26G25G15G30G02
 131623677.802 6 102563972.27943  25047157.625                    25047168.414
 117386569.625 7  91470130.514 7  22337924.938                    22337934.199
 109745840.112 8  85516333.292 7  20883909.430                    20883917.801
 114140630.391 7  88940809.884 7  21720239.875                    21720249.684
 118389085.990 7  92251183.43045  22528649.539                    22528659.930
 114753259.391 8  89418179.221 7  21836818.164                    21836830.461
 122821297.582 7  95705008.345 6  23372113.227                    23372123.371
 116218435.684 7  90559926.52645  22115640.172                    22115650.367
 116137913.267 7  90497291.72045  22100301.625                    22100308.340
 11  8 26  2 23 30.0000000  0  9G21G12G05G29G26G25G15G30G02
 131568118.569 6 102520679.54843  25036584.992                    25036595.711
 117469279.647 7  91534579.887 7  22353663.711                    22353673.219
 109801323.619 8  85559567.199 7  20894467.539                    20894475.945
 114066614.612 8  88883135.274 7  21706155.367                    21706164.637
 118306691.195 7  92186979.73245  22512970.086                    22512980.434
 114787419.187 8  89444797.264 7  21843318.586                    21843330.641
 122725386.377 7  95630272.422 6  23353862.039                    23353871.383
 116259136.203 7  90591641.22145  22123385.156                    22123395.289
 116179909.833 7  90530016.32845  22108293.484                    22108300.227
 11  8 26  2 24  0.0000000  0  9G21G12G05G29G26G25G15G30G02
 131512552.610 6 102477381.52943  25026011.414                    25026021.801
 117552241.311 7  91599225.320 7  22369450.883                    22369460.445
 109857185.768 8  85603096.155 7  20905097.703                    20905106.113
 113992802.718 8  88825619.555 7  21692109.430                    21692118.816
 118224599.786 7  92123012.45244  22497348.984                    22497358.836
 114822073.524 8  89471800.646 7  21849913.234                    21849925.055
 122629530.963 7  95555579.974 6  23335620.391                    23335630.762
 116300313.599 7  90623727.49345  22131221.359                    22131231.277
 116221993.363 8  90562808.67345  22116301.313                    22116308.336
 11  8 26  2 24 30.0000000  0  9G21G12G05G29G26G25G15G30G02
 131456978.980 6 102434077.49443  25015435.344                    25015446.109
 117635451.575 7  91664064.487 7  22385285.125                    22385295.156
 109913424.186 8  85646918.297 7  20915799.570                    20915807.875
 113919197.451 8  88768264.827 7  21678103.039                    21678112.211
 118142815.508 7  92059284.48945  22481785.672                    22481795.973
 114857220.505 8  89499187.921 7  21856601.406                    21856613.262
 122533734.310 7  95480933.343 6  23317391.281                    23317401.477
 116341965.671 7  90656183.65145  22139147.641                    22139157.352
 116264164.473 7  90595669.27545  22124326.148                    22124333.027
 11  8 26  2 25  0.0000000  0  9G21G12G05G29G26G25G15G30G02
 131401397.503 6 102390767.35543  25004859.094                    25004868.645
 117718907.844 7  91729095.322 7  22401166.320                    22401175.750
 109970036.555 8  85691031.836 7  20926572.594                    20926581.328
 113845800.780 8  88711072.651 7  21664135.859                    21664145.137
 118061342.079 7  91995798.75345  22466281.852                    22466292.371
 114892858.286 8  89526957.642 7  21863382.664                    21863394.867
 122437999.622 7  95406334.959 6  23299173.789                    23299183.445
 116384090.116 7  90689007.90545  22147163.125                    22147173.395
 116306423.291 7  90628598.21345  22132367.867                    22132375.020
 11  8 26  2 25 30.0000000  0  9G21G12G05G29G26G25G15G30G02
 131345807.355 6 102347450.46043  24994279.398                    24994290.484
 117802606.553 7  91794315.088 7  22417093.867                    22417103.480
 110027020.278 8  85735434.739 7  20937416.453                    20937424.563
 113772614.842 8  88654044.687 7  21650209.102                    21650218.320
 117980182.970 7  91932557.93744  22450837.828                    22450848.352
 114928984.477 8  89555107.927 7  21870257.438                    21870269.711
 122342329.643 7  95331786.980 6  23280968.109                    23280978.035
 116426684.229 7  90722198.13045  22155267.820                    22155278.703
 116348770.040 7  90661595.66445  22140426.094                    22140433.223
 11  8 26  2 26  0.0000000  0  9G21G12G05G29G26G25G15G30G02
 131290208.414 6 102304126.75842  24983699.188                    24983710.402
 117886545.188 7  91859721.801 7  22433066.750                    22433076.164
 110084373.370 8  85780125.468 7  20948330.211                    20948338.566
 113699642.346 8  88597183.042 7  21636322.805                    21636331.969
 117899342.129 7  91869565.10745  22435454.461                    22435464.379
 114965597.409 8  89583637.505 7  21877224.992                    21877236.523
 122246727.546 7  95257291.910 6  23262775.445                    23262785.262
 116469745.877 7  90755752.66745  22163462.633                    22163472.730
 116391205.171 7  90694661.99345  22148501.516                    22148508.691
 11  8 26  2 26 30.0000000  0  9G21G12G05G29G26G25G15G30G02
 131234599.713 5 102260795.45742  24973117.820                    24973128.070
 117970720.398 7  91925312.857 7  22449084.883                    22449094.582
 110142092.934 8  85825101.756 8  20959313.750                    20959322.426
 113626885.702 8  88540489.593 7  21622477.836                    21622486.961
 117818822.884 7  91806822.87445  22420132.219                    22420141.867
 115002694.817 8  89612544.595 7  21884283.797                    21884295.922
 122151196.306 7  95182852.063 6  23244596.422                    23244606.051
 116513272.375 7  90789669.43845  22171745.180                    22171755.602
 116433728.942 7  90727797.38845  22156593.219                    22156600.359
 11  8 26  2 27  0.0000000  0  9G21G12G05G29G26G25G15G30G02
 131178980.998 6 102217456.31743  24962533.266                    24962544.391
 118055129.637 7  91991086.289 7  22465147.625                    22465157.473
 110200177.274 8  85870362.285 7  20970366.828                    20970375.797
 113554347.192 8  88483966.127 7  21608673.914                    21608683.160
 117738629.218 7  91744334.35044  22404871.992                    22404881.516
 115040274.818 8  89641827.722 7  21891435.391                    21891447.523
 122055739.202 7  95108469.968 6  23226431.766                    23226441.039
 116557261.502 7  90823946.69445  22180116.422                    22180126.582
 116476341.786 7  90761002.19745  22164702.023                    22164709.266
 11  8 26  2 27 30.0000000  0  9G21G12G05G29G26G25G15G30G02
 131123351.375 6 102174108.73443  24951947.578                    24951958.227
 118139769.007 7  92057039.032 7  22481253.945                    22481263.715
 110258623.526 8  85915904.834 7  20981488.758                    20981497.348
 113482029.004 8  88427614.323 7  21594912.359                    21594921.535
 117658764.498 7  91682102.13745  22389674.180                    22389683.793
 115078335.245 8  89671485.209 7  21898678.125                    21898690.086
 121960359.204 7  95034147.958 6  23208281.344                    23208291.047
 116601710.732 7  90858582.46745  22188574.859                    22188584.820
 116519043.880 7  90794276.54545  22172828.508                    22172835.832
 11  8 26  2 28  0.0000000  0  9G21G12G05G29G26G25G15G30G02
 131067710.122 6 102130752.05543  24941359.719                    24941369.910
 118224635.837 7  92123169.023 7  22497403.484                    22497413.281
 110317429.076 8  85961727.348 7  20992679.328                    20992687.781
 113409933.293 8  88371435.893 7  21581192.992                    21581201.746
 117579232.260 7  91620129.02045  22374539.328                    22374549.391
 115116873.698 8  89701515.186 7  21906011.781                    21906023.816
 121865058.987 7  94959888.128 6  23190146.359                    23190156.543
 116646617.252 7  90893574.58345  22197120.500                    22197129.840
 116561835.359 7  90827620.56145  22180971.203                    22180978.320
 11  8 26  2 28 30.0000000  0  9G21G12G05G29G26G25G15G30G02
 131012056.864 6 102087385.96043  24930768.234                    24930779.324
 118309727.039 7  92189473.841 7  22513596.398                    22513605.367
 110376591.675 8  86007828.088 7  21003937.508                    21003946.262
 113338062.552 8  88315432.769 7  21567516.539                    21567525.762
 117500036.234 7  91558417.86545  22359468.609                    22359478.711
 115155888.212 8  89731916.117 7  21913435.820                    21913447.652
 121769841.755 7  94885692.944 6  23172027.648                    23172036.527
 116691978.638 7  90928921.12545  22205752.109                    22205762.207
 116604716.494 7  90861034.42845  22189130.805                    22189138.500
 11  8 26  2 29  0.0000000  0  9G21G12G05G29G26G25G15G30G02
 130956391.065 6 102044010.12843  24920176.141                    24920185.602
 118395039.549 7  92255951.121 6  22529830.047                    22529839.613
 110436108.657 8  86054204.965 7  21015263.320                    21015271.934
 113266419.214 8  88259606.826 7  21553883.195                    21553891.832
 117421179.910 7  91496971.43145  22344462.898                    22344472.559
 115195376.604 8  89762686.297 7  21920949.984                    21920962.164
 121674710.556 7  94811564.815 6  23153924.203                    23153934.039
 116737792.380 7  90964620.17545  22214470.016                    22214480.109
 116647687.514 7  90894518.34845  22197308.398                    22197315.672
 11  8 26  2 29 30.0000000  0  9G21G12G05G29G26G25G15G30G02
 130900711.954 6 102000623.90443  24909580.367                    24909590.770
 118480570.090 7  92322598.280 7  22546105.930                    22546115.535
 110495977.671 8  86100856.150 7  21026655.680                    21026664.523
 113195005.410 8  88203959.743 7  21540293.531                    21540302.645
 117342667.051 7  91435792.62245  22329522.539                    22329532.023
 115235336.624 7  89793823.981 7  21928554.539                    21928566.082
 121579668.407 7  94737506.059 6  23135838.516                    23135848.059
 116784055.803 7  91000669.61745  22223273.891                    22223284.301
 116690748.916 7  90928072.68945  22205502.445                    22205509.941
 11  8 26  2 30  0.0000000  0  9G21G12G05G29G26G25G15G30G02
 130845019.074 6 101957226.95743  24898982.547                    24898992.559
 118566315.460 7  92389412.853 7  22562422.953                    22562432.496
 110556196.323 8  86147779.781 7  21038115.164                    21038123.656
 113123823.516 8  88148493.374 7  21526748.133                    21526756.996
 117264501.050 7  91374884.09645  22314647.766                    22314657.527
 115275766.039 8  89825327.419 7  21936248.086                    21936259.633
 121484718.086 7  94663518.877 6  23117769.297                    23117779.664
 116830766.345 7  91037067.46145  22232162.820                    22232172.293
 116733901.162 7  90961697.81345  22213714.508                    22213721.637
 11  8 26  2 30 30.0000000  0  9G21G12G05G29G26G25G15G30G02
 130789312.015 6 101913818.94943  24888381.688                    24888391.996
 118652273.102 7  92456392.841 7  22578780.141                    22578789.410
 110616762.611 8  86194974.304 7  21049640.703                    21049648.941
 113052876.097 8  88093209.712 7  21513246.727                    21513256.105
 117186685.907 7  91314248.97245  22299840.141                    22299849.625
 115316662.918 8  89857195.123 7  21944030.430                    21944041.988
 121389863.003 7  94589605.877 6  23099718.680                    23099728.738
 116877921.635 7  91073811.85945  22241136.133                    22241146.168
 116777144.616 7  90995394.03245  22221943.039                    22221950.375
 11  8 26  2 31  0.0000000  0  9G21G12G05G29G26G25G15G30G02
 130733590.124 6 101870399.37442  24877777.734                    24877787.961
 118738439.628 7  92523535.577 7  22595177.133                    22595186.699
 110677673.671 8  86242437.481 7  21061231.586                    21061240.430
 112982165.659 8  88038110.701 7  21499791.109                    21499800.602
 117109224.909 7  91253889.80045  22285099.813                    22285109.117
 115358024.984 8  89889425.293 7  21951900.922                    21951913.324
 121295106.125 7  94515769.429 6  23081687.570                    23081697.156
 116925519.056 7  91110900.77645  22250193.797                    22250203.563
 116820479.570 7  91029161.52045  22230189.680                    22230197.117
 11  8 26  2 31 30.0000000  0  9G21G12G05G29G26G25G15G30G02
 130677852.766 6 101826967.74943  24867171.266                    24867181.301
 118824812.459 7  92590839.082 7  22611613.195                    22611622.570
 110738927.363 8  86290167.648 7  21072887.523                    21072896.203
 112911694.840 8  87983198.413 7  21486381.352                    21486390.086
 117032122.214 7  91193809.83345  22270427.523                    22270437.426
 115399850.331 8  89922016.475 7  21959860.125                    21959872.039
 121200451.054 7  94442012.282 6  23063675.813                    23063684.848
 116973556.359 7  91148332.44545  22259334.625                    22259344.578
 116863906.578 7  91063000.77945  22238452.836                    22238460.516
 11  8 26  2 32  0.0000000  0  9G21G12G05G29G26G25G15G30G02
 130622099.711 6 101783523.89643  24856562.164                    24856572.055
 118911388.145 7  92658300.645 6  22628087.953                    22628097.398
 110800520.854 8  86338162.576 7  21084608.727                    21084617.152
 112841465.287 8  87928474.132 7  21473016.734                    21473025.930
 116955380.780 7  91134011.35945  22255824.172                    22255834.008
 115442136.060 8  89954966.392 7  21967907.023                    21967919.051
 121105899.900 7  94368336.133 6  23045682.992                    23045692.160
 117022030.312 7  91186104.36445  22268558.727                    22268569.258
 116907425.400 7  91096911.54645  22246734.555                    22246742.250
 11  8 26  2 32 30.0000000  0  9G21G12G05G29G26G25G15G30G02
 130566329.771 6 101740066.88543  24845949.961                    24845959.176
 118998163.084 7  92725917.482 7  22644600.898                    22644610.141
 110862451.183 8  86386419.996 7  21096393.680                    21096401.926
 112771479.068 8  87873939.461 7  21459699.445                    21459707.957
 116879003.983 7  91074497.00045  22241290.070                    22241299.871
 115484879.663 8  89988273.098 7  21976040.813                    21976052.980
 121011455.915 7  94294743.493 6  23027710.375                    23027720.512
 117070937.908 7  91224214.19145  22277865.523                    22277875.820
 116951036.350 8  91130894.11045  22255033.898                    22255040.438
 11  8 26  2 33  0.0000000  0  9G21G12G05G29G26G25G15G30G02
 130510542.875 6 101696596.62743  24835333.258                    24835343.641
 119085134.846 7  92793687.686 7  22661151.000                    22661160.566
 110924717.150 8  86434938.934 7  21108242.586                    21108250.805
 112701739.751 8  87819597.174 7  21446427.656                    21446436.828
 116802996.011 7  91015270.04945  22226826.234                    22226835.656
 115528079.704 8  90021935.458 7  21984261.555                    21984273.496
 120917122.837 7  94221237.263 6  23009759.406                    23009768.871
 117120277.451 7  91262660.60045  22287255.141                    22287264.848
 116994740.489 7  91164949.29245  22263350.258                    22263357.168
 11  8 26  2 33 30.0000000  0  9G21G12G05G29G26G25G15G30G02
 130454738.436 6 101653112.73943  24824714.383                    24824724.766
 119172300.386 7  92861608.881 6  22677737.852                    22677747.539
 110987315.616 8  86483716.971 7  21120154.383                    21120162.781
 112632249.361 8  87765448.848 7  21433204.188                    21433213.180
 116727360.410 7  90956333.27145  22212433.391                    22212442.809
 115571733.595 8  90055951.481 7  21992568.836                    21992580.504
 120822903.317 7  94147819.513 6  22991830.055                    22991839.773
 117170046.015 7  91301441.31245  22296725.391                    22296735.066
 117038537.766 8  91199077.05045  22271684.602                    22271691.781
 11  8 26  2 34  0.0000000  0  9G21G12G05G29G26G25G15G30G02
 130398915.614 6 101609614.52143  24814091.133                    24814101.434
 119259656.132 7  92929678.292 7  22694361.172                    22694370.684
 111050243.827 8  86532751.950 7  21132128.961                    21132137.586
 112563009.418 8  87711495.698 7  21420028.367                    21420037.246
 116652100.133 7  90897688.93445  22198111.766                    22198121.289
 115615838.504 8  90090318.950 7  22000961.281                    22000973.430
 120728800.117 7  94074492.405 6  22973922.789                    22973932.184
 117220240.271 7  91340553.72745  22306277.031                    22306287.141
 117082428.487 7  91233277.63245  22280036.844                    22280043.770
 11  8 26  2 34 30.0000000  0  9G21G12G05G29G26G25G15G30G02
 130343074.067 6 101566101.69843  24803464.453                    24803474.809
 119347199.315 7  92997893.751 7  22711020.297                    22711029.938
 111113499.635 8  86582042.206 7  21144166.477                    21144174.609
 112494022.799 8  87657739.949 7  21406900.273                    21406909.648
 116577219.009 7  90839340.04445  22183861.867                    22183871.602
 115660392.363 8  90125036.249 7  22009439.633                    22009451.613
 120634816.613 7  94001258.559 7  22956038.031                    22956048.309
 117270857.955 7  91379996.09145  22315909.523                    22315919.164
 117126412.988 7  91267551.27245  22288406.805                    22288413.543
 11  8 26  2 35  0.0000000  0  9G21G12G05G29G26G25G15G30G02
 130287213.399 6 101522573.99743  24792834.758                    24792845.066
 119434926.941 7  93066252.925 7  22727714.344                    22727723.477
 111177080.966 8  86631586.105 7  21156265.422                    21156273.898
 112425292.136 8  87604183.619 7  21393821.398                    21393830.656
 116502721.076 7  90781289.74145  22169685.570                    22169695.109
 115705393.244 8  90160101.879 7  22018002.906                    22018015.344
 120540956.190 7  93928120.640 6  22938177.258                    22938186.688
 117321896.672 7  91419766.52445  22325621.695                    22325631.574
 117170491.964 7  91301898.53945  22296794.703                    22296801.715
 11  8 26  2 35 30.0000000  0 10G21G12G05G29G26G25G15G30G02G18
 130231332.988 6 101479030.88443  24782200.633                    24782210.766
 119522835.546 7  93134753.122 7  22744442.594                    22744452.230
 111240984.885 8  86681381.370 7  21168426.227                    21168434.426
 112356819.683 8  87550828.520 7  21380791.570                    21380800.359
 116428609.417 7  90723540.42645  22155583.094                    22155592.230
 115750838.331 8  90195513.633 7  22026651.016                    22026663.145
 120447221.689 7  93855080.821 6  22920340.008                    22920349.688
 117373353.319 7  91459862.61745  22335413.836                    22335423.602
 117214665.454 7  91336319.44945  22305200.961                    22305207.430
 129731583.07816 101089599.95552  24687100.609                    24687113.137
 11  8 26  2 36  0.0000000  0 10G21G12G05G29G26G25G15G30G02G18
 130175431.766 6 101435471.63243  24771562.711                    24771573.047
 119610921.651 7  93203391.650 7  22761205.102                    22761214.555
 111305208.140 8  86731425.481 7  21180647.141                    21180655.340
 112288607.022 8  87497675.842 7  21367810.977                    21367820.297
 116354886.729 7  90666094.21545  22141553.648                    22141563.383
 115796724.491 8  90231269.078 7  22035382.828                    22035395.086
 120353615.365 7  93782140.880 7  22902527.609                    22902537.293
 117425224.430 7  91500281.66945  22345284.289                    22345294.508
 117258933.271 7  91370813.85545  22313624.758                    22313631.652
 129642655.320 6 101020305.88542  24670178.273                    24670189.535
 11  8 26  2 36 30.0000000  0 10G21G12G05G29G26G25G15G30G02G18
 130119509.699 6 101391896.06643  24760921.211                    24760931.043
 119699182.821 7  93272166.576 7  22778000.469                    22778010.004
 111369749.365 8  86781717.350 7  21192928.672                    21192937.434
 112220657.517 8  87444728.232 7  21354880.914                    21354889.922
 116281557.423 7  90608954.52545  22127599.586                    22127608.938
 115843050.167 8  90267367.016 7  22044198.477                    22044210.141
 120260141.131 7  93709303.883 6  22884740.227                    22884748.996
 117477508.109 7  91541022.21145  22355233.109                    22355243.402
 117303296.388 7  91405382.53345  22322066.672                    22322073.594
 129553894.669 6 100951141.98642  24653287.039                    24653298.977
 11  8 26  2 37  0.0000000  0 10G21G12G05G29G26G25G15G30G02G18
 130063566.357 6 101348303.93343  24750275.578                    24750286.227
 119787615.972 7  93341075.511 6  22794828.180                    22794838.426
 111434606.241 8  86832255.180 7  21205270.742                    21205279.516
 112152973.498 8  87391987.489 7  21342000.805                    21342010.133
 116208625.290 7  90552124.31945  22113720.844                    22113730.813
 115889813.113 8  90303805.681 7  22053096.914                    22053108.691
 120166802.190 7  93636572.286 6  22866978.195                    22866987.813
 117530201.678 7  91582082.13245  22365260.844                    22365270.371
 117347755.479 7  91440026.00045  22330526.641                    22330533.816
 129465302.272 5 100882109.23842  24636427.867                    24636440.367
 11  8 26  2 37 30.0000000  0 10G21G12G05G29G26G25G15G30G02G18
 130007601.448 6 101304695.00443  24739626.406                    24739636.039
 119876218.319 7  93410116.287 7  22811689.336                    22811699.172
 111499776.264 8  86883037.020 7  21217672.070                    21217680.906
 112085557.275 8  87339455.411 7  21329171.938                    21329181.016
 116136093.809 7  90495606.31145  22099918.742                    22099928.563
 115937010.805 7  90340583.107 7  22062078.813                    22062090.336
 120073601.612 7  93563948.526 6  22849242.383                    22849252.344
 117583302.311 7  91623459.24845  22375365.289                    22375375.191
 117392310.892 7  91474744.50845  22339005.383                    22339012.508
 129376879.217 6 100813208.37742  24619601.516                    24619613.914
 11  8 26  2 38  0.0000000  0 10G21G12G05G29G26G25G15G30G02G18
 129951614.105 6 101261068.59543  24728971.547                    24728982.238
 119964986.833 7  93479286.553 7  22828581.422                    22828591.133
 111565256.671 8  86934060.718 7  21230132.781                    21230141.234
 112018411.441 8  87287134.040 7  21316394.656                    21316403.430
 116063966.302 7  90439403.09545  22086193.328                    22086203.328
 115984640.836 8  90377697.426 7  22071142.266                    22071154.465
 119980542.627 7  93491435.077 7  22831534.016                    22831543.852
 117636807.280 7  91665151.43945  22385547.109                    22385557.328
 117436963.090 7  91509538.43645  22347502.352                    22347509.672
 129288627.006 6 100744440.65842  24602806.945                    24602819.449
 11  8 26  2 38 30.0000000  0 10G21G12G05G29G26G25G15G30G02G18
 129895603.727 6 101217424.25943  24718313.438                    24718323.414
 120053918.187 7  93548583.698 7  22845504.625                    22845514.219
 111631044.874 8  86985324.265 7  21242651.969                    21242660.242
 111951538.171 8  87235025.042 7  21303668.852                    21303677.930
 115992246.278 7  90383517.39845  22072545.438                    22072554.758
 116032700.525 8  90415146.546 7  22080287.570                    22080299.344
 119887628.173 7  93419034.270 6  22813852.570                    22813862.246
 117690713.604 7  91707156.35645  22395805.336                    22395814.953
 117481712.237 7  91544407.91345  22356017.867                    22356024.656
 129200546.827 6 100675807.02142  24586046.617                    24586057.859
 11  8 26  2 39  0.0000000  0 10G21G12G05G29G26G25G15G30G02G18
 129839569.936 6 101173761.58343  24707650.031                    24707660.707
 120143008.917 7  93618005.047 6  22862457.570                    22862467.668
 111697138.250 8  87036825.605 7  21255228.688                    21255237.578
 111884939.698 8  87183130.166 7  21290995.328                    21291004.270
 115920936.952 7  90327951.71845  22058976.125                    22058985.184
 116081187.328 8  90452928.474 7  22089514.102                    22089526.387
 119794861.141 7  93346748.321 6  22796199.914                    22796209.402
 117745018.364 7  91749471.75045  22406138.805                    22406149.063
 117526558.883 7  91579353.35245  22364551.945                    22364558.848
 129112639.476 6 100607308.00443  24569318.039                    24569329.789
 11  8 26  2 39 30.0000000  0 10G21G12G05G29G26G25G15G30G02G18
 129783512.257 6 101130080.36243  24696982.953                    24696992.938
 120232256.312 7  93687548.459 6  22879441.133                    22879450.438
 111763534.853 8  87088563.224 7  21267863.844                    21267872.609
 111818618.635 8  87131451.445 7  21278375.203                    21278383.836
 115850042.093 7  90272709.00345  22045484.805                    22045494.578
 116130098.831 8  90491041.336 7  22098822.203                    22098833.539
 119702245.097 7  93274580.017 6  22778575.242                    22778584.727
 117799718.854 7  91792095.52145  22416547.914                    22416558.129
 117571503.149 7  91614374.87245  22373104.172                    22373111.273
 129024906.805 6 100538945.15042  24552622.406                    24552634.535
 11  8 26  2 40  0.0000000  0 10G21G12G05G29G26G25G15G30G02G18
 129727430.228 6 101086380.16643  24686310.938                    24686321.070
 120321657.465 7  93757211.665 7  22896453.383                    22896463.102
 111830232.085 8  87140535.098 7  21280555.820                    21280564.824
 111752577.745 8  87079991.052 7  21265807.555                    21265816.621
 115779565.328 7  90217792.10145  22032073.602                    22032083.090
 116179432.717 8  90529483.347 7  22108209.844                    22108221.566
 119609782.902 7  93202531.619 7  22760980.164                    22760989.965
 117854812.445 7  91835025.58145  22427031.609                    22427042.141
 117616545.859 7  91649473.10345  22381675.625                    22381683.039
 128937349.973 6 100470719.28943  24535960.922                    24535972.461
 11  8 26  2 40 30.0000000  0 10G21G12G05G29G26G25G15G30G02G18
 129671323.194 6 101042660.48343  24675634.422                    24675644.004
 120411209.591 7  93826992.549 6  22913494.836                    22913504.398
 111897227.304 8  87192739.170 7  21293305.000                    21293313.586
 111686818.837 8  87028750.377 7  21253294.156                    21253303.219
 115709509.680 7  90163203.32445  22018742.102                    22018751.879
 116229186.145 8  90568252.257 7  22117677.945                    22117689.059
 119517477.511 7  93130605.380 6  22743415.664                    22743424.250
 117910295.928 7  91878259.46945  22437590.203                    22437600.152
 117661687.030 7  91684648.04745  22390266.219                    22390272.996
 128849970.304 6 100402631.45543  24519333.688                    24519345.004
 11  8 26  2 41  0.0000000  0 10G21G12G05G29G26G25G15G30G02G18
 129615190.919 6 100998921.13042  24664952.141                    24664961.961
 120500908.816 7  93896888.031 6  22930564.203                    22930573.453
 111964518.272 8  87245173.694 7  21306109.727                    21306118.324
 111621344.749 8  86977731.645 7  21240834.813                    21240844.063
 115639878.989 7  90108945.68245  22005492.211                    22005501.480
 116279356.952 8  90607346.414 7  22127224.805                    22127236.652
 119425332.401 7  93058804.059 6  22725880.555                    22725890.023
 117966166.800 7  91921795.21545  22448221.961                    22448231.613
 117706927.492 7  91719900.37045  22398874.641                    22398882.285
 128762768.609 6 100334682.27243  24502739.070                    24502750.813
 11  8 26  2 41 30.0000000  0 10G21G12G05G29G26G25G15G30G02G18
 129559032.799 6 100955161.63243  24654265.602                    24654275.059
 120590752.154 7  93966895.812 6  22947660.648                    22947670.094
 112032102.624 8  87297836.836 7  21318970.516                    21318979.246
 111556157.487 8  86926936.399 7  21228429.977                    21228438.973
 115570676.379 7  90055021.61145  21992323.063                    21992332.660
 116329942.250 8  90646763.538 7  22136850.906                    22136862.527
 119333350.312 7  92987129.738 6  22708377.203                    22708386.449
 118022421.953 7  91965630.40345  22458926.969                    22458937.066
 117752267.291 7  91755230.08745  22407503.188                    22407510.426
 128675746.498 6 100266873.09143  24486178.805                    24486190.406
 11  8 26  2 42  0.0000000  0 10G21G12G05G29G26G25G15G30G02G18
 129502848.695 6 100911381.91243  24643574.484                    24643584.285
 120680737.096 7  94037013.951 6  22964784.227                    22964793.328
 112099977.784 8  87350726.577 7  21331886.594                    21331895.484
 111491260.485 8  86876367.340 7  21216080.547                    21216089.688
 115501905.694 7  90001434.10945  21979236.172                    21979245.570
 116380939.907 8  90686501.983 7  22146555.508                    22146567.199
 119241534.997 7  92915585.394 6  22690905.219                    22690914.570
 118079058.901 7  92009763.09845  22469704.555                    22469714.434
 117797707.187 7  91790637.82745  22416149.211                    22416156.453
 128588905.362 6 100199204.86543  24469654.508                    24469664.566
 11  8 26  2 42 30.0000000  0 10G21G12G05G29G26G25G15G30G02G18
 129446637.265 6 100867580.87343  24632877.539                    24632887.469
 120770859.916 7  94107239.499 6  22981933.859                    22981943.539
 112168140.495 8  87403840.380 7  21344857.750                    21344866.207
 111426654.236 7  86826024.841 7  21203786.813                    21203795.500
 115433569.492 7  89948185.16445  21966232.133                    21966241.750
 116432346.469 8  90726559.075 7  22156337.867                    22156349.215
 119149888.587 7  92844172.669 7  22673464.953                    22673474.523
 118136073.833 7  92054190.32145  22480553.742                    22480564.102
 117843247.008 7  91826123.41345  22424815.594                    22424822.918
 128502245.420 6 100131677.82642  24453162.375                    24453174.180
 11  8 26  2 43  0.0000000  0 10G21G12G05G29G26G25G15G30G02G18
 129390398.482 6 100823758.51643  24622175.578                    24622185.785
 120861118.103 7  94177570.535 6  22999109.594                    22999119.426
 112236589.039 8  87457176.915 7  21357883.055                    21357891.648
 111362342.324 8  86775911.692 7  21191548.391                    21191556.930
 115365671.810 7  89895277.92545  21953311.945                    21953320.934
 116484160.057 8  90766933.315 7  22166197.555                    22166209.070
 119058414.917 7  92772894.529 7  22656058.453                    22656067.949
 118193464.613 7  92098910.41145  22491475.391                    22491485.324
 117888887.705 7  91861687.61845  22433500.734                    22433507.594
 128415768.807 6 100064293.66543  24436707.477                    24436718.664
 11  8 26  2 43 30.0000000  0 10G21G12G05G29G26G25G15G30G02G18
 129334131.439 6 100779914.14243  24611467.602                    24611477.734
 120951507.940 7  94248004.170 6  23016310.586                    23016319.727
 112305320.412 8  87510733.840 7  21370962.500                    21370970.691
 111298326.673 8  86726029.385 7  21179366.469                    21179375.316
 115298215.452 7  89842714.57345  21940475.695                    21940484.805
 116536377.349 8  90807622.124 7  22176134.359                    22176145.516
 118967116.548 7  92701752.989 7  22638685.016                    22638694.461
 118251227.661 7  92143920.59544  22502467.461                    22502477.086
 117934629.513 7  91897330.59445  22442204.922                    22442212.109
 128329476.074 6  99997052.71043  24420285.867                    24420296.984
 11  8 26  2 44  0.0000000  0 10G21G12G05G29G26G25G15G30G02G18
 129277836.014 6 100736047.64643  24600755.578                    24600765.027
 121042026.802 7  94318538.332 6  23033535.500                    23033545.113
 112374332.703 8  87564509.653 7  21384094.680                    21384103.426
 111234610.105 7  86676380.145 7  21167241.703                    21167250.438
 115231204.202 7  89790498.05945  21927723.336                    21927733.305
 116588996.231 8  90848623.872 7  22186146.977                    22186158.801
 118875996.927 7  92630750.732 7  22621345.000                    22621354.914
 118309360.610 7  92189219.02445  22513529.344                    22513539.879
 117980473.038 7  91933052.84245  22450928.680                    22450935.867
 128243368.760 6  99929956.27143  24403899.531                    24403910.813
 11  8 26  2 44 30.0000000  0 10G21G12G05G29G26G25G15G30G02G18
 129221512.050 6 100692158.94043  24590037.781                    24590046.578
 121132671.687 7  94389170.707 6  23050784.180                    23050794.219
 112443623.175 8  87618502.230 7  21397280.258                    21397288.980
 111171195.025 7  86626965.826 7  21155174.055                    21155182.758
 115164641.549 7  89738631.10245  21915057.219                    21915066.438
 116642014.114 8  90889936.517 7  22196236.180                    22196247.578
 118785059.129 7  92559890.162 7  22604040.063                    22604049.934
 118367860.422 7  92234803.29645  22524661.703                    22524671.594
 118026418.606 7  91968854.59345  22459672.188                    22459678.992
 128157447.870 6  99863005.08943  24387549.461                    24387560.777
 11  8 26  2 45  0.0000000  0 10G21G12G05G29G26G25G15G30G02G18
 129165158.835 6 100648247.43043  24579313.625                    24579323.449
 121223439.559 7  94459898.902 6  23068057.352                    23068066.684
 112513189.764 8  87672709.962 7  21410518.531                    21410527.039
 111108083.836 8  86577788.305 7  21143164.539                    21143173.156
 115098530.860 7  89687116.32145  21902476.461                    21902486.086
 116695428.357 8  90931558.017 7  22206400.195                    22206411.980
 118694306.585 7  92489173.946 7  22586770.875                    22586779.855
 118426724.213 7  92280671.20845  22535863.031                    22535873.410
 118072466.612 7  92004736.18445  22468434.766                    22468441.441
 128071714.997 6  99796200.44543  24371235.313                    24371246.109
 11  8 26  2 45 30.0000000  0 10G21G12G05G29G26G25G15G30G02G18
 129108776.032 6 100604312.88843  24568583.961                    24568593.836
 121314327.061 7  94530720.305 7  23085352.445                    23085362.250
 112583029.772 8  87727130.751 7  21423808.430                    21423817.184
 111045279.003 7  86528849.506 7  21131212.914                    21131221.602
 115032875.374 7  89635956.23845  21889982.641                    21889992.055
 116749236.268 7  90973486.273 7  22216639.539                    22216651.637
 118603742.320 7  92418604.426 7  22569536.992                    22569546.223
 118485949.014 7  92326820.40545  22547132.961                    22547143.426
 118118617.616 7  92040698.01345  22477216.945                    22477223.926
 127986171.017 6  99729543.01643  24354956.383                    24354967.180
 11  8 26  2 46  0.0000000  0 10G21G12G05G29G26G25G15G30G02G18
 129052362.859 6 100560354.63543  24557848.930                    24557858.898
 121405331.246 7  94601632.637 7  23102669.961                    23102679.828
 112653140.308 8  87781762.343 7  21437149.703                    21437158.609
 110982782.573 7  86480151.033 7  21119320.297                    21119329.148
 114967678.085 7  89585153.20145  21877576.039                    21877585.609
 116803434.735 7  91015718.842 7  22226953.219                    22226964.848
 118513369.148 7  92348183.826 7  22552338.992                    22552348.512
 118545531.352 7  92373248.22744  22558471.398                    22558481.563
 118164871.857 7  92076740.28645  22486018.672                    22486026.027
 127900816.994 6  99663033.50843  24338714.281                    24338724.887
 11  8 26  2 46 30.0000000  0 10G21G12G05G29G26G25G15G30G02G18
 128995918.925 6 100516372.48043  24547108.438                    24547117.953
 121496449.312 7  94672633.698 6  23120009.203                    23120018.992
 112723519.508 8  87836603.280 7  21450542.813                    21450551.219
 110920597.008 8  86431694.785 7  21107486.461                    21107495.621
 114902942.494 7  89534709.91645  21865257.477                    21865266.488
 116858021.380 8  91058253.888 7  22237340.773                    22237352.523
 118423190.486 7  92277914.798 7  22535178.953                    22535188.664
 118605468.794 7  92419952.73545  22569876.758                    22569886.633
 118211229.908 7  92112863.46845  22494840.055                    22494847.738
 127815654.171 6  99596673.09943  24322507.906                    24322519.371
 11  8 26  2 47  0.0000000  0 10G21G12G05G29G26G25G15G30G02G18
 128939443.815 6 100472365.99743  24536361.156                    24536370.730
 121587677.859 7  94743720.860 6  23137369.195                    23137379.316
 112794164.734 8  87891651.510 7  21463985.828                    21463994.582
 110858724.810 7  86383482.733 7  21095713.188                    21095721.809
 114838671.991 7  89484629.04445  21853027.094                    21853036.242
 116912993.557 8  91101089.366 7  22247801.758                    22247813.715
 118333209.214 7  92207799.571 7  22518055.813                    22518065.664
 118665758.204 7  92466931.51345  22581349.859                    22581359.766
 118257692.298 7  92149067.93845  22503682.055                    22503688.637
 127730683.619 6  99530462.42143  24306338.359                    24306349.043
 11  8 26  2 47 30.0000000  0 10G21G12G05G29G26G25G15G30G02G18
 128882937.189 6 100428334.96543  24525608.625                    24525618.168
 121679014.376 7  94814892.155 6  23154749.828                    23154759.605
 112865073.531 8  87946905.125 7  21477479.359                    21477488.238
 110797168.523 7  86335516.837 7  21083998.875                    21084007.777
 114774869.911 7  89434913.17245  21840885.719                    21840895.316
 116968348.605 7  91144223.168 7  22258335.078                    22258346.922
 118243428.554 7  92137840.671 7  22500971.438                    22500980.488
 118726396.665 7  92514182.28445  22592889.047                    22592898.387
 118304259.408 7  92185354.01345  22512543.375                    22512550.285
 127645906.893 6  99464402.82743  24290206.594                    24290216.703
 11  8 26  2 48  0.0000000  0 10G21G12G05G29G26G25G15G30G02G18
 128826398.394 6 100384278.86743  24514849.289                    24514858.363
 121770454.970 7  94886144.548 6  23172150.438                    23172160.250
 112936242.871 8  88002361.750 7  21491022.953                    21491031.258
 110735929.863 7  86287798.449 7  21072345.414                    21072354.457
 114711539.149 7  89385564.55445  21828834.344                    21828843.469
 117024083.278 7  91187652.785 7  22268941.430                    22268952.980
 118153851.309 7  92068040.253 7  22483925.477                    22483934.508
 118787380.768 7  92561702.37145  22604493.813                    22604503.523
 118350931.475 7  92221721.86045  22521424.391                    22521431.527
 127561324.283 6  99398494.46643  24274109.602                    24274121.074
 11  8 26  2 48 30.0000000  0 10G21G12G05G29G26G25G15G30G02G18
 128769827.243 6 100340197.54543  24504084.219                    24504093.695
 121861997.009 7  94957476.001 6  23189570.367                    23189580.492
 113007671.034 8  88058020.066 7  21504615.180                    21504623.695
 110675012.131 8  86240330.123 7  21060753.609                    21060761.941
 114648683.431 7  89336586.11745  21816873.281                    21816882.383
 117080195.430 8  91231376.535 7  22279619.063                    22279630.793
 118064481.182 7  91998401.239 7  22466918.555                    22466927.926
 118848707.941 7  92609489.79045  22616163.852                    22616173.785
 118397709.383 7  92258172.19945  22530325.945                    22530333.313
 127476937.556 6  99332738.77743  24258051.914                    24258062.547
 11  8 26  2 49  0.0000000  0 10G21G12G05G29G26G25G15G30G02G18
 128713223.335 6 100296090.71443  24493312.742                    24493322.230
 121953638.208 7  95028884.699 6  23207009.289                    23207019.156
 113079355.601 8  88113878.178 7  21518256.070                    21518264.859
 110614417.763 8  86193113.775 7  21049222.406                    21049231.629
 114586305.972 7  89287980.33145  21805002.859                    21805012.652
 117136682.306 7  91275392.289 7  22290367.977                    22290379.891
 117975321.188 7  91928925.976 7  22449951.813                    22449961.395
 118910375.235 7  92657542.22545  22627898.625                    22627908.563
 118444593.639 7  92294705.37945  22539248.102                    22539255.063
 127392747.848 6  99267136.56142  24242030.922                    24242041.410
 11  8 26  2 49 30.0000000  0 10G21G12G05G29G26G25G15G30G02G18
 128656586.001 6 100251957.87643  24482534.555                    24482543.969
 122045374.667 7  95100367.634 6  23224466.367                    23224475.824
 113151293.994 8  88169934.076 7  21531945.523                    21531954.070
 110554148.597 8  86146150.844 7  21037753.883                    21037762.793
 114524409.846 7  89239749.61345  21793224.500                    21793233.609
 117193540.987 7  91319697.760 7  22301188.359                    22301199.855
 117886374.183 7  91859616.655 7  22433026.094                    22433035.176
 118972379.538 7  92705857.27845  22639697.625                    22639707.652
 118491584.510 7  92331321.64845  22548190.328                    22548197.313
 127308755.927 6  99201688.47243  24226046.852                    24226058.449
 11  8 26  2 50  0.0000000  0 10G21G12G05G29G26G25G15G30G02G18
 128599915.032 6 100207798.77043  24471750.289                    24471759.414
 122137203.352 6  95171922.423 6  23241940.508                    23241950.484
 113223483.582 8  88226185.705 7  21545682.703                    21545691.027
 110494207.227 8  86099443.325 7  21026347.172                    21026356.047
 114462998.100 7  89191896.32145  21781538.398                    21781547.723
 117250768.765 7  91364290.839 7  22312078.000                    22312089.879
 117797643.543 7  91790475.952 7  22416140.930                    22416150.625
 119034717.733 7  92754432.49045  22651560.508                    22651570.395
 118538682.508 7  92368021.37745  22557152.586                    22557159.500
 127224963.050 6  99136395.49543  24210102.344                    24210112.844
 11  8 26  2 50 30.0000000  0 10G21G12G05G29G26G25G15G30G02G18
 128543210.132 6 100163613.22343  24460959.758                    24460968.867
 122229121.710 6  95243547.080 6  23259432.109                    23259441.813
 113295922.365 8  88282631.516 7  21559467.820                    21559475.824
 110434596.343 8  86052993.330 7  21015003.492                    21015012.609
 114402074.527 7  89144423.44445  21769944.703                    21769954.547
 117308363.018 7  91409169.468 7  22323038.008                    22323049.840
 117709132.579 7  91721506.423 7  22399297.930                    22399307.570
 119097387.049 7  92803265.72945  22663485.977                    22663495.902
 118585887.966 7  92404804.85345  22566134.828                    22566142.453
 127141370.573 7  99071258.65143  24194195.320                    24194205.465
 11  8 26  2 51  0.0000000  0 10G21G12G05G29G26G25G15G30G02G18
 128486470.314 6 100119400.45543  24450162.680                    24450171.629
 122321126.191 7  95315238.872 6  23276940.281                    23276950.164
 113368606.952 8  88339268.869 7  21573298.492                    21573306.844
 110375317.203 7  86006801.832 7  21003722.969                    21003731.840
 114341641.275 7  89097332.63445  21758444.969                    21758454.281
 117366320.164 7  91454330.880 7  22334066.977                    22334078.602
 117620843.883 7  91652710.073 7  22382496.813                    22382506.145
 119160383.655 7  92852353.98445  22675474.063                    22675483.684
 118633201.204 7  92441672.29545  22575138.719                    22575145.750
 127057978.727 7  99006278.14843  24178325.758                    24178335.895
 11  8 26  2 51 30.0000000  0 10G21G12G05G29G26G25G15G30G02G18
 128429695.121 6 100075160.13943  24439358.602                    24439368.254
 122413213.707 7  95386995.353 6  23294464.047                    23294473.105
 113441535.154 8  88396096.040 7  21587176.914                    21587185.215
 110316372.640 7  85960871.050 7  20992506.227                    20992514.961
 114281701.567 7  89050626.38945  21747038.859                    21747048.320
 117424637.586 7  91499773.021 7  22345164.250                    22345176.125
 117532780.318 7  91584089.151 7  22365739.125                    22365748.285
 119223704.629 7  92901694.99845  22687523.898                    22687533.371
 118680622.928 7  92478624.26445  22584163.273                    22584169.957
 126974788.589 6  98941454.81443  24162495.445                    24162505.410
 11  8 26  2 52  0.0000000  0 10G21G12G05G29G26G25G15G30G02G18
 128372884.659 6 100030892.38343  24428547.547                    24428557.402
 122505381.603 7  95458814.478 6  23312002.430                    23312012.832
 113514704.938 8  88453111.457 7  21601100.625                    21601108.801
 110257765.451 7  85915203.147 7  20981353.828                    20981362.520
 114222259.366 7  89004307.82745  21735727.516                    21735736.734
 117483313.080 7  91545494.196 7  22356330.117                    22356342.000
 117444945.637 7  91515646.596 7  22349025.203                    22349034.336
 119287347.530 7  92951286.87044  22699634.414                    22699644.012
 118728153.668 7  92515661.19645  22593207.695                    22593214.668
 126891802.049 6  98876790.13243  24146703.414                    24146713.234
 11  8 26  2 52 30.0000000  0 10G21G12G05G29G26G25G15G30G02G18
 128316038.597 6  99986596.82743  24417730.430                    24417739.207
 122597627.160 7  95530694.113 6  23329556.734                    23329566.191
 113588114.231 8  88510313.507 7  21615069.711                    21615078.047
 110199498.085 7  85869800.041 7  20970265.820                    20970274.527
 114163317.780 7  88958379.35045  21724510.828                    21724520.598
 117542343.855 7  91591492.207 7  22367562.672                    22367575.078
 117357343.019 7  91447384.848 7  22332354.617                    22332363.578
 119351309.307 7  93001127.22744  22711805.852                    22711815.336
 118775794.061 7  92552783.56345  22602273.031                    22602280.516
 126809019.748 6  98812284.61143  24130950.281                    24130960.625
 11  8 26  2 53  0.0000000  0 10G21G12G05G29G26G25G15G30G02G18
 128259156.700 6  99942273.36343  24406905.953                    24406915.051
 122689947.505 7  95602632.018 6  23347124.320                    23347133.984
 113661760.640 8  88567700.328 7  21629084.023                    21629092.477
 110141573.235 7  85824663.820 7  20959243.133                    20959251.977
 114104880.006 7  88912843.45945  21713390.617                    21713400.141
 117601727.128 7  91637764.894 7  22378863.633                    22378874.941
 117269975.749 7  91379306.503 7  22315728.977                    22315737.836
 119415586.970 7  93051213.72044  22724037.695                    22724047.340
 118823544.489 7  92589991.67845  22611359.906                    22611366.969
 126726443.212 6  98747939.38343  24115236.086                    24115245.949
 11  8 26  2 53 30.0000000  0 10G21G12G05G29G26G25G15G30G02G18
 128202238.444 6  99897921.55943  24396074.578                    24396083.816
 122782339.293 7  95674625.573 6  23364706.164                    23364715.801
 113735641.398 8  88625269.757 7  21643143.219                    21643151.852
 110083993.009 8  85779796.137 7  20948286.008                    20948294.656
 114046948.639 7  88867702.17445  21702366.477                    21702375.945
 117661459.786 7  91684309.834 7  22390230.195                    22390241.469
 117182846.695 7  91311413.781 7  22299148.805                    22299157.672
 119480177.178 7  93101543.74944  22736328.727                    22736338.488
 118871405.211 7  92627285.72445  22620467.383                    22620474.457
 126644073.095 6  98683755.04143  24099561.789                    24099571.828
 11  8 26  2 54  0.0000000  0 10G21G12G05G29G26G25G15G30G02G18
 128145282.732 6  99853540.52243  24385235.773                    24385245.004
 122874799.037 6  95746672.096 6  23382301.047                    23382310.418
 113809753.564 8  88683019.497 7  21657246.313                    21657254.699
 110026759.018 8  85735198.252 7  20937394.172                    20937403.332
 113989526.554 7  88822957.72345  21691439.445                    21691448.664
 117721538.585 7  91731124.479 7  22401662.844                    22401674.285
 117095958.556 7  91243708.773 7  22282614.648                    22282624.063
 119545076.366 7  93152114.54144  22748678.086                    22748688.383
 118919376.910 7  92664666.24245  22629596.109                    22629603.117
 126561910.082 6  98619732.10743  24083925.813                    24083936.629
 11  8 26  2 54 30.0000000  0 10G21G12G05G29G26G25G15G30G02G18
 128088289.317 6  99809130.17143  24374391.008                    24374400.238
 122967323.650 6  95818769.162 6  23399907.984                    23399917.488
 113884094.837 8  88740947.763 7  21671393.227                    21671401.586
 109969873.709 8  85690872.054 7  20926569.523                    20926578.566
 113932616.835 7  88778612.53245  21680610.391                    21680619.316
 117781960.663 7  91778206.617 7  22413160.703                    22413172.129
 117009314.366 7  91176193.871 7  22266126.477                    22266135.586
 119610281.485 6  93202923.71145  22761086.555                    22761096.691
 118967460.044 7  92702133.59345  22638746.172                    22638753.328
 126479955.038 6  98555871.18843  24068330.781                    24068341.535
 11  8 26  2 55  0.0000000  0 10G21G12G05G29G26G25G15G30G02G18
 128031258.213 6  99764690.42243  24363537.750                    24363546.781
 123059910.942 6  95890915.082 6  23417526.305                    23417535.961
 113958663.246 8  88799053.015 7  21685582.883                    21685591.488
 109913339.926 8  85646819.776 7  20915811.516                    20915820.594
 113876222.829 7  88734669.17545  21669878.242                    21669887.746
 117842723.537 7  91825554.313 7  22424723.336                    22424735.129
 116922917.652 7  91108871.813 7  22249685.656                    22249695.164
 119675789.853 7  93253969.18944  22773552.648                    22773562.586
 119015655.111 7  92739688.17445  22647917.648                    22647924.473
 126398209.438 6  98492173.47743  24052775.453                    24052786.094
 11  8 26  2 55 30.0000000  0 10G21G12G05G29G26G25G15G30G02G18
 127974189.202 6  99720221.17643  24352678.664                    24352687.895
 123152557.767 7  95963107.371 6  23435156.453                    23435166.320
 114033456.393 8  88857333.379 7  21699815.242                    21699824.055
 109857160.057 8  85603043.274 7  20905120.875                    20905129.746
 113820347.688 7  88691130.13845  21659245.805                    21659254.941
 117903824.471 7  91873165.419 7  22436350.469                    22436362.363
 116836771.584 7  91041745.045 7  22233292.586                    22233301.879
 119741598.529 7  93305248.67944  22786075.055                    22786085.301
 119063962.461 7  92777330.23645  22657109.805                    22657117.391
 126316674.440 6  98428639.85543  24037259.180                    24037270.086
 11  8 26  2 56  0.0000000  0 10G21G12G05G29G26G25G15G30G02G18
 127917081.880 6  99675722.04643  24341810.992                    24341820.512
 123245261.072 7  96035343.683 6  23452797.672                    23452807.129
 114108471.772 8  88915786.930 7  21714090.414                    21714098.887
 109801336.496 8  85559544.419 7  20894497.750                    20894506.770
 113764994.456 7  88647997.80045  21648712.828                    21648721.977
 117965260.320 7  91921037.504 7  22448041.617                    22448053.102
 116750879.200 7  90974815.960 7  22216947.750                    22216957.250
 119807704.103 7  93356759.51144  22798654.781                    22798664.215
 119112382.795 7  92815060.34844  22666323.930                    22666331.215
 126235350.675 6  98365270.82543  24021783.945                    24021794.109
 11  8 26  2 56 30.0000000  0 10G21G12G05G29G26G25G15G30G02G18
 127859935.613 6  99631192.57843  24330937.008                    24330945.516
 123338017.664 6  96107621.517 6  23470448.164                    23470458.051
 114183706.826 8  88974411.651 7  21728407.305                    21728416.133
 109745871.175 8  85516324.706 7  20883943.469                    20883952.125
 113710165.559 7  88605274.01145  21638278.781                    21638287.926
 118027027.967 7  91969168.143 7  22459795.500                    22459807.109
 116665243.422 7  90908086.832 7  22200651.922                    22200661.258
 119874103.258 7  93408499.13444  22811290.055                    22811299.871
 119160916.414 7  92852878.74245  22675560.078                    22675567.039
 126154238.808 7  98302066.87543  24006348.563                    24006358.559
 11  8 26  2 57  0.0000000  0 10G21G12G05G29G26G25G15G30G02G18
 127802750.001 6  99586632.42443  24320053.906                    24320063.043
 123430824.346 6  96179938.382 6  23488109.328                    23488118.875
 114259159.243 8  89033205.736 7  21742765.344                    21742773.957
 109690766.409 8  85473385.958 7  20873457.063                    20873466.145
 113655864.037 7  88562961.17945  21627945.352                    21627954.820
 118089124.617 7  92017555.154 7  22471611.750                    22471623.637
 116579867.199 7  90841559.949 7  22184405.891                    22184414.500
 119940792.969 7  93460465.12144  22823980.961                    22823990.730
 119209563.702 7  92890785.71244  22684816.773                    22684823.875
 126073340.137 6  98239029.06943  23990954.125                    23990963.637
 11  8 26  2 57 30.0000000  0 10G21G12G05G29G26G25G15G30G02G18
 127745525.004 6  99542041.60543  24309164.539                    24309173.176
 123523678.576 6  96252292.301 6  23505778.156                    23505787.488
 114334826.763 8  89092167.436 7  21757164.227                    21757172.586
 109636024.911 7  85430730.261 8  20863040.195                    20863049.074
 113602093.426 7  88521062.04245  21617713.016                    21617722.387
 118151547.700 7  92066196.509 7  22483490.711                    22483502.203
 116494754.063 7  90775238.076 7  22168208.641                    22168218.152
 120007770.385 7  93512655.31844  22836726.352                    22836736.164
 119258325.448 7  92928781.85744  22694096.469                    22694103.035
 125992655.775 6  98176158.26543  23975600.508                    23975610.434
 11  8 26  2 58  0.0000000  0 10G21G12G05G29G26G25G15G30G02G18
 127688259.900 6  99497419.55343  24298267.125                    24298276.375
 123616577.295 6  96324680.873 6  23523456.406                    23523466.074
 114410706.805 8  89151294.735 7  21771603.688                    21771612.629
 109581648.613 7  85388359.132 8  20852692.992                    20852701.512
 113548856.206 7  88479578.53245  21607582.773                    21607592.148
 118214293.936 7  92115089.684 7  22495431.211                    22495443.051
 116409906.737 7  90709123.317 7  22152062.883                    22152071.910
 120075032.156 7  93565067.07944  22849526.109                    22849535.980
 119307202.067 7  92966867.52944  22703397.180                    22703404.160
 125912186.467 6  98113455.01243  23960287.273                    23960296.969
 11  8 26  2 58 30.0000000  0 10G21G12G05G29G26G25G15G30G02G18
 127630954.542 6  99452766.13443  24287362.688                    24287371.926
 123709517.764 7  96397102.007 6  23541142.523                    23541152.023
 114486797.187 8  89210585.934 7  21786083.156                    21786092.180
 109527640.336 8  85346274.793 8  20842415.250                    20842424.473
 113496155.532 7  88438513.11045  21597553.789                    21597562.988
 118277360.737 7  92164232.655 7  22507431.945                    22507443.918
 116325328.852 7  90643218.526 7  22135967.742                    22135977.270
 120142575.367 7  93617698.13744  22862378.711                    22862388.539
 119356194.260 7  93005043.26544  22712719.859                    22712726.914
 125831933.302 6  98050920.23643  23945015.703                    23945025.949
 11  8 26  2 59  0.0000000  0 10G21G12G05G29G26G25G15G30G02G18
 127573608.963 6  99408081.36343  24276449.609                    24276458.449
 123802496.866 7  96469553.216 6  23558835.422                    23558845.102
 114563095.472 8  89270039.148 7  21800602.484                    21800610.906
 109474002.453 8  85304479.069 7  20832208.305                    20832217.383
 113443994.210 8  88397867.95045  21587628.133                    21587637.156
 118340745.006 7  92213622.989 7  22519493.688                    22519505.926
 116241023.298 7  90577525.926 7  22119925.398                    22119934.641
 120210396.835 7  93670546.04244  22875284.586                    22875294.633
 119405302.294 7  93043309.24745  22722065.492                    22722071.992
 125751897.359 6  97988554.71143  23929785.789                    23929795.367
 11  8 26  2 59 30.0000000  0 10G21G12G05G29G26G25G15G30G02G18
 127516222.401 6  99363364.67843  24265529.547                    24265538.305
 123895511.503 7  96542032.127 6  23576536.203                    23576545.391
 114639599.213 8  89329652.453 7  21815160.766                    21815169.211
 109420736.871 8  85262973.460 8  20822072.422                    20822081.336
 113392374.918 8  88357645.15945  21577805.156                    21577814.301
 118404443.690 7  92263258.322 7  22531615.188                    22531627.250
 116156992.618 7  90512047.526 7  22103934.797                    22103943.859
 120278493.082 7  93723608.05844  22888242.414                    22888252.750
 119454526.754 7  93081665.98945  22731431.922                    22731438.590
 125672079.118 6  97926358.81243  23914595.883                    23914606.168
 11  8 26  3  0  0.0000000  0 10G21G12G05G29G26G25G15G30G02G18
 127458794.423 6  99318615.72343  24254600.820                    24254609.914
 123988558.941 6  96614536.611 6  23594242.086                    23594251.422
 114716306.225 8  89389424.158 7  21829757.336                    21829765.648
 109367845.867 8  85221759.709 7  20812007.516                    20812016.043
 113341300.806 8  88317847.17845  21568085.844                    21568095.359
 118468453.870 7  92313136.389 7  22543796.008                    22543807.426
 116073240.395 7  90446786.103 7  22087997.180                    22088006.398
 120346861.243 7  93776881.94144  22901253.055                    22901262.605
 119503868.080 7  93120113.75644  22740821.648                    22740828.234
 125592479.649 6  97864333.37743  23899448.750                    23899458.680
 11  8 26  3  0 30.0000000  0 10G21G12G05G29G26G25G15G30G02G18
 127401324.671 6  99273834.20443  24243665.227                    24243673.984
 124081635.984 6  96687064.124 6  23611954.367                    23611964.422
 114793213.797 8  89449352.138 7  21844392.852                    21844400.637
 109315331.714 8  85180839.617 7  20802014.273                    20802022.930
 113290774.271 8  88278475.88545  21558471.297                    21558480.680
 118532772.476 7  92363254.794 7  22556035.367                    22556047.430
 115989769.323 7  90381743.753 7  22072113.063                    22072121.926
 120415497.904 7  93830365.04344  22914314.156                    22914323.816
 119553326.839 7  93158653.04644  22750233.234                    22750240.410
 125513099.880 6  97802479.15343  23884342.922                    23884352.895
 11  8 26  3  1  0.0000000  0 10G21G12G05G29G26G25G15G30G02G18
 127343813.280 6  99229020.23643  24232721.055                    24232729.949
 124174740.130 7  96759612.776 6  23629672.023                    23629681.547
 114870319.776 8  89509434.718 7  21859065.406                    21859073.723
 109263197.047 7  85140215.230 7  20792093.344                    20792102.184
 113240798.566 7  88239533.81145  21548961.070                    21548970.594
 118597396.777 7  92413611.397 7  22568332.477                    22568344.582
 115906582.740 7  90316923.083 7  22056283.117                    22056292.727
 120484400.173 7  93884055.11644  22927426.242                    22927434.918
 119602903.603 7  93197284.29144  22759667.352                    22759674.430
 125433940.590 6  97740796.70743  23869279.328                    23869289.723
 11  8 26  3  1 30.0000000  0 10G21G12G05G29G26G25G15G30G02G18
 127286259.929 6  99184173.60743  24221768.672                    24221777.926
 124267868.312 6  96832180.155 6  23647393.352                    23647403.387
 114947621.790 8  89569670.058 7  21873775.523                    21873784.160
 109211444.047 8  85099888.238 8  20782245.125                    20782253.629
 113191376.494 7  88201023.13845  21539556.250                    21539565.410
 118662323.861 7  92464203.936 7  22580688.047                    22580699.605
 115823683.904 7  90252326.626 7  22040508.102                    22040517.402
 120553564.997 7  93937949.78244  22940587.273                    22940597.293
 119652598.782 7  93236007.79844  22769123.750                    22769130.430
 125355002.828 6  97679286.91043  23854257.891                    23854268.043
 11  8 26  3  2  0.0000000  0 10G21G12G05G29G26G25G15G30G02G18
 127228663.911 6  99139293.70543  24210808.344                    24210817.207
 124361017.394 6  96904763.811 6  23665118.258                    23665128.914
 115025117.855 8  89630056.612 7  21888522.391                    21888530.793
 109160074.788 8  85059860.267 7  20772469.891                    20772478.730
 113142510.512 8  88162945.76445  21530257.367                    21530266.625
 118727550.490 7  92515029.896 7  22593100.117                    22593112.051
 115741075.575 7  90187956.542 7  22024788.500                    22024797.469
 120622988.959 7  93992046.36744  22953798.492                    22953808.156
 119702412.794 7  93274823.91644  22778602.820                    22778610.234
 125276287.306 6  97617950.24443  23839278.758                    23839288.746
 11  8 26  3  2 30.0000000  0 10G21G12G05G29G26G25G15G30G02G18
 127171025.275 6  99094380.62243  24199839.336                    24199848.727
 124454184.296 6  96977361.341 6  23682848.016                    23682857.746
 115102804.988 8  89690592.033 7  21903305.523                    21903314.512
 109109091.490 8  85020133.060 7  20762767.820                    20762776.875
 113094203.180 8  88125303.71945  21521064.531                    21521074.012
 118793073.557 7  92566086.831 7  22605569.039                    22605580.613
 115658760.710 7  90123815.125 7  22009124.516                    22009133.629
 120692668.722 7  94046342.28644  22967058.063                    22967068.051
 119752346.204 7  93313733.07344  22788105.328                    22788111.957
 125197794.765 6  97556787.35643  23824341.688                    23824351.906
 11  8 26  3  3  0.0000000  0 10G21G12G05G29G26G25G15G30G02G18
 127113343.651 6  99049433.98143  24188863.773                    24188872.234
 124547366.361 6  97049970.704 6  23700579.859                    23700589.762
 115180681.277 8  89751274.867 7  21918125.305                    21918133.879
 109058496.629 7  84980708.515 8  20753139.750                    20753148.531
 113046457.597 7  88088099.39345  21511979.258                    21511988.148
 118858890.210 7  92617372.545 7  22618093.547                    22618105.281
 115576742.510 7  90059904.883 7  21993516.805                    21993525.984
 120762601.280 6  94100835.18144  22980365.641                    22980375.879
 119802399.621 7  93352735.71144  22797629.734                    22797637.523
 125119526.239 6  97495798.99243  23809448.500                    23809457.668
 11  8 26  3  3 30.0000000  0 10G21G12G05G29G26G25G15G30G02G18
 127055619.035 6  99004453.90443  24177878.586                    24177887.422
 124640561.252 6  97122590.042 6  23718314.156                    23718324.941
 115258744.566 8  89812103.406 7  21932979.953                    21932988.371
 109008292.901 8  84941588.745 7  20743586.711                    20743595.047
 112999276.869 8  88051335.22145  21503001.055                    21503010.066
 118924997.878 7  92668885.019 7  22630673.086                    22630685.270
 115495024.444 7  89996228.500 7  21977966.328                    21977975.328
 120832783.876 7  94155522.91144  22993720.352                    22993730.867
 119852573.601 7  93391832.32944  22807177.453                    22807185.117
 125041482.902 6  97434986.11043  23794595.656                    23794605.980
 11  8 26  3  4  0.0000000  0 10G21G12G05G29G26G25G15G30G02G18
 126997850.745 6  98959439.75643  24166885.242                    24166894.840
 124733765.393 7  97195216.597 6  23736050.820                    23736061.188
 115336992.078 8  89873075.490 7  21947870.055                    21947878.285
 108958482.104 7  84902775.162 7  20734108.109                    20734116.266
 112952663.087 7  88015012.82545  21494130.438                    21494139.891
 118991393.311 7  92720621.718 7  22643307.953                    22643319.254
 115413609.075 7  89932787.997 7  21962473.070                    21962482.172
 120903213.093 7  94210402.80344  23007123.359                    23007133.402
 119902868.722 7  93431023.29744  22816748.461                    22816756.105
 124963665.216 6  97374349.04243  23779788.758                    23779797.332
 11  8 26  3  4 30.0000000  0 10G21G12G05G29G26G25G15G30G02G18
 126940038.220 6  98914391.14743  24155884.289                    24155893.504
 124826976.015 6  97267848.206 6  23753788.258                    23753798.316
 115415421.870 8  89934189.611 7  21962794.648                    21962803.133
 108909066.318 8  84864269.369 7  20724704.180                    20724712.797
 112906618.966 8  87979134.31545  21485368.422                    21485377.746
 119058073.237 7  92772580.100 7  22655996.742                    22656008.508
 115332499.149 7  89869585.499 7  21947038.758                    21947047.602
 120973885.498 7  94265472.19744  23020571.852                    23020581.602
 119953285.237 7  93470308.91244  22826342.656                    22826349.668
 124886073.894 6  97313888.37743  23765023.711                    23765032.832
 11  8 26  3  5  0.0000000  0 10G21G12G05G29G26G25G15G30G02G18
 126882181.424 6  98869308.02243  24144874.742                    24144882.879
 124920190.143 7  97340482.529 6  23771526.000                    23771536.145
 115494031.265 8  89995443.693 7  21977753.797                    21977762.352
 108860047.561 8  84826072.953 8  20715376.359                    20715384.938
 112861146.948 8  87943701.60645  21476715.750                    21476724.805
 119125034.512 7  92824757.732 7  22668738.828                    22668750.738
 115251698.241 7  89806623.792 7  21931662.820                    21931671.902
 121044797.780 7  94320728.52144  23034066.000                    23034076.379
 120003823.698 7  93509689.51744  22835959.516                    22835966.832
 124808709.669 6  97253604.67143  23750301.523                    23750311.141
 11  8 26  3  5 30.0000000  0 10G21G12G05G29G26G25G15G30G02G18
 126824280.272 6  98824190.34343  24133855.492                    24133864.738
 125013404.745 7  97413117.266 6  23789264.148                    23789274.215
 115572818.208 8  90056836.113 7  21992746.484                    21992754.746
 108811428.388 8  84788187.902 8  20706124.586                    20706133.066
 112816249.579 8  87908716.67645  21468171.938                    21468181.547
 119192274.217 7  92877152.310 7  22681533.930                    22681545.723
 115171208.716 7  89743904.726 7  21916345.883                    21916354.977
 121115946.782 7  94376169.30044  23047605.398                    23047615.582
 120054484.623 7  93549165.55044  22845600.344                    22845607.383
 124731573.401 7  97193498.57443  23735622.617                    23735631.891
 11  8 26  3  6  0.0000000  0 10G21G12G05G29G26G25G15G30G02G18
 126766334.390 6  98779037.81143  24122828.938                    24122837.777
 125106617.460 7  97485750.496 6  23807002.492                    23807012.309
 115651780.259 8  90118364.986 7  22007772.695                    22007780.828
 108763211.237 7  84750616.113 7  20696949.008                    20696957.910
 112771930.149 7  87874182.09145  21459738.375                    21459747.000
 119259789.676 7  92929761.762 7  22694381.859                    22694393.492
 115091034.329 7  89681431.217 7  21901089.281                    21901098.012
 121187329.712 7  94431792.35644  23061189.313                    23061198.746
 120105268.761 7  93588737.61244  22855264.156                    22855271.336
 124654666.189 6  97133570.98043  23720987.641                    23720997.316
 11  8 26  3  6 30.0000000  0 10G21G12G05G29G26G25G15G30G02G18
 126708343.642 6  98733850.32243  24111794.336                    24111802.969
 125199825.479 7  97558380.105 6  23824739.148                    23824749.242
 115730915.405 8  90180028.731 7  22022831.320                    22022839.816
 108715398.565 8  84713359.505 8  20687850.523                    20687858.996
 112728191.039 8  87840099.69645  21451414.758                    21451423.734
 119327577.969 7  92982583.813 7  22707281.875                    22707293.520
 115011178.025 7  89619205.571 7  21885893.320                    21885902.242
 121258943.552 7  94487595.36344  23074816.438                    23074826.387
 120156176.636 7  93628406.06444  22864951.578                    22864958.785
 124577988.926 6  97073822.56543  23706396.586                    23706406.262
 11  8 26  3  7  0.0000000  0 10G21G12G05G29G26G25G15G30G02G18
 126650307.932 7  98688627.78143  24100749.758                    24100758.770
 125293025.548 7  97631003.507 6  23842474.305                    23842484.715
 115810221.087 7  90241825.359 7  22037922.602                    22037931.324
 108667992.242 8  84676419.534 8  20678829.313                    20678838.266
 112685034.452 7  87806471.22345  21443202.375                    21443211.285
 119395635.747 8  93035615.836 7  22720233.055                    22720244.906
 114931642.637 7  89557229.987 7  21870758.219                    21870767.016
 121330784.800 7  94543575.55344  23088487.344                    23088496.863
 120207208.568 7  93668171.21544  22874662.844                    22874669.711
 124501542.050 7  97014253.64043  23691849.016                    23691858.418
 11  8 26  3  7 30.0000000  0 10G21G12G05G29G26G25G15G30G02G18
 126592226.765 7  98643369.80343  24089697.258                    24089706.117
 125386215.112 7  97703618.701 6  23860208.594                    23860218.336
 115889694.971 7  90303753.068 7  22053045.695                    22053053.871
 108620994.337 8  84639797.806 8  20669886.102                    20669894.801
 112642463.154 7  87773298.82145  21435101.188                    21435110.180
 119463959.919 7  93088855.452 7  22733234.445                    22733246.059
 114852431.087 7  89495506.738 7  21855684.594                    21855693.559
 121402850.165 7  94599730.39044  23102201.164                    23102210.895
 120258365.166 7  93708033.48044  22884398.094                    22884404.660
 124425326.391 6  96954864.92643  23677345.406                    23677355.070
 11  8 26  3  8  0.0000000  0 10G21G12G05G29G26G25G15G30G02G18
 126534099.869 6  98598076.20443  24078636.438                    24078644.633
 125479390.947 7  97776223.219 6  23877938.750                    23877948.777
 115969335.093 7  90365810.303 7  22068200.930                    22068209.570
 108574406.995 8  84603495.996 8  20661020.797                    20661029.523
 112600479.266 8  87740584.12645  21427111.836                    21427121.094
 119532547.440 7  93142300.263 7  22746286.734                    22746298.266
 114773546.261 7  89434038.079 7  21840673.078                    21840682.215
 121475136.498 6  94656057.40544  23115956.289                    23115966.117
 120309646.868 7  93747993.23944  22894156.031                    22894163.398
 124349342.591 6  96895656.84343  23662886.117                    23662895.109
 11  8 26  3  8 30.0000000  0 10G21G12G05G29G26G25G15G30G02G18
 126475927.398 7  98552747.08844  24067566.539                    24067574.891
 125572550.447 7  97848814.999 6  23895666.047                    23895677.000
 116049139.269 8  90427995.364 7  22083387.070                    22083395.719
 108528232.528 8  84567515.911 8  20652234.039                    20652242.555
 112559085.568 8  87708329.32445  21419235.094                    21419244.000
 119601395.249 7  93195947.912 7  22759387.273                    22759398.934
 114694991.489 7  89372826.605 7  21825724.766                    21825733.625
 121547640.575 7  94712554.08144  23129753.797                    23129763.902
 120361053.980 7  93788050.71344  22903938.742                    22903945.289
 124273591.365 7  96836630.00643  23648471.586                    23648480.379
 11  8 26  3  9  0.0000000  0 10G21G12G05G29G26G25G15G30G02G18
 126417709.152 7  98507382.30344  24056487.492                    24056496.527
 125665690.963 6  97921391.974 6  23913390.547                    23913400.102
 116129104.988 8  90490306.320 7  22098603.930                    22098612.375
 108482473.575 8  84531859.601 8  20643526.531                    20643535.359
 112518284.686 8  87676536.46145  21411470.648                    21411479.875
 119670500.664 7  93249796.282 7  22772537.813                    22772549.383
 114616769.612 7  89311874.534 7  21810839.438                    21810848.574
 121620359.425 7  94769218.13144  23143592.023                    23143601.906
 120412587.491 7  93828206.69944  22913744.906                    22913751.668
 124198073.755 7  96777785.17743  23634100.977                    23634109.453
 11  8 26  3  9 30.0000000  0 10G21G12G05G29G26G25G15G30G02G18
 126359444.193 7  98461981.12743  24045400.359                    24045408.563
 125758809.313 6  97993951.669 6  23931110.234                    23931120.613
 116209230.153 8  90552741.517 7  22113851.211                    22113859.801
 108437131.692 8  84496528.277 8  20634897.977                    20634906.613
 112478078.704 8  87645207.15345  21403820.094                    21403828.824
 119739860.222 7  93303842.697 7  22785736.250                    22785748.305
 114538883.516 7  89251184.106 7  21796018.430                    21796027.605
 121693289.688 6  94826046.90444  23157469.828                    23157479.848
 120464247.747 7  93868461.41944  22923575.414                    22923582.613
 124122790.414 7  96719122.92444  23619774.555                    23619783.387
 11  8 26  3 10  0.0000000  0 10G21G12G05G29G26G25G15G30G02G18
 126301133.133 7  98416543.99643  24034304.094                    24034312.012
 125851902.703 6  98066491.922 6  23948825.367                    23948835.566
 116289512.319 8  90615299.053 7  22129128.453                    22129137.188
 108392209.360 8  84461523.887 8  20626349.500                    20626358.191
 112438469.977 8  87614343.24945  21396282.586                    21396291.754
 119809470.939 7  93358084.802 7  22798982.945                    22798994.547
 114461336.134 7  89190757.619 7  21781261.742                    21781270.668
 121766428.144 7  94883037.88844  23171387.938                    23171397.680
 120516035.276 7  93908815.35244  22933430.516                    22933437.566
 124047741.835 7  96660643.61343  23605493.578                    23605502.758
 11  8 26  3 10 30.0000000  0 10G21G12G05G29G26G25G15G30G02G18
 126242775.190 7  98371070.35644  24023198.336                    24023206.922
 125944968.663 6  98139010.800 6  23966535.188                    23966545.355
 116369949.172 7  90677977.123 7  22144435.414                    22144443.477
 108347708.169 8  84426847.652 8  20617881.156                    20617889.891
 112399461.094 8  87583946.73745  21388859.281                    21388868.203
 119879329.803 7  93412520.266 7  22812276.234                    22812288.688
 114384130.314 7  89130597.275 7  21766569.609                    21766579.082
 121839771.566 7  94940188.60344  23185344.930                    23185354.711
 120567950.275 7  93949268.60044  22943309.664                    22943316.535
 123972928.562 6  96602347.63143  23591256.820                    23591265.844
 11  8 26  3 11  0.0000000  0 10G21G12G05G29G26G25G15G30G02G18
 126184370.590 7  98325560.38444  24012084.547                    24012093.637
 126038004.377 6  98211506.101 6  23984239.680                    23984249.648
 116450539.006 7  90740774.402 7  22159771.070                    22159779.254
 108303631.008 8  84392501.839 8  20609493.727                    20609502.547
 112361054.435 8  87554019.50045  21381550.539                    21381559.816
 119949433.909 7  93467146.831 7  22825616.570                    22825629.145
 114307269.457 7  89070705.744 7  21751943.750                    21751952.715
 121913317.064 7  94997496.77144  23199339.500                    23199349.816
 120619993.620 7  93989821.83444  22953213.578                    22953220.105
 123898351.775 6  96544235.95743  23577064.883                    23577074.531
 11  8 26  3 11 30.0000000  0 10G21G12G05G29G26G25G15G30G02G18
 126125918.765 7  98280013.58244  24000961.516                    24000970.168
 126131006.507 7  98283975.238 6  24001937.969                    24001947.402
 116531278.999 7  90803688.693 7  22175135.242                    22175143.895
 108259979.246 8  84358487.496 8  20601187.102                    20601195.477
 112323251.825 8  87524562.95145  21374357.289                    21374366.375
 120019779.671 7  93521961.685 7  22839003.555                    22839015.289
 114230755.754 7  89011084.716 7  21737383.383                    21737392.234
 121987060.838 6  95054959.46144  23213372.563                    23213382.785
 120672165.653 7  94030475.36544  22963140.836                    22963147.859
 123824011.658 6  96486308.69144  23562918.531                    23562928.156
 11  8 26  3 12  0.0000000  0 10G21G12G05G29G26G25G15G30G02G18
 126067419.570 7  98234429.89144  23989829.336                    23989837.770
 126223972.572 6  98356416.294 6  24019628.266                    24019638.430
 116612166.914 7  90866718.249 7  22190527.672                    22190536.117
 108216755.185 8  84324806.422 8  20592961.438                    20592970.223
 112286055.580 7  87495578.89045  21367279.078                    21367287.891
 120090364.094 7  93576962.527 7  22852435.555                    22852447.004
 114154592.486 8  88951736.761 7  21722889.984                    21722899.078
 122060999.807 6  95112574.24744  23227443.094                    23227453.020
 120724467.078 7  94071229.71144  22973093.734                    22973100.410
 123749908.933 7  96428566.43443  23548817.023                    23548827.035
 11  8 26  3 12 30.0000000  0 10G21G12G05G29G26G25G15G30G02G18
 126008873.271 7  98188809.48644  23978688.664                    23978696.961
 126316900.027 7  98428827.230 6  24037311.828                    24037321.887
 116693200.909 7  90929861.621 7  22205948.234                    22205956.684
 108173961.354 8  84291460.597 8  20584818.203                    20584826.699
 112249468.425 7  87467069.44045  21360316.641                    21360325.508
 120161184.614 7  93632147.343 7  22865911.891                    22865923.445
 114078782.970 7  88892664.451 7  21708463.969                    21708472.953
 122135131.226 6  95170338.97444  23241549.500                    23241559.688
 120776898.232 7  94112085.16144  22983070.945                    22983077.625
 123676044.733 7  96371010.02444  23534760.969                    23534770.758
 11  8 26  3 13  0.0000000  0 10G21G12G05G29G26G25G15G30G02G18
 125950279.545 7  98143152.09044  23967537.820                    23967547.105
 126409785.887 7  98501205.772 6  24054987.813                    24054997.535
 116774378.680 7  90993117.027 7  22221395.766                    22221404.266
 108131599.806 8  84258451.617 8  20576757.359                    20576765.801
 112213492.529 7  87439036.30445  21353470.688                    21353479.285
 120232237.950 7  93687513.554 7  22879433.164                    22879444.715
 114003329.876 7  88833869.873 7  21694105.727                    21694114.730
 122209451.751 7  95228251.05244  23255692.680                    23255702.328
 120829459.758 7  94153042.15344  22993073.344                    22993080.004
 123602419.593 7  96313639.86744  23520751.188                    23520760.266
 11  8 26  3 13 30.0000000  0 10G21G12G05G29G26G25G15G30G02G18
 125891638.228 7  98097457.62144  23956379.445                    23956387.652
 126502627.717 7  98573550.008 6  24072654.914                    24072664.766
 116855698.483 7  91056483.111 7  22236870.664                    22236878.973
 108089672.809 8  84225781.251 8  20568778.547                    20568787.496
 112178130.401 8  87411481.42145  21346741.656                    21346750.367
 120303521.190 7  93743058.933 7  22892997.664                    22893009.543
 113928236.414 7  88775355.512 7  21679815.695                    21679824.375
 122283958.268 7  95286308.06344  23269870.125                    23269880.207
 120882152.271 7  94194101.25744  23003100.039                    23003107.055
 123529034.106 7  96256456.45344  23506785.875                    23506795.125
 11  8 26  3 14  0.0000000  0 10G21G12G05G29G26G25G15G30G02G18
 125832949.200 7  98051726.01044  23945210.945                    23945219.039
 126595422.238 7  98645857.409 6  24090312.750                    24090322.648
 116937157.400 7  91119957.602 7  22252371.469                    22252379.609
 108048181.736 8  84193450.554 8  20560882.883                    20560891.969
 112143383.407 8  87384405.87545  21340129.172                    21340138.297
 120375030.701 7  93798780.605 7  22906605.328                    22906617.227
 113853504.718 8  88717123.064 7  21665594.867                    21665604.266
 122358647.175 7  95344507.19344  23284083.453                    23284093.461
 120934975.764 7  94235262.40344  23013152.273                    23013159.402
 123455888.484 7  96199459.95943  23492867.055                    23492876.086
 11  8 26  3 14 30.0000000  0 10G21G12G05G29G26G25G15G30G02G18
 125774212.235 7  98005957.03444  23934033.828                    23934041.930
 126688166.697 7  98718125.761 6  24107961.727                    24107971.707
 117018753.431 7  91183538.932 7  22267898.930                    22267906.867
 108007128.826 8  84161461.288 8  20553070.992                    20553079.566
 112109254.065 8  87357811.60545  21333634.781                    21333643.559
 120446763.640 7  93854676.405 7  22920255.672                    22920267.594
 113779137.868 8  88659174.907 7  21651442.961                    21651451.867
 122433515.451 7  95402846.10944  23298330.039                    23298340.043
 120987931.164 7  94276526.32844  23023229.094                    23023236.109
 123382983.557 6  96142650.99343  23478994.227                    23479002.484
